GFSCGP_prec_cthk_000.txt.gz
RH
16 16 19 17 17 16 17 18 19 19 20 22 23 21 21 22 24 24 25 23 26 31 34 37 38 36 38 42 48 55 54 52 57 61 62 66 64 64 64 64 61 59 57 56
14 17 17 18 18 18 18 19 20 21 22 24 23 24 23 24 24 26 29 29 30 32 35 36 38 39 42 47 53 57 56 58 63 67 67 68 69 68 67 67 67 67 66 64
17 19 20 20 21 22 21 21 23 24 23 24 25 27 26 25 28 29 30 31 33 35 37 39 42 43 46 51 57 61 63 65 66 68 69 70 70 71 70 69 67 66 64 59
21 24 25 25 26 25 24 24 26 24 24 26 25 31 30 29 30 32 34 35 37 39 41 44 48 51 55 58 61 65 66 67 66 66 68 69 69 69 68 67 68 68 61 55
25 27 29 29 30 29 31 29 28 27 27 28 29 29 36 32 33 35 36 38 40 42 46 51 54 58 62 63 63 64 64 65 65 66 69 71 70 69 72 76 71 61 54 46
27 28 29 30 29 30 30 29 30 32 34 39 35 31 38 35 37 38 40 42 45 48 50 55 58 60 59 62 64 65 67 69 71 72 73 74 74 79 74 67 60 52 49 52
29 31 33 32 31 32 31 30 35 43 43 42 35 33 39 37 39 42 44 48 51 54 57 57 60 64 65 66 66 68 75 77 78 85 84 84 81 73 63 54 50 51 53 49
34 37 36 37 37 37 35 36 41 44 43 40 35 36 42 39 42 44 47 52 57 60 61 65 67 67 67 67 69 70 75 82 84 78 72 68 64 58 57 57 56 53 49 47
36 38 38 38 37 36 37 40 38 44 52 48 36 39 40 43 46 48 52 55 57 59 61 61 61 62 64 64 69 73 70 67 65 64 63 61 60 57 56 53 53 54 50 46
34 39 34 34 35 36 36 38 42 39 54 40 31 38 43 48 53 53 55 58 59 59 60 61 65 67 69 70 65 63 63 66 65 64 64 63 60 61 59 57 52 49 49 53
31 31 31 33 37 38 42 43 41 40 45 47 47 37 45 53 51 52 54 57 60 61 63 65 64 64 63 63 65 66 68 69 71 68 68 67 66 58 50 49 51 53 62 61
35 36 34 35 40 43 44 46 44 45 50 56 58 49 48 52 55 58 60 60 61 64 66 67 68 66 68 71 72 75 75 73 70 72 72 63 54 56 53 61 67 68 67 67
35 37 32 34 41 42 46 46 46 49 54 59 69 54 56 58 59 61 61 60 64 66 67 67 69 71 75 80 82 84 82 76 72 67 66 61 60 66 64 60 62 68 65 64
34 36 35 31 33 37 41 44 49 52 63 61 60 56 58 59 61 60 63 64 68 69 69 72 75 76 76 78 78 79 78 78 78 74 65 53 55 55 52 57 61 63 68 74
37 38 41 40 38 39 47 49 50 52 61 70 63 61 63 62 61 60 63 68 69 72 73 72 71 74 78 77 75 76 81 75 74 65 59 50 47 49 54 55 56 60 62 63
40 45 46 45 43 43 46 48 54 58 63 66 68 67 62 62 64 67 70 72 75 76 74 72 73 75 73 75 76 75 76 74 58 54 43 44 47 50 54 58 59 58 60 62
48 52 55 58 52 51 59 51 53 57 64 65 67 64 64 69 71 72 73 74 77 79 75 68 66 70 76 79 78 70 63 53 41 42 42 47 53 55 56 59 61 61 59 51
58 59 66 69 67 66 52 51 53 56 59 61 61 64 67 70 74 76 75 77 79 77 75 71 71 73 72 69 66 56 49 42 43 45 46 53 55 57 61 64 66 61 45 36
55 64 72 76 69 54 51 52 57 60 58 61 66 69 73 74 73 80 82 77 79 78 75 74 67 60 58 62 53 50 45 43 45 48 53 58 61 66 69 75 62 43 38 35
57 62 71 79 84 78 62 58 59 61 68 74 75 79 84 82 85 86 87 88 79 73 65 56 50 48 53 57 49 50 52 51 47 49 54 57 64 71 78 56 39 40 41 46
62 67 72 78 85 73 67 67 68 81 84 82 87 87 89 89 90 89 82 74 62 58 55 52 52 51 50 47 47 52 53 47 47 52 58 64 73 80 55 41 41 45 49 53
58 71 79 81 86 89 74 77 87 80 79 86 88 87 87 87 85 79 64 56 57 56 53 46 42 39 39 40 43 45 48 50 54 62 65 69 79 61 44 42 44 49 54 57
62 64 69 76 71 79 82 86 82 84 86 89 91 90 87 79 64 56 54 55 50 47 44 42 41 38 35 45 51 51 49 54 62 67 67 76 70 46 44 46 50 53 57 63
65 70 74 79 73 83 88 85 85 87 88 88 91 84 69 60 54 52 49 50 46 40 36 34 33 34 38 43 57 67 61 63 71 70 76 79 50 42 41 46 52 57 61 66
72 76 78 80 81 84 83 86 85 90 92 91 77 64 57 50 47 48 47 40 39 39 37 35 37 39 38 43 52 59 69 79 76 75 83 55 41 43 45 50 54 58 63 65
76 77 87 90 88 88 88 86 91 90 79 71 61 58 52 50 51 46 41 43 41 37 36 38 39 42 45 51 58 69 78 81 78 84 62 43 41 45 51 56 58 61 62 64

GFSCGP_prec_cthk_003.txt.gz
RH
18 30 34 24 21 22 17 19 22 24 21 18 23 21 23 22 23 25 25 26 26 30 45 50 44 42 45 49 53 67 74 60 61 66 67 68 68 72 75 76 74 74 72 69
18 25 18 18 19 18 19 21 22 20 19 18 26 28 26 25 26 28 28 29 32 35 41 43 41 41 46 55 63 64 66 63 63 66 70 69 70 74 75 77 75 74 71 71
25 20 18 19 21 19 22 22 25 24 22 20 22 32 27 26 27 28 30 32 35 38 40 43 43 46 50 54 58 61 65 68 68 71 70 71 71 72 75 75 74 75 75 76
20 19 21 22 24 22 28 24 24 23 23 34 26 34 42 36 30 32 34 35 36 39 42 44 48 51 58 60 63 67 69 69 66 68 69 71 75 76 77 79 79 79 80 71
26 26 29 29 27 26 31 26 26 25 25 27 29 23 49 43 39 36 38 39 41 43 47 50 53 58 63 65 67 68 68 67 66 66 71 75 77 83 92 91 83 73 69 63
24 25 27 28 27 26 27 28 27 28 33 37 41 30 48 52 44 38 41 43 46 47 49 54 59 62 65 68 67 67 68 66 68 72 75 80 79 75 70 66 64 63 61 55
29 30 30 29 33 32 30 34 43 48 45 50 40 27 43 38 37 40 45 46 50 52 56 61 67 72 71 68 65 64 67 70 72 77 69 62 61 64 66 65 61 56 52 51
36 43 33 31 33 34 34 35 43 43 44 42 37 34 49 40 37 41 44 49 54 58 62 65 66 66 68 64 64 66 69 70 70 64 63 65 65 65 64 62 60 58 58 53
34 36 32 29 30 30 36 37 30 39 45 43 34 41 48 49 48 48 51 53 58 60 61 62 65 64 63 64 65 63 63 62 64 66 67 70 73 71 68 67 65 62 59 54
29 38 29 29 30 34 36 33 45 41 52 38 36 33 50 58 54 54 56 60 62 64 66 66 66 67 66 65 65 63 64 68 74 79 77 76 78 80 74 68 69 71 68 64
27 31 34 32 36 39 44 47 41 36 42 50 47 45 53 55 53 55 58 63 65 67 69 68 67 65 66 67 68 69 73 75 75 77 81 79 77 75 77 76 75 65 57 53
30 32 32 31 32 33 35 42 40 44 48 51 55 51 55 59 60 63 64 64 63 64 66 66 67 69 71 70 72 73 73 76 79 83 83 81 79 76 69 71 60 54 47 45
31 36 35 35 43 43 41 44 43 45 48 51 69 59 65 69 72 65 67 67 66 72 70 70 71 72 72 71 69 71 75 78 79 78 76 79 73 62 53 43 40 43 48 51
30 32 32 35 34 34 39 40 41 47 55 56 60 62 60 66 66 64 66 70 70 70 69 73 72 72 72 71 73 73 74 75 72 72 66 57 48 42 39 42 46 51 51 54
31 35 36 35 34 35 40 42 43 46 51 60 60 64 65 64 64 65 67 68 69 71 73 72 70 67 65 66 70 73 78 70 66 61 54 47 38 39 41 46 48 50 53 58
32 41 40 39 36 37 40 41 41 46 53 56 59 60 64 64 64 65 68 68 72 70 72 73 70 70 70 66 66 72 71 67 63 59 52 45 44 45 49 50 50 54 57 59
38 40 43 48 41 44 54 44 45 50 54 59 62 61 61 66 71 72 76 76 75 75 74 73 71 65 64 58 57 60 67 65 59 59 57 56 55 56 56 57 57 63 70 64
44 46 54 58 55 65 53 46 48 49 54 56 58 62 67 70 74 75 78 79 74 70 68 65 62 56 51 49 52 60 65 62 64 64 60 63 62 64 62 64 66 72 64 57
45 54 60 64 56 48 49 50 53 54 54 58 66 73 71 73 75 77 81 72 68 63 60 53 53 49 46 47 49 56 62 64 69 71 72 73 65 71 72 70 75 69 60 60
47 54 58 66 74 71 61 59 60 61 67 75 78 76 74 74 75 72 70 68 64 53 51 53 55 52 49 46 42 40 49 63 66 70 59 58 66 75 79 77 79 64 61 58
57 61 63 65 75 63 60 63 64 75 81 84 80 76 77 78 79 74 68 59 54 51 55 55 53 45 42 35 34 42 52 66 75 71 65 73 78 81 80 83 70 59 57 57
52 63 67 70 79 78 67 70 79 80 82 85 82 82 81 84 78 73 59 52 51 50 50 48 44 42 34 37 42 42 48 66 80 80 79 86 85 81 85 68 61 58 57 56
47 51 60 69 67 71 76 83 87 86 86 87 86 88 87 80 75 64 55 51 51 51 45 44 42 39 40 43 47 50 51 66 67 84 88 88 83 88 67 54 55 57 57 56
42 50 62 69 66 72 74 84 85 87 85 82 82 85 76 68 60 57 54 55 50 45 43 40 40 42 51 54 54 58 56 63 71 80 84 84 90 71 46 56 58 58 54 56
46 52 65 70 73 74 80 88 89 87 81 78 79 71 62 58 59 59 60 52 48 45 40 42 49 53 54 58 54 62 64 74 78 83 87 86 76 55 48 50 56 53 57 57
44 54 70 78 78 81 90 89 92 91 88 80 66 61 59 59 61 60 53 49 45 41 43 48 49 52 53 55 60 63 72 78 83 87 82 80 54 44 43 53 54 55 57 57

GFSCGP_prec_cthk_009.txt.gz
RH
35 35 34 31 33 35 37 30 34 33 26 25 22 30 33 31 30 27 29 30 34 40 39 45 49 51 55 67 63 64 62 65 73 76 71 71 76 78 74 74 70 67 67 69
33 36 40 39 31 26 34 31 35 26 24 22 21 30 29 30 31 32 31 35 36 39 41 46 49 56 61 66 69 70 69 64 66 68 73 74 78 77 73 70 66 68 67 68
30 31 21 25 27 22 28 31 32 26 23 18 24 33 32 32 37 42 40 44 40 39 41 44 48 54 63 66 66 65 63 61 64 69 73 78 76 66 62 65 70 67 63 58
26 28 24 22 22 21 27 26 24 22 22 28 29 43 39 38 38 40 46 45 44 44 43 43 47 51 52 52 53 55 61 65 67 71 74 71 63 64 66 66 62 59 57 58
28 26 25 25 26 21 26 23 22 21 25 29 31 43 52 52 54 50 50 49 54 54 47 42 42 44 47 52 55 58 61 64 69 68 64 60 63 59 55 54 56 60 61 63
25 24 23 22 23 24 25 28 30 33 32 43 42 49 58 58 57 53 55 56 61 50 48 48 48 50 52 56 60 62 64 64 59 57 57 54 52 51 52 55 56 57 60 65
29 29 24 27 30 30 28 34 51 54 61 59 45 53 68 62 58 57 58 59 55 55 53 53 57 58 57 58 59 59 59 56 56 55 56 58 60 60 60 60 59 59 64 65
42 50 30 26 31 31 31 33 51 56 69 58 40 56 59 57 60 64 64 61 62 62 59 59 63 66 69 69 65 60 60 59 56 59 59 56 57 63 67 58 72 68 66 63
43 40 29 19 23 30 36 31 29 44 45 51 48 55 59 63 64 66 68 68 69 63 56 61 62 66 70 71 70 64 61 61 62 61 61 63 68 70 68 74 75 63 61 58
36 33 27 32 34 31 29 28 39 44 49 44 47 60 67 64 64 65 63 65 62 65 68 69 67 68 68 66 63 62 61 59 61 60 63 65 66 71 64 64 61 55 51 45
33 34 32 32 30 30 34 37 32 33 45 53 59 54 54 60 61 62 61 68 69 71 72 72 70 65 62 63 60 57 58 56 54 54 53 50 49 48 52 50 43 39 34 32
28 32 38 31 30 26 27 32 33 47 47 57 59 48 47 55 64 67 74 76 72 72 74 69 65 64 63 61 59 55 51 49 44 39 38 42 47 56 54 51 45 39 42 40
28 30 44 41 38 30 30 32 34 41 46 47 58 54 60 59 64 71 77 71 72 72 63 61 63 60 58 57 55 50 48 42 40 44 46 50 53 57 64 62 54 67 73 72
29 26 31 41 30 28 27 27 31 41 56 51 53 48 49 60 65 66 69 70 68 65 65 66 66 61 57 55 53 47 39 42 43 40 43 43 43 57 70 61 76 84 94 80
27 35 30 28 25 26 26 27 29 32 38 51 47 52 58 62 65 76 76 72 69 71 68 63 60 56 56 54 50 43 41 39 36 35 33 37 55 58 64 84 83 98 91 70
26 39 29 30 31 31 29 30 30 31 36 40 45 52 59 61 65 69 68 71 73 72 66 60 56 56 53 50 44 46 41 37 35 34 32 30 43 56 66 74 95 87 82 71
33 36 39 43 37 39 44 35 33 35 39 44 52 54 60 62 65 70 74 72 70 67 61 58 55 52 47 45 46 44 41 38 35 32 30 37 46 48 60 69 91 94 90 81
32 39 42 46 41 42 38 31 31 36 40 44 52 59 61 63 68 72 71 72 69 66 62 58 51 46 45 47 43 39 38 35 32 27 27 33 40 43 52 77 91 97 86 79
36 38 45 50 49 35 33 32 35 39 44 49 56 60 65 70 75 75 75 73 68 64 57 49 46 46 45 41 38 37 35 31 30 30 33 38 44 48 57 79 99 88 72 71
42 41 44 51 50 50 40 38 38 42 52 54 56 64 70 71 80 78 72 67 64 56 51 48 49 47 44 41 39 35 31 33 37 41 45 49 48 56 62 62 74 72 77 61
49 49 50 51 52 45 34 38 38 52 49 56 59 66 69 73 75 74 70 65 60 55 53 55 50 48 43 40 35 31 34 39 41 44 50 50 55 64 71 77 82 84 67 46
43 50 52 52 56 54 34 39 44 44 51 59 64 69 74 76 76 74 68 65 59 58 58 55 50 45 39 35 31 33 39 42 43 46 49 52 63 73 80 87 91 78 46 38
44 40 47 45 44 36 41 44 46 45 52 63 70 76 77 79 79 76 72 64 60 59 57 49 44 39 35 33 32 36 38 40 44 49 51 57 67 73 81 87 83 50 41 41
36 39 45 47 44 45 52 50 49 53 60 70 76 78 82 82 77 72 64 60 58 54 46 45 39 33 29 27 30 35 38 42 45 51 55 62 69 75 74 66 56 47 43 42
33 37 40 44 45 49 51 51 55 62 69 80 82 84 85 78 75 66 60 57 51 48 43 34 29 25 26 27 27 34 37 42 48 58 60 65 69 66 53 50 51 49 45 44
37 42 48 47 46 49 52 57 64 74 83 83 83 80 76 71 62 58 55 51 46 39 34 28 24 24 26 28 29 32 39 47 55 63 64 66 65 57 49 51 55 51 46 48

GFSCGP_prec_cthk_012.txt.gz
RH
30 32 34 34 36 37 38 35 34 37 34 33 37 37 34 33 34 37 36 35 36 38 43 51 53 55 64 71 77 77 83 89 80 69 70 73 73 77 78 83 83 78 79 72
33 36 36 35 34 39 41 37 38 35 32 32 35 37 38 38 39 38 40 43 44 51 52 57 63 71 81 79 78 80 80 76 73 71 74 77 78 78 80 86 84 72 70 70
34 33 35 37 40 38 37 40 37 35 32 28 31 36 39 41 42 42 47 53 56 59 60 63 64 65 63 64 63 64 64 66 70 74 77 79 79 82 78 75 71 70 64 61
31 32 28 24 26 27 29 37 38 35 26 28 31 46 45 45 45 46 48 51 57 61 59 60 58 55 52 52 54 56 58 63 66 69 72 72 72 67 62 59 56 55 55 51
29 31 31 28 25 22 24 22 23 22 24 27 36 45 50 51 49 50 55 59 61 59 60 59 52 51 50 52 53 56 60 64 67 65 63 61 58 55 54 54 54 54 59 62
31 29 27 25 25 25 24 25 31 32 32 41 42 48 55 53 53 59 64 63 61 61 55 51 52 52 54 56 57 61 62 59 58 58 57 57 55 53 53 54 58 62 63 66
29 25 24 26 28 26 26 32 47 51 55 55 44 56 59 58 61 65 66 64 61 56 57 61 58 56 55 55 59 63 65 64 63 62 58 56 55 55 57 59 62 67 77 78
41 38 27 26 31 30 28 33 50 53 60 57 47 58 60 60 63 66 62 60 62 68 70 68 65 64 62 62 63 66 66 63 59 57 57 57 60 64 62 63 57 67 59 55
45 35 25 25 28 32 31 31 30 41 46 52 52 51 52 54 59 63 70 73 73 70 64 65 71 71 71 69 65 63 63 62 59 60 60 60 57 52 51 41 40 39 45 47
38 31 28 30 29 25 23 25 34 37 41 43 46 52 57 56 58 59 62 62 62 65 66 73 74 74 68 66 65 64 64 62 62 59 50 42 35 33 37 37 44 50 52 54
35 29 33 31 29 28 29 29 30 33 41 48 57 51 47 52 53 56 55 55 64 78 80 80 77 73 68 68 65 62 62 58 55 48 40 34 36 39 40 40 47 59 57 59
33 33 39 31 27 26 26 28 29 40 38 50 52 46 46 50 53 59 62 70 71 83 85 81 77 72 70 66 63 64 60 53 47 40 36 39 44 45 44 48 49 55 72 82
30 32 43 40 37 29 29 27 31 34 39 37 49 43 44 52 56 61 65 66 70 76 77 76 70 68 65 60 56 55 53 48 38 33 32 34 35 35 36 45 59 68 75 81
30 32 31 38 30 27 25 26 31 33 47 43 45 38 48 51 53 55 58 61 67 75 77 71 68 65 61 58 55 53 45 38 37 35 35 36 35 32 36 46 56 65 71 73
30 31 29 27 28 26 26 26 29 31 34 40 36 41 44 49 53 55 59 64 69 73 70 71 68 63 61 56 51 42 39 39 39 37 37 34 28 26 32 36 39 47 57 65
30 35 27 27 30 32 28 27 29 29 29 33 35 46 48 52 56 61 65 68 71 72 73 70 67 64 58 50 43 41 41 40 38 36 33 28 27 29 31 30 37 49 68 82
29 35 33 37 38 36 36 31 30 29 31 32 38 42 50 54 59 63 67 69 72 76 75 70 66 59 51 46 45 45 40 39 39 33 29 25 29 33 34 35 44 58 80 90
34 40 40 40 37 35 31 28 29 32 35 38 43 48 51 57 62 68 71 71 74 74 71 67 59 53 48 48 47 48 41 41 33 28 25 29 32 38 37 43 51 56 85 82
34 38 46 41 46 30 28 31 32 32 36 41 46 51 54 59 65 69 72 71 71 71 66 61 56 50 49 50 51 46 42 34 29 28 32 35 38 40 42 51 63 69 73 77
42 39 40 51 38 36 28 31 33 33 42 41 42 50 53 60 70 71 72 73 71 69 65 61 55 50 51 51 47 41 35 33 31 35 36 38 41 46 50 59 67 76 86 88
47 48 46 52 50 39 29 33 35 45 36 42 44 49 55 62 67 71 73 71 70 70 67 57 51 53 54 50 40 37 37 33 34 32 38 43 45 50 57 64 73 83 88 88
41 47 51 52 52 45 29 36 40 35 37 42 48 50 57 66 71 70 72 74 73 66 55 52 53 53 46 41 36 33 32 30 30 33 41 43 48 53 60 69 79 80 73 57
38 34 41 40 38 30 32 34 37 39 42 47 50 57 65 71 74 75 75 72 67 55 55 55 51 42 37 34 31 31 30 28 28 32 41 50 55 58 65 72 69 58 55 52
35 37 41 41 34 37 40 42 45 49 53 58 62 66 74 77 77 76 71 65 59 57 55 47 41 34 31 30 30 29 25 26 28 40 50 57 58 60 63 61 57 49 52 51
36 40 41 44 44 47 47 50 54 58 61 63 67 74 81 78 76 70 67 62 57 51 46 40 34 32 31 29 26 23 23 29 35 48 58 64 64 64 60 53 55 53 51 49
39 43 47 46 44 47 47 51 56 59 63 68 78 75 75 77 74 69 60 58 52 46 39 35 34 32 30 26 23 25 29 34 42 52 62 67 72 70 59 52 54 54 51 49

GFSCGP_prec_cthk_015.txt.gz
RH
32 34 31 25 24 26 26 31 30 32 29 32 33 33 35 31 33 37 37 39 40 42 47 50 51 54 62 71 80 89 82 83 77 70 76 82 80 83 81 76 78 87 83 79
32 29 26 29 37 39 39 33 31 33 35 33 36 37 39 38 40 40 41 48 54 55 58 59 64 71 77 83 82 71 75 76 78 78 81 82 82 77 74 78 79 76 70 64
30 32 39 41 42 40 40 39 38 38 38 39 34 40 45 47 48 50 51 52 58 60 62 68 71 72 67 67 67 65 63 67 69 71 71 70 70 71 71 69 64 58 53 53
34 33 35 37 35 37 39 38 38 39 40 44 35 48 48 51 56 59 57 57 63 66 66 69 62 60 58 58 56 57 57 56 59 61 63 65 65 66 64 62 59 57 56 56
36 36 34 29 26 27 30 30 34 36 41 39 39 45 47 52 56 58 60 62 65 67 64 62 62 60 58 57 58 59 62 64 67 66 66 65 64 62 59 57 58 56 58 60
31 29 29 28 26 25 27 30 33 36 36 46 44 45 50 51 54 62 65 65 65 71 68 61 57 59 61 61 57 56 60 65 69 68 65 62 59 58 59 59 56 56 62 53
30 29 28 29 27 26 28 32 46 48 50 52 42 49 50 49 54 60 64 66 70 69 64 65 70 75 65 62 64 63 63 66 63 61 58 59 59 58 59 54 50 45 40 43
34 30 26 29 31 29 29 34 49 46 54 48 43 51 51 52 56 57 57 58 62 65 76 78 68 67 68 67 70 65 63 58 55 56 58 57 53 49 44 39 33 34 35 37
38 32 26 30 30 30 28 32 34 45 51 54 49 45 47 50 53 54 56 60 65 72 69 60 65 71 72 71 70 63 59 57 56 56 56 50 45 41 38 36 35 35 37 42
41 35 28 29 30 28 26 27 34 38 38 40 43 45 47 46 48 51 56 58 58 55 55 63 70 79 80 78 71 65 65 64 62 55 48 44 41 37 36 39 37 39 41 49
40 33 32 33 31 29 28 26 29 33 39 44 51 45 38 40 43 46 48 49 51 56 64 70 73 78 81 77 74 70 66 63 56 51 43 37 33 36 34 34 35 42 52 62
40 40 41 31 27 25 24 25 25 36 36 46 46 38 34 39 42 46 49 51 56 64 68 70 76 78 80 79 70 72 66 60 55 46 42 39 36 34 32 30 32 42 44 43
35 37 45 39 33 27 27 27 31 31 35 38 45 36 36 40 44 48 51 55 59 63 67 71 74 77 75 72 74 68 65 55 48 44 42 40 36 30 26 25 25 26 28 31
33 35 33 36 31 28 26 28 30 31 41 38 37 31 39 42 45 48 50 55 58 62 66 68 69 72 69 76 72 63 54 50 45 43 41 36 30 27 28 31 30 27 32 45
31 33 32 31 29 25 24 25 30 32 32 35 30 33 33 40 45 47 51 56 60 64 66 65 65 73 77 73 65 58 52 46 46 41 37 32 28 28 30 31 30 28 36 51
35 37 30 32 31 30 26 26 28 28 28 32 31 32 33 38 45 51 55 59 63 67 68 69 74 73 71 66 59 53 51 48 44 41 36 30 30 32 34 34 28 33 40 50
32 36 33 30 36 32 28 26 27 26 26 27 33 31 37 43 49 53 58 61 65 67 70 70 68 65 64 60 57 54 49 45 44 39 34 32 37 38 36 34 31 36 43 54
35 40 38 38 36 32 22 25 26 27 27 31 32 34 38 44 51 55 57 62 66 70 67 65 66 66 64 57 54 49 48 48 41 36 34 38 38 34 35 35 38 45 52 60
34 38 45 42 43 30 23 27 29 30 29 33 34 37 40 45 52 54 60 63 67 68 66 64 66 66 57 53 51 51 49 42 36 35 35 34 34 34 34 38 45 51 59 67
41 36 37 51 39 34 23 27 28 30 37 32 35 39 41 47 56 55 58 63 67 65 64 67 68 59 54 54 52 49 40 34 33 31 32 35 34 33 37 43 49 57 67 76
51 50 44 53 45 36 24 29 31 40 30 32 36 38 42 49 54 56 63 70 70 68 68 69 59 55 56 53 49 38 33 32 32 32 32 32 34 38 42 46 55 63 70 68
49 51 51 51 52 38 25 33 36 30 29 35 39 42 45 55 60 65 70 73 73 71 70 62 59 57 55 48 37 33 32 32 32 29 29 34 41 46 50 52 60 65 63 62
48 41 44 41 37 27 29 29 30 33 36 41 45 49 56 62 67 69 77 76 74 73 67 63 59 56 46 38 34 33 32 30 27 28 32 42 48 54 56 58 62 61 55 55
41 40 42 40 32 33 35 36 37 41 45 48 51 58 62 67 73 81 83 77 74 71 65 60 55 44 38 36 36 35 31 27 28 31 36 46 53 61 62 65 66 60 54 57
41 44 43 45 41 42 41 42 45 48 50 56 62 63 67 74 84 84 78 76 72 67 61 55 46 40 38 38 35 32 28 28 30 35 42 49 57 65 67 69 65 59 57 57
45 47 51 47 43 45 44 46 50 55 58 60 61 66 72 82 81 79 78 75 66 59 56 48 43 41 39 36 30 28 28 29 34 38 47 56 61 68 73 75 66 60 58 57

GFSCGP_prec_cthk_018.txt.gz
RH
41 41 39 36 29 26 25 28 33 30 26 32 38 39 39 37 37 40 43 44 46 48 52 54 57 62 65 71 81 94 93 88 87 81 82 74 75 80 78 72 71 74 73 70
40 39 36 35 32 29 29 33 34 33 33 34 41 42 40 38 38 38 40 43 47 55 58 58 59 66 75 86 86 78 78 79 77 76 74 73 71 69 68 65 63 62 59 56
34 35 35 32 34 33 37 34 38 37 39 41 42 43 42 41 41 41 45 48 51 58 61 69 71 73 73 71 70 65 61 62 66 65 61 61 62 62 63 61 62 60 56 53
38 39 35 34 40 42 41 41 37 38 43 48 42 54 48 48 50 50 52 55 57 59 59 61 65 63 62 59 55 55 58 61 60 61 63 69 68 66 63 61 58 56 57 58
34 35 37 42 36 34 39 38 40 41 43 44 44 48 45 51 53 53 55 58 58 57 59 61 64 64 60 59 61 64 67 60 62 66 66 66 63 60 60 59 58 57 56 53
34 34 34 34 32 28 28 32 35 39 40 45 37 39 43 47 47 55 57 59 58 59 57 63 64 65 64 69 68 64 64 66 65 62 62 59 57 59 60 56 53 48 43 38
35 34 30 30 29 27 28 32 45 48 52 51 40 42 37 41 47 53 56 58 59 59 59 59 64 77 70 63 65 67 70 71 67 62 60 59 57 53 47 42 37 34 32 31
38 34 27 28 28 29 29 32 46 44 55 48 42 45 41 41 45 51 54 55 55 57 58 63 66 63 61 63 70 74 75 72 64 60 56 51 47 46 44 41 39 38 35 33
36 29 26 28 29 33 30 36 36 49 52 56 49 41 41 42 44 46 47 49 52 56 58 60 56 59 62 64 70 75 73 70 65 57 56 52 50 44 41 40 37 34 31 31
34 36 28 30 33 33 33 33 35 41 38 37 42 42 43 38 40 42 45 49 52 52 53 53 55 59 60 63 66 68 77 78 66 63 60 53 47 43 38 36 33 27 26 29
37 40 34 31 32 33 32 29 31 33 39 42 48 40 32 34 37 41 44 45 48 52 52 55 60 60 63 65 70 80 85 74 68 65 56 50 47 42 38 32 26 23 23 24
45 46 45 33 34 29 27 26 26 34 31 44 43 33 28 32 36 39 42 47 51 54 57 61 64 66 69 74 77 73 71 71 67 60 56 52 45 39 32 28 27 26 24 24
42 43 50 38 32 28 27 29 28 29 34 37 44 31 27 30 33 38 42 47 52 56 59 64 67 69 70 69 68 74 76 64 59 60 55 49 43 37 30 28 28 27 27 27
37 40 36 36 29 30 29 30 29 28 39 35 35 25 30 32 34 38 43 48 53 57 60 65 67 69 68 68 74 70 60 62 61 57 52 47 40 33 31 30 30 31 29 29
33 36 36 35 33 27 24 25 29 29 28 32 27 28 25 31 33 37 43 50 55 58 62 66 67 67 65 76 67 59 63 64 58 53 50 45 36 33 33 33 33 32 30 32
36 37 32 36 36 34 28 25 26 28 27 31 30 28 25 27 32 38 42 48 53 59 63 65 65 67 81 66 64 66 65 58 54 53 47 39 35 36 35 33 33 32 34 37
33 36 34 32 38 33 29 22 24 24 24 24 28 22 28 30 32 36 41 46 52 60 64 64 72 76 69 68 66 66 59 55 54 50 40 35 36 35 34 34 32 33 39 43
32 33 36 39 35 35 20 22 24 25 24 25 26 26 30 31 34 37 42 47 56 62 64 68 75 69 67 67 65 58 57 56 52 41 35 34 33 34 33 30 32 37 42 49
35 35 41 40 41 27 20 23 28 30 27 27 28 31 32 35 38 38 43 50 57 64 67 69 69 67 67 63 59 60 57 53 41 35 33 35 34 30 29 31 36 39 47 54
44 40 39 47 37 33 23 24 27 28 35 25 28 33 35 37 44 37 45 52 60 65 67 70 70 70 67 62 61 57 53 42 37 36 36 32 30 30 31 36 41 46 53 59
55 55 47 55 46 35 25 27 29 36 29 26 28 31 36 40 38 41 48 54 61 63 68 73 73 72 67 62 60 55 44 39 37 36 30 28 28 32 38 43 48 52 57 62
49 55 56 56 54 42 29 34 36 31 28 28 31 35 38 41 46 50 54 60 64 67 73 75 76 72 65 61 55 45 41 38 36 31 28 26 28 36 43 48 52 56 60 62
47 43 46 43 40 32 32 33 33 33 34 34 37 40 46 52 56 61 67 68 73 77 78 79 74 70 63 56 46 43 39 37 34 30 27 27 31 41 47 53 57 63 66 63
41 40 41 39 32 34 35 35 37 39 40 43 47 53 55 59 68 70 71 75 86 86 82 77 71 68 59 50 46 42 40 36 31 28 28 30 36 44 52 57 62 66 65 61
41 43 42 44 40 41 41 42 43 44 45 48 53 57 65 72 73 76 80 90 85 82 79 71 69 60 51 48 44 42 37 32 29 29 31 34 41 49 55 61 68 74 69 62
43 46 50 49 43 44 43 45 47 49 52 55 60 64 68 73 82 89 96 88 83 79 73 72 62 51 50 48 42 40 35 32 32 32 34 41 47 55 60 66 74 75 62 57

GFSCGP_prec_cthk_024.txt.gz
RH
47 50 45 39 37 36 31 34 30 24 25 25 25 40 44 47 47 48 46 44 46 48 49 49 52 55 60 64 68 74 84 91 87 75 71 70 74 73 69 64 58 58 58 56
48 47 44 42 37 31 29 31 37 38 36 32 33 38 39 41 47 48 44 44 45 49 51 53 55 58 60 68 74 80 83 79 74 71 67 69 68 63 58 56 59 60 59 63
47 45 39 39 37 34 33 35 40 40 37 36 34 37 37 37 36 37 41 40 44 46 48 51 56 62 68 71 71 73 73 73 67 63 62 57 57 58 60 64 65 65 66 65
48 44 44 39 39 37 37 37 38 41 41 42 39 37 37 39 40 37 37 39 40 46 53 57 59 59 62 65 72 68 62 59 56 54 56 57 62 66 65 68 72 69 62 58
42 42 44 44 42 40 40 38 36 32 39 39 36 32 44 40 39 43 41 43 49 54 55 58 58 60 62 61 58 54 51 50 51 54 60 64 70 73 71 69 65 63 54 50
44 41 38 41 42 39 38 39 44 41 41 40 35 31 31 35 33 39 45 45 51 54 54 55 56 57 57 58 54 50 51 51 56 60 64 68 66 66 64 65 66 60 59 54
42 39 37 37 38 41 38 41 38 41 38 33 31 27 22 26 29 34 41 46 50 52 54 55 53 53 55 54 54 54 54 59 61 64 63 59 65 72 64 62 58 59 53 48
38 40 32 40 40 36 37 41 36 30 32 31 32 28 29 28 31 37 43 46 48 49 50 49 51 56 56 56 57 57 59 60 60 58 62 67 74 67 62 54 50 48 44 38
34 35 35 35 34 32 33 32 32 34 39 37 28 28 27 29 30 36 41 43 45 46 48 50 54 56 55 53 56 59 61 62 62 65 68 70 68 60 59 54 51 44 40 37
33 36 32 31 31 30 30 29 31 32 40 32 24 24 23 26 26 31 36 38 40 42 46 50 54 53 52 54 58 61 63 67 64 67 66 65 63 61 57 53 45 40 40 37
27 28 31 29 28 30 32 30 30 31 31 25 21 16 17 19 22 26 31 35 38 41 45 49 52 51 53 57 60 63 64 66 66 76 73 62 62 58 55 49 43 42 40 39
27 31 36 36 33 28 29 31 29 26 26 30 28 17 16 18 20 24 29 33 37 41 44 48 52 52 55 59 62 63 63 68 79 79 60 63 59 59 52 48 45 48 46 42
28 34 39 40 36 32 31 29 25 25 25 25 36 17 16 18 19 20 26 32 37 40 44 49 51 52 56 60 63 61 66 78 76 61 63 61 59 55 48 50 54 51 47 39
31 32 37 42 35 31 32 29 25 22 27 22 21 16 17 18 18 19 22 28 32 38 44 48 50 52 56 62 64 62 75 73 65 65 62 60 57 52 47 51 50 50 44 37
33 34 38 40 37 33 28 25 24 23 22 25 17 18 14 18 18 20 22 26 31 36 41 46 50 53 58 63 62 65 76 65 66 64 61 58 56 49 51 50 50 48 39 39
37 36 36 37 35 33 31 26 24 24 23 23 20 18 17 19 20 21 23 26 30 34 40 45 49 53 58 62 62 70 78 59 58 58 60 58 51 53 53 52 47 40 39 41
40 36 35 33 34 33 38 27 24 23 23 24 25 20 22 23 23 24 26 28 30 34 38 42 47 53 60 62 69 79 65 63 60 63 62 58 56 55 54 49 40 41 42 37
38 35 37 39 36 48 21 21 21 22 22 21 23 22 25 25 26 28 29 30 30 32 37 42 49 55 62 66 73 66 66 65 67 66 65 59 58 56 51 45 40 43 42 40
34 34 41 47 32 23 17 19 21 25 21 23 23 23 24 29 31 31 30 31 33 36 40 47 55 62 66 66 75 66 69 75 72 70 62 59 58 55 46 40 40 43 44 41
41 39 38 44 52 55 25 25 27 28 29 24 24 27 30 34 37 33 32 32 36 41 48 55 60 65 63 78 65 75 79 76 71 65 58 57 57 49 42 40 40 40 44 41
47 49 51 46 51 34 28 27 29 32 31 28 29 28 30 34 34 36 38 42 48 52 56 60 66 70 70 70 82 85 82 73 66 58 60 56 50 44 41 39 39 42 42 44
39 46 51 46 55 51 27 31 35 32 30 30 32 35 37 39 44 48 52 53 56 60 65 72 75 72 75 84 85 82 75 69 62 62 55 50 46 42 41 41 42 43 42 48
38 36 38 36 35 31 32 31 33 35 35 37 40 44 46 48 49 51 55 62 65 66 66 74 86 85 92 86 86 77 73 68 65 55 49 48 46 44 42 39 40 42 48 52
36 37 37 36 32 32 34 36 39 41 43 45 46 47 50 55 62 63 65 65 67 72 77 85 88 94 90 87 82 73 71 67 54 49 50 48 45 43 41 42 41 43 52 57
40 41 40 39 36 39 41 44 45 49 52 54 58 63 67 68 68 69 67 70 75 84 89 97 94 94 85 81 74 74 65 57 52 54 51 48 45 42 46 47 42 47 54 61
45 43 45 45 45 45 47 53 56 57 61 65 67 68 69 69 68 72 77 82 84 92 96 95 88 86 79 79 73 63 61 56 52 47 47 47 43 45 44 43 45 50 57 63

GFSCGP_prec_cthk_027.txt.gz
RH
47 50 50 43 46 42 36 39 26 29 29 31 28 34 30 37 41 50 53 54 52 54 57 58 57 63 66 65 66 69 72 77 83 86 78 76 75 75 67 61 57 54 53 53
49 50 52 47 44 38 34 33 34 30 21 24 25 33 42 45 48 49 47 47 50 55 56 58 59 60 63 62 67 72 76 80 86 76 72 71 71 61 59 56 54 57 59 63
57 54 49 46 40 38 36 35 38 36 32 29 38 45 36 34 40 41 43 48 49 53 56 54 56 59 63 65 70 76 76 75 69 68 64 59 58 54 54 58 62 65 66 66
64 53 44 41 44 41 42 33 39 37 34 37 33 34 46 37 31 37 41 44 47 48 51 55 58 61 63 65 64 66 70 67 61 56 54 56 60 65 67 69 69 66 64 65
62 48 46 45 48 35 58 37 37 38 33 53 43 32 47 58 44 34 36 38 42 44 47 53 58 60 60 63 64 67 62 58 54 53 56 60 63 66 69 69 71 70 66 57
62 42 44 43 37 36 38 38 37 36 37 40 30 41 36 49 46 42 36 36 41 44 46 51 57 57 60 60 59 57 55 53 53 53 56 60 62 62 59 69 77 70 59 56
44 44 39 37 38 38 37 41 46 50 46 42 39 37 31 30 37 41 38 38 44 41 43 47 48 51 55 56 54 54 52 53 53 54 55 57 57 64 70 78 66 59 56 54
44 42 35 35 38 46 38 44 51 44 39 34 39 28 28 28 24 31 38 41 44 42 43 44 46 48 52 55 54 52 52 53 54 55 58 60 63 66 69 63 57 54 53 49
44 50 41 34 35 36 43 35 37 43 43 33 19 24 31 21 23 30 37 41 43 42 44 47 48 49 51 52 54 52 53 53 53 57 62 62 65 68 73 63 53 55 51 46
44 48 37 33 33 31 30 36 33 31 40 36 29 29 30 29 21 25 33 35 40 42 41 42 43 46 48 50 52 52 54 53 57 59 60 63 71 81 75 59 54 52 46 47
39 35 46 35 30 34 38 28 26 33 40 41 28 26 26 16 19 22 28 34 35 38 41 41 43 48 49 52 53 53 55 57 59 60 62 69 76 74 58 53 55 52 50 51
34 35 40 37 33 27 29 35 35 34 35 31 33 24 19 14 17 21 24 29 33 35 38 41 43 48 51 53 54 55 58 60 62 63 67 79 75 52 54 57 55 51 54 57
28 25 38 39 30 27 25 25 27 31 31 28 37 23 22 17 15 17 21 26 31 33 36 40 44 46 51 55 57 56 59 60 68 67 71 72 59 56 59 51 52 57 60 60
27 26 33 42 50 42 35 29 29 28 29 23 21 21 22 21 20 19 21 22 28 32 36 41 46 46 52 55 57 57 58 63 67 69 69 75 66 57 55 56 57 60 64 60
31 32 35 34 38 40 33 31 28 26 23 26 21 21 18 21 21 20 23 23 25 32 36 40 44 49 52 54 55 57 60 65 72 74 70 76 73 57 59 61 64 66 64 58
35 36 36 36 35 37 34 29 26 24 22 22 21 23 22 23 22 23 23 27 29 32 38 38 43 48 50 52 53 55 63 68 75 72 75 68 61 62 62 64 66 68 61 52
40 40 39 34 34 32 37 27 25 25 24 26 28 25 26 27 27 26 26 30 29 30 34 38 42 46 50 53 54 58 67 74 78 73 71 69 66 67 64 64 67 61 53 54
40 43 44 40 41 52 22 22 21 22 22 24 25 23 25 25 27 27 28 29 34 34 35 38 43 46 51 56 59 66 72 78 72 72 75 76 70 67 65 68 64 55 55 59
38 41 43 51 34 26 22 19 22 23 22 24 25 24 25 28 26 29 38 34 32 34 36 40 46 53 58 60 63 71 74 69 72 84 80 75 70 67 72 65 57 53 52 55
39 39 39 39 53 57 31 25 23 24 28 27 25 26 27 28 30 33 38 36 34 36 42 47 52 59 63 66 71 72 74 80 85 84 85 71 70 75 63 57 55 56 54 58
49 50 50 46 52 37 29 27 25 30 36 32 29 28 29 31 33 39 39 39 43 47 51 55 62 65 66 66 74 84 89 92 87 82 63 76 73 62 59 57 54 55 54 53
39 45 51 48 56 49 28 28 30 37 31 31 32 33 36 40 42 44 44 45 52 58 64 65 67 68 70 76 83 93 93 89 78 76 82 71 64 64 63 57 55 55 55 53
40 36 41 36 39 38 31 31 31 32 32 34 38 40 43 45 47 52 59 63 65 66 64 62 68 71 78 85 94 96 89 83 85 81 70 68 69 62 61 60 56 54 52 50
36 35 35 35 31 33 34 33 36 38 41 42 45 49 52 55 59 64 68 64 64 62 64 72 77 86 92 96 93 89 85 89 76 76 72 68 61 60 58 57 57 51 45 47
41 39 38 38 34 35 39 47 45 45 49 54 57 60 63 64 65 67 69 66 67 73 76 85 91 93 93 92 85 87 82 75 75 72 67 64 62 60 56 56 51 47 42 49
40 42 45 45 45 44 46 50 50 54 57 59 62 65 64 64 68 71 76 77 81 86 89 92 91 91 90 92 88 82 77 72 67 66 65 61 55 48 46 48 43 44 46 51

GFSCGP_prec_cthk_030.txt.gz
RH
45 43 46 53 55 47 41 40 39 33 30 34 40 38 33 25 37 51 52 52 48 46 46 46 47 48 49 53 56 60 65 72 72 76 81 72 57 54 54 55 54 47 45 45
58 47 49 61 51 48 45 42 37 31 19 29 32 34 30 25 35 44 49 49 50 48 48 48 49 54 56 57 58 64 68 72 71 79 69 58 55 52 51 48 46 47 50 53
69 57 56 54 48 38 39 39 41 36 24 14 34 24 33 29 34 41 43 46 49 53 50 51 51 54 55 60 63 65 69 69 71 68 57 56 52 49 46 47 48 53 60 63
61 57 52 47 45 41 43 44 42 41 41 26 36 42 54 54 36 33 38 38 43 49 49 51 51 54 57 59 64 66 68 63 62 61 58 53 50 50 52 55 56 60 62 64
60 52 49 46 52 51 45 40 42 37 39 46 49 53 49 54 44 43 45 43 44 47 47 49 47 50 53 58 61 59 63 60 62 57 54 51 54 56 58 60 65 63 67 67
48 53 57 62 45 40 37 35 35 36 40 58 48 59 55 52 52 62 51 50 44 40 42 46 50 48 53 53 53 58 61 59 54 53 52 53 53 55 56 59 63 64 67 65
42 38 45 41 40 31 30 39 48 70 68 51 38 39 40 43 60 53 45 44 44 37 43 48 52 48 49 51 53 56 53 51 51 51 49 50 52 54 56 59 61 70 71 63
52 50 41 30 34 51 37 36 54 79 81 55 44 39 35 30 33 41 45 44 42 43 43 44 47 51 53 51 51 51 49 49 50 48 46 49 53 57 59 62 66 73 67 66
54 63 59 40 33 31 46 39 42 47 52 44 24 19 23 29 25 22 31 35 40 41 40 41 43 46 47 47 47 47 48 49 48 46 47 52 56 57 60 66 73 66 66 50
59 80 57 42 33 25 27 32 35 33 37 35 32 33 44 42 37 20 30 34 38 40 38 37 39 41 43 44 46 48 49 51 48 47 52 56 59 61 64 68 75 74 52 44
39 68 56 40 33 27 36 34 27 26 42 52 45 40 36 31 25 19 28 34 34 36 35 34 36 39 42 45 47 50 52 54 49 51 55 59 63 71 67 68 68 64 53 48
29 35 39 36 37 29 32 42 37 46 31 39 41 31 31 24 17 19 21 31 33 33 35 36 36 39 41 45 49 50 55 55 53 53 59 63 67 77 67 63 76 75 63 57
36 33 36 35 41 31 24 20 23 37 39 38 54 30 25 21 19 18 20 24 32 35 37 40 41 41 43 45 49 53 56 57 55 57 63 70 73 73 82 67 74 69 59 56
30 30 28 40 41 51 52 37 27 30 44 34 29 23 29 26 25 23 22 22 27 35 39 42 49 52 49 48 50 56 57 58 57 61 71 73 74 88 71 74 75 60 57 67
25 26 25 29 40 52 47 41 37 34 31 35 27 25 26 26 27 28 29 27 27 26 38 45 47 53 57 54 55 60 59 58 58 68 75 78 82 72 89 76 71 64 66 66
32 35 34 38 36 38 36 37 33 29 29 28 25 26 26 29 27 26 27 27 27 30 30 40 46 47 53 57 59 59 58 58 61 74 79 74 87 86 79 74 69 60 69 80
45 40 41 42 35 33 36 29 27 25 26 29 31 28 29 28 28 30 28 29 28 29 32 34 42 45 51 56 63 68 64 65 66 78 80 84 80 86 78 77 67 75 80 72
49 45 49 51 46 48 25 24 24 24 25 26 28 29 28 29 28 27 26 28 30 34 37 36 35 40 48 58 64 67 68 70 76 80 79 81 84 85 86 71 76 77 68 68
45 45 51 62 46 31 27 26 24 25 25 26 25 25 26 27 27 30 33 35 35 33 33 35 39 46 52 60 62 69 72 73 76 79 85 88 89 88 76 77 74 70 71 67
36 42 49 47 55 55 36 30 27 25 32 29 28 29 29 27 33 33 37 37 38 39 40 43 46 51 61 67 68 68 72 78 83 84 87 87 91 81 83 75 77 73 68 70
54 53 56 54 57 45 34 31 28 33 40 34 34 32 30 32 33 38 40 41 42 47 52 57 62 67 67 66 67 72 77 81 90 92 92 88 92 83 82 81 72 70 68 70
42 50 55 53 62 56 30 29 31 38 35 32 31 31 33 37 38 40 45 52 55 58 62 62 60 61 64 72 73 80 87 92 93 94 95 88 82 83 78 73 72 71 66 62
40 37 44 40 44 37 33 33 32 33 33 33 35 38 40 43 47 52 56 61 63 64 61 57 62 73 78 83 87 90 94 97 95 91 84 84 80 77 73 73 69 59 53 47
36 36 37 37 30 36 37 34 36 38 39 42 43 45 49 53 57 60 64 63 60 59 63 71 76 78 81 87 90 91 92 92 90 87 83 78 74 70 65 54 50 50 49 45
41 41 37 36 35 37 40 45 45 45 47 45 48 54 55 58 60 60 58 59 65 73 77 77 79 84 89 89 89 91 90 83 75 72 66 61 57 50 44 43 43 41 43 46
40 39 43 46 44 42 48 48 48 48 48 49 54 56 57 57 58 61 68 74 77 78 80 83 84 84 84 83 80 75 73 64 59 59 53 47 41 41 44 42 37 38 40 45

GFSCGP_prec_cthk_033.txt.gz
RH
53 46 46 48 52 49 50 46 45 42 36 39 45 43 36 40 38 37 37 39 42 40 41 42 42 39 42 45 47 45 55 55 64 59 65 70 58 57 53 52 49 52 48 44
51 53 54 47 52 54 54 48 47 40 35 34 39 39 36 33 34 44 47 46 44 44 40 43 42 39 41 42 49 55 61 62 64 65 71 68 64 61 52 49 48 46 45 48
61 52 52 51 57 52 54 53 44 39 29 23 35 36 42 32 31 41 44 40 40 42 42 43 43 40 43 48 55 58 71 63 65 65 68 66 60 53 49 49 45 46 47 51
55 56 56 54 50 52 48 52 45 40 39 25 33 47 44 43 39 44 48 46 46 47 47 47 47 45 43 53 56 58 59 60 62 64 64 58 53 48 46 44 47 51 54 56
54 57 56 53 48 47 48 47 44 44 50 50 38 43 43 50 48 47 52 46 47 46 47 47 51 49 53 51 55 56 56 59 59 58 59 53 51 46 45 47 49 52 51 50
48 53 52 49 48 47 42 39 41 47 48 55 41 46 53 54 47 48 47 43 49 49 53 58 53 51 51 50 50 52 56 56 59 57 54 53 51 46 46 51 56 57 59 59
45 47 49 45 47 42 38 40 52 55 64 61 53 57 52 45 40 39 34 36 41 48 54 53 48 48 50 48 48 53 53 54 55 51 50 50 46 48 53 59 60 63 63 64
46 60 60 52 55 55 40 46 63 72 76 59 55 59 44 41 39 35 35 34 33 39 44 41 41 43 43 45 45 47 49 49 47 48 49 50 49 52 55 56 60 65 66 66
47 54 57 53 48 45 47 47 46 59 63 64 42 29 42 34 36 42 36 27 34 37 35 35 38 41 43 42 44 48 48 46 46 47 49 51 55 58 59 61 62 74 76 65
50 54 54 60 48 38 34 46 49 48 43 40 28 39 51 46 53 48 34 33 32 32 36 39 40 40 41 43 45 47 47 48 47 48 51 55 61 62 64 65 73 69 71 76
52 50 57 59 52 37 36 36 36 32 40 50 56 48 42 43 38 42 41 33 34 34 34 33 34 35 37 40 41 44 47 49 50 51 54 57 65 66 69 73 72 78 80 86
49 50 63 55 37 35 32 34 45 50 35 45 49 38 37 34 32 30 30 32 33 35 34 34 34 34 34 36 38 41 47 51 53 55 56 61 69 71 72 78 76 80 85 81
35 39 48 48 45 42 35 30 35 39 42 42 49 40 28 28 29 30 26 26 33 38 39 40 39 38 38 40 44 51 56 57 58 59 59 62 71 74 77 77 84 78 78 75
34 33 36 38 26 40 44 46 36 26 46 40 42 34 26 28 31 31 27 27 30 33 36 42 44 46 49 54 57 63 68 69 63 59 60 66 73 76 81 81 82 75 83 84
34 33 27 25 27 39 44 56 46 41 37 42 37 35 26 36 34 32 32 32 31 33 38 44 45 50 58 63 66 74 78 78 73 74 71 73 73 80 83 79 78 86 84 79
28 31 25 27 27 35 38 45 44 41 37 34 35 35 32 35 32 30 29 29 31 35 35 29 36 47 57 57 63 68 68 70 74 72 78 80 77 84 84 81 91 91 82 76
31 35 41 40 34 32 36 30 30 32 35 33 33 35 34 32 30 30 30 30 29 28 29 32 35 42 45 48 50 55 65 76 76 82 84 82 85 88 88 90 94 87 81 84
47 50 54 52 42 40 29 26 26 28 30 30 30 31 31 32 32 30 30 29 29 30 31 33 32 33 36 41 50 57 70 75 80 82 80 85 89 92 93 95 90 86 86 84
54 60 60 56 52 37 33 29 27 27 30 27 27 29 29 30 30 31 31 32 32 32 33 36 38 40 43 49 57 65 71 74 74 78 85 88 92 93 92 91 88 90 86 82
49 51 52 55 54 48 39 32 28 27 37 30 30 30 29 28 34 35 33 33 36 38 39 42 43 47 57 61 63 65 69 75 81 86 88 92 94 94 95 93 88 85 82 76
52 53 54 60 57 47 36 32 30 36 38 31 30 31 31 31 32 33 37 41 40 40 45 51 57 60 60 63 67 75 80 82 86 89 96 97 95 92 89 88 84 77 70 64
45 56 60 64 64 54 32 29 30 35 32 32 32 32 33 34 36 39 42 44 45 49 54 58 60 63 68 74 77 83 86 90 93 93 94 91 89 87 78 71 67 63 58 55
42 37 41 41 43 32 28 29 32 32 33 33 35 36 37 38 42 45 49 52 53 53 54 56 65 73 78 82 83 83 87 90 90 87 84 80 70 62 54 57 58 52 48 46
37 36 40 39 37 36 34 34 34 34 34 37 38 39 40 43 47 52 56 55 54 57 61 66 72 75 77 79 80 81 80 76 71 64 55 46 43 45 44 48 42 38 37 38
39 38 40 40 39 40 42 42 41 43 43 41 46 45 45 49 54 56 57 59 62 67 69 72 75 77 75 73 73 71 63 50 44 39 34 30 30 29 28 32 34 38 43 46
39 41 41 45 38 37 44 45 45 46 50 50 49 50 53 57 57 59 62 67 73 74 76 76 74 72 70 65 56 46 39 33 28 25 23 23 25 29 33 36 40 46 48 46

GFSCGP_prec_cthk_036.txt.gz
RH
50 40 42 47 46 47 48 48 46 46 47 48 45 41 39 43 45 44 47 46 44 47 44 43 45 47 51 54 49 42 44 51 56 54 59 60 54 48 43 46 46 45 44 43
53 48 46 47 53 51 50 49 48 45 41 36 40 46 46 43 42 41 42 46 49 50 46 43 43 46 47 49 53 54 56 62 59 58 55 54 54 49 50 48 43 42 43 43
51 45 44 47 52 54 54 50 48 45 40 34 39 43 47 39 48 51 44 41 41 41 45 41 41 44 44 44 50 58 63 62 58 57 56 54 53 52 48 46 45 46 46 45
49 48 48 51 53 53 50 44 42 44 43 31 32 44 40 36 37 48 51 48 40 43 46 44 43 49 43 46 52 59 62 61 58 59 59 57 56 52 51 48 48 47 48 51
50 51 50 50 51 49 50 50 48 45 47 37 42 44 41 44 42 45 53 56 50 50 44 42 47 50 52 50 57 61 61 62 60 61 62 60 59 53 51 49 48 51 54 55
49 50 51 51 51 50 51 50 49 54 56 56 52 45 43 48 44 42 43 42 46 49 57 47 52 52 55 54 68 68 62 57 59 61 60 58 55 50 48 48 51 55 58 59
48 51 50 51 50 49 49 50 59 60 67 58 51 49 44 44 38 36 37 44 42 44 51 52 54 54 56 54 64 59 56 56 57 55 55 53 52 53 53 56 59 62 65 69
55 52 48 48 50 53 50 46 59 56 59 53 52 51 50 40 39 34 35 31 35 39 43 48 56 53 52 56 52 52 51 52 52 53 54 54 58 63 68 70 71 71 72 69
57 55 56 49 49 51 50 46 46 62 63 65 52 41 37 38 34 32 37 32 33 34 35 42 44 46 45 53 46 49 51 52 51 53 56 58 63 67 71 77 80 78 77 78
50 56 52 52 48 45 44 45 52 56 55 55 37 37 43 41 38 42 39 27 29 32 34 36 38 38 40 42 46 48 46 50 52 55 59 64 69 77 80 78 77 78 82 74
44 50 50 49 49 50 43 35 41 45 50 50 53 43 38 41 39 38 34 30 27 26 28 27 26 28 32 36 38 42 46 48 51 55 61 68 74 81 85 83 76 72 78 75
44 52 59 46 45 45 41 39 43 56 45 50 52 37 37 41 36 36 36 36 31 28 28 27 28 30 31 33 36 37 42 49 55 60 67 67 70 77 80 72 75 72 75 81
46 56 61 50 52 43 43 42 42 43 50 44 52 40 31 29 32 34 35 33 31 30 31 34 38 40 39 39 45 50 51 55 63 74 77 74 71 72 70 70 66 69 82 72
46 48 40 43 37 41 41 43 47 45 52 44 42 35 35 33 33 31 31 30 32 35 38 42 44 45 43 43 50 61 66 68 71 74 72 71 77 85 80 78 79 79 77 78
50 47 40 32 30 32 32 36 42 47 41 41 30 38 33 31 33 31 30 30 30 34 40 43 47 45 43 47 56 57 65 68 79 83 79 82 90 87 80 76 97 83 92 84
45 44 41 37 34 29 29 32 32 43 47 45 41 41 37 38 34 30 30 31 33 35 37 37 35 36 39 44 55 54 62 72 81 78 79 87 89 87 90 82 89 88 91 96
42 41 41 39 34 30 34 26 32 31 44 43 45 43 38 37 35 34 36 37 37 37 35 31 30 30 31 37 46 51 52 60 69 75 82 86 83 77 78 89 90 92 94 95
48 46 45 48 41 46 28 22 22 25 27 30 35 35 35 36 38 38 37 35 34 33 32 31 30 28 31 35 41 47 56 71 81 84 83 81 83 85 87 91 90 90 94 92
57 62 61 57 56 42 30 25 26 31 35 33 33 34 36 37 36 38 38 37 35 34 32 30 32 35 38 42 46 53 59 67 70 74 78 85 86 83 91 97 96 93 89 83
52 60 62 70 60 52 32 29 31 33 43 35 34 34 34 32 38 38 36 35 33 32 33 34 35 41 47 50 54 58 61 65 73 80 82 87 88 96 96 94 84 79 68 60
51 59 61 66 61 46 31 34 33 35 34 35 35 35 34 33 32 32 31 31 33 34 36 42 47 49 53 54 56 59 66 76 85 94 93 90 92 89 82 73 64 53 47 47
41 57 62 65 64 49 34 34 35 36 36 33 31 32 32 32 32 32 33 35 39 43 48 51 53 55 56 61 68 75 84 87 85 84 88 88 80 67 60 50 40 31 28 27
44 35 42 46 46 37 31 29 29 28 29 32 33 35 34 35 35 36 38 43 47 51 53 54 58 61 67 72 74 74 75 77 81 81 76 64 56 47 38 28 22 24 26 27
37 35 38 38 40 37 34 33 33 33 32 34 37 38 38 39 40 42 46 50 52 53 54 60 65 70 74 75 77 80 79 75 67 58 49 41 33 27 22 22 24 24 26 31
35 37 39 46 45 44 42 39 37 37 39 41 42 43 44 45 46 49 53 55 56 59 63 69 73 76 79 80 76 70 62 53 45 36 28 25 22 20 20 22 24 28 32 38
33 34 39 43 40 41 45 45 45 45 47 49 49 50 51 50 53 56 57 59 63 69 74 77 77 77 72 68 64 56 48 38 28 21 19 18 19 21 24 27 30 36 42 48

GFSCGP_prec_cthk_039.txt.gz
RH
47 40 40 39 42 47 51 48 46 44 42 51 46 48 51 51 51 46 49 49 46 41 43 44 41 42 43 43 43 44 49 53 58 53 57 62 60 62 57 49 46 45 47 50
50 42 41 40 43 46 48 47 50 46 46 46 44 44 47 49 47 43 44 47 48 47 46 41 40 40 41 45 46 50 51 55 53 53 57 60 62 63 54 50 47 46 50 47
51 44 45 44 45 42 43 45 50 50 45 39 41 44 41 42 43 45 44 46 47 39 41 43 43 43 44 44 46 50 53 58 56 55 58 62 60 57 55 52 51 50 48 45
52 47 45 45 48 45 49 50 51 49 49 39 39 43 42 38 38 43 47 52 49 38 43 50 50 54 54 52 52 55 59 63 62 58 59 60 60 58 58 56 51 49 46 44
50 51 51 49 48 50 53 50 51 46 46 47 46 39 31 34 35 40 47 53 55 51 45 46 50 56 60 65 62 58 68 73 63 59 58 61 64 59 62 58 50 47 48 49
47 49 51 51 49 50 49 48 50 50 52 53 47 45 41 36 38 41 42 46 47 48 50 54 56 60 65 66 61 70 72 72 63 63 58 59 59 61 63 57 50 52 55 59
47 48 48 50 51 50 49 51 57 58 66 58 54 52 42 34 39 39 39 39 39 46 43 51 54 59 64 62 62 74 65 64 62 59 58 58 57 59 68 63 59 63 69 75
51 52 48 49 51 49 51 51 56 54 61 55 52 50 39 38 40 38 38 28 33 39 41 46 53 55 60 62 65 72 58 57 57 55 55 55 58 58 62 73 74 79 81 79
49 53 51 51 51 52 51 51 45 58 62 63 49 44 36 36 42 40 34 34 30 30 31 37 38 46 51 61 64 60 51 52 50 50 55 54 57 64 70 77 81 79 83 85
41 49 49 51 49 50 51 49 48 53 54 57 46 41 38 38 38 38 39 39 28 28 30 32 34 40 44 53 44 45 47 46 45 46 50 58 67 63 70 79 83 86 87 84
37 45 50 49 47 44 47 49 46 46 57 59 58 44 31 35 28 30 34 32 24 24 24 24 27 27 28 31 34 37 37 38 41 44 49 54 64 73 77 80 77 80 77 86
35 39 49 44 45 47 46 51 50 53 42 54 59 43 27 35 37 35 33 39 34 31 26 24 27 30 33 35 37 40 40 43 47 55 63 69 76 82 81 80 77 81 82 86
37 40 44 45 47 48 49 49 46 45 48 49 56 44 29 28 26 30 33 32 33 35 34 34 35 38 42 43 42 43 47 52 59 73 78 79 80 86 87 88 91 89 84 81
36 43 45 47 46 50 53 48 47 48 59 46 44 32 30 27 30 31 28 28 28 30 32 34 39 44 46 46 47 53 66 64 75 76 75 76 87 87 85 89 92 86 87 96
41 47 47 47 44 37 42 46 45 43 43 46 38 39 33 30 31 29 27 28 29 31 35 39 42 46 45 47 53 60 63 70 66 75 83 75 86 85 90 91 85 92 84 88
45 53 49 51 47 44 38 34 37 38 35 38 38 42 37 37 37 33 31 32 32 32 36 38 39 39 38 40 41 44 48 54 56 58 67 73 85 90 93 87 82 83 89 92
48 52 54 48 48 44 45 36 32 29 30 32 40 40 39 37 37 36 35 34 36 37 37 36 33 33 33 32 34 36 39 43 51 60 70 77 85 88 82 82 83 91 91 96
51 51 54 56 47 50 27 26 24 25 23 25 29 33 37 37 40 40 38 38 38 37 35 35 35 34 32 31 32 36 41 49 55 64 70 75 76 76 80 86 90 89 89 92
44 44 52 53 55 43 35 31 30 27 26 24 27 31 35 37 36 37 37 37 37 36 36 34 33 33 33 33 35 40 46 53 59 64 68 72 78 84 90 98 97 93 94 82
46 43 54 57 61 64 47 39 31 32 39 31 32 34 36 36 38 39 37 36 35 33 31 29 30 33 34 37 41 46 51 54 59 66 73 82 87 97 98 92 92 83 67 55
59 61 61 60 56 50 39 37 36 38 33 35 37 37 37 38 37 38 36 34 32 31 32 34 37 40 43 46 48 50 55 63 70 75 82 88 90 92 91 86 76 62 47 37
57 65 55 53 53 51 37 39 35 32 37 39 41 42 41 39 37 35 33 33 34 36 38 41 44 46 48 48 54 61 67 72 76 81 85 85 84 81 75 61 48 40 31 25
51 45 39 39 44 41 38 37 35 38 39 40 36 35 35 36 35 35 36 38 39 42 45 48 50 51 53 59 65 70 75 78 80 81 80 77 70 57 46 37 29 26 24 22
50 41 34 36 34 34 32 29 29 30 31 33 34 36 37 38 38 41 43 43 46 50 53 54 54 57 62 69 74 78 79 76 74 69 63 54 45 35 28 24 22 20 20 23
47 37 36 39 35 34 33 32 33 33 33 35 38 41 42 43 45 47 49 50 52 55 57 58 62 68 75 76 75 72 68 66 63 56 47 38 28 21 19 19 22 24 27 32
51 41 35 36 31 32 34 37 36 36 38 41 44 47 49 50 53 55 56 58 61 63 64 67 73 76 74 69 65 64 61 54 44 36 32 26 22 21 22 23 24 29 35 41

GFSCGP_prec_cthk_042.txt.gz
RH
45 43 40 40 39 45 49 52 46 47 46 45 45 45 50 57 53 48 43 43 44 46 47 47 46 43 40 40 40 45 50 56 52 48 55 63 64 63 62 60 59 53 51 51
48 48 36 42 38 48 47 45 51 49 44 42 44 46 47 53 49 46 44 45 46 46 47 46 44 44 42 41 41 46 52 59 58 53 55 58 56 60 61 60 60 54 51 54
48 45 42 43 40 46 45 45 49 53 50 46 44 44 44 45 49 47 46 43 49 48 48 47 45 43 44 42 43 45 48 55 58 53 53 54 60 61 60 62 58 53 55 57
49 48 43 44 46 45 47 43 44 49 48 46 43 43 43 42 42 43 44 46 50 42 44 48 50 54 57 54 53 53 54 59 62 58 53 52 55 58 61 60 58 56 58 55
46 50 48 47 45 46 46 52 49 46 48 45 41 41 39 39 40 40 45 49 50 55 51 48 52 54 60 61 62 62 58 61 71 62 56 55 54 64 72 72 65 68 72 60
44 46 48 47 48 47 48 49 52 53 52 52 46 45 40 36 34 37 42 42 49 52 50 49 52 65 71 72 71 66 64 69 72 68 58 60 59 66 73 79 75 75 75 68
43 44 46 48 47 49 47 51 62 60 64 57 52 52 42 39 37 38 39 41 38 38 45 48 51 59 64 71 73 65 69 68 62 62 57 60 61 65 68 77 75 82 79 77
44 45 47 48 47 50 51 52 61 55 61 53 52 50 38 37 36 40 38 35 30 28 33 39 49 54 61 66 68 67 70 65 58 56 56 58 60 63 68 79 83 85 85 85
46 47 49 50 51 52 51 53 51 61 63 65 49 40 31 33 43 46 40 38 29 26 26 32 38 46 52 57 57 65 59 57 52 51 54 55 66 70 75 80 87 87 85 87
43 45 53 54 51 53 51 51 53 57 55 52 47 42 37 29 37 40 40 38 32 30 28 29 32 33 36 38 45 45 41 42 46 50 52 54 63 66 73 74 79 82 86 84
40 40 46 54 50 50 51 52 54 54 56 57 58 46 36 33 33 32 33 32 31 28 26 25 27 27 27 30 32 34 36 41 45 45 45 52 61 70 77 81 84 83 87 87
39 40 45 45 48 47 45 46 48 59 52 59 59 46 36 32 33 35 35 34 37 37 30 26 26 26 28 32 36 39 44 53 57 61 61 71 78 84 85 82 82 83 88 89
39 40 42 42 47 46 46 48 50 55 58 58 56 39 31 35 29 28 33 35 36 39 40 40 40 39 39 41 47 56 55 59 70 75 79 83 85 82 80 85 87 86 88 91
38 42 39 36 33 42 48 48 51 49 58 48 48 37 36 34 31 30 29 27 27 28 29 31 31 34 42 48 51 54 58 61 64 66 73 78 77 79 85 85 84 81 88 88
44 45 43 39 41 47 48 48 50 54 50 52 41 38 38 37 36 32 31 25 27 32 34 35 36 40 44 46 48 49 49 47 47 51 64 66 66 64 72 78 82 85 87 85
45 47 43 45 46 46 47 45 43 45 44 39 38 34 29 30 38 37 36 35 34 36 38 38 38 39 39 37 34 33 35 39 41 46 51 54 60 68 77 80 79 79 90 75
43 48 53 55 56 54 50 39 38 34 31 30 33 29 29 33 37 39 38 39 39 40 39 37 36 35 32 30 31 30 31 31 36 41 46 54 60 66 71 74 75 74 84 88
58 56 53 64 59 53 32 30 30 31 28 28 28 29 29 28 35 38 40 40 43 41 39 37 36 34 34 33 30 29 31 35 40 48 56 61 64 69 73 75 80 86 92 98
56 59 62 64 61 43 32 29 34 35 31 26 25 27 27 27 30 36 40 42 42 40 39 38 37 34 32 30 30 33 37 42 47 52 57 62 68 72 78 84 91 98 94 93
55 54 61 66 58 51 34 30 39 38 33 30 29 32 34 36 40 43 42 42 40 39 36 34 32 32 34 35 38 42 44 47 50 54 60 67 73 80 89 90 91 90 89 87
67 64 63 66 57 46 37 31 29 36 30 29 31 34 37 39 37 38 41 39 37 36 34 33 34 37 39 42 45 45 48 51 57 64 68 74 78 82 86 89 87 83 72 60
60 66 67 65 61 56 34 29 31 31 31 30 32 35 38 39 39 40 39 35 35 33 34 36 38 41 44 47 48 51 55 60 66 72 75 79 79 80 80 75 65 56 45 33
59 51 55 54 53 45 30 26 28 32 33 32 33 36 38 39 38 35 34 35 36 37 38 41 43 47 50 52 55 58 66 70 72 74 73 72 69 65 59 52 43 34 27 22
57 49 52 53 47 42 29 28 25 25 27 30 33 32 32 32 33 34 36 38 41 43 44 47 50 53 55 57 62 68 71 70 65 64 62 60 55 49 40 34 30 25 21 23
58 55 56 51 48 39 28 26 26 26 27 29 31 31 32 34 37 40 42 45 48 50 52 54 57 59 61 65 69 68 63 61 60 56 49 44 42 38 33 31 27 25 27 32
65 62 60 51 48 31 25 27 28 30 32 33 32 34 37 40 44 48 51 53 56 58 61 64 66 68 69 70 64 60 57 54 50 46 45 44 39 35 32 26 22 22 22 21

GFSCGP_prec_cthk_045.txt.gz
RH
37 42 38 37 34 40 44 45 45 52 49 52 47 46 45 55 54 45 42 43 43 42 47 50 49 46 47 46 46 48 52 53 55 49 49 50 54 57 64 59 57 54 53 51
39 46 38 36 37 43 45 43 49 45 44 43 44 42 43 49 54 46 43 45 41 42 43 46 47 44 42 42 46 50 53 58 63 58 49 52 54 58 60 58 61 64 61 56
38 42 42 42 41 45 44 40 53 52 47 41 47 41 43 44 43 45 46 49 46 49 45 43 44 45 44 40 39 43 49 55 63 62 54 53 53 55 58 59 64 62 57 53
38 45 43 44 45 40 45 41 47 49 51 51 48 43 40 43 46 45 44 49 52 49 45 43 42 47 46 45 46 47 51 55 60 65 58 54 52 55 59 64 72 72 70 65
36 44 48 46 44 45 44 46 47 46 48 49 49 44 40 42 36 45 47 53 55 53 44 45 51 55 53 55 56 61 62 61 60 66 69 59 58 59 59 70 79 79 81 76
35 40 46 47 44 44 46 47 49 52 49 49 48 44 38 35 33 34 35 45 52 55 58 58 55 59 63 64 61 64 67 66 67 76 76 70 64 64 63 66 71 74 83 81
35 38 45 46 48 47 46 50 55 55 55 51 51 49 41 39 37 35 38 38 43 49 54 58 59 61 62 64 68 66 69 64 71 72 70 67 61 63 64 66 69 78 85 85
35 39 43 44 48 48 50 48 57 53 53 48 51 47 39 40 37 38 39 38 38 36 41 47 50 56 61 62 64 66 71 66 74 78 73 65 58 57 61 65 72 79 87 89
40 40 43 49 51 52 53 54 52 60 64 59 48 43 35 32 34 37 40 40 40 33 26 29 38 43 51 58 60 67 70 68 68 66 65 56 57 59 58 71 82 84 91 92
36 41 46 51 57 59 57 56 58 59 59 59 48 45 34 34 32 31 38 42 41 38 31 27 26 28 34 44 48 54 59 58 56 47 48 52 58 61 64 73 81 86 91 94
34 38 45 52 58 56 61 59 57 57 57 55 53 43 37 37 35 34 35 36 33 33 32 24 24 26 26 29 33 37 40 37 37 41 48 56 63 69 74 82 88 90 92 91
33 40 45 43 51 55 55 53 51 57 53 56 55 45 38 34 37 35 34 34 36 32 30 31 27 23 25 26 28 29 33 38 44 54 61 69 74 80 84 84 87 91 91 94
34 39 42 39 45 52 53 51 49 50 52 53 62 46 38 32 33 35 32 30 34 37 37 42 41 40 39 39 42 44 45 49 56 62 69 73 73 73 80 86 89 91 91 90
34 39 37 37 34 42 51 49 49 50 55 50 49 37 34 36 37 34 29 28 26 29 32 34 39 45 48 47 49 52 51 54 53 54 52 50 51 64 81 85 82 82 82 82
41 41 38 35 37 39 38 43 50 48 47 51 43 43 39 37 28 37 33 33 30 31 33 37 40 43 44 45 47 49 49 47 46 47 48 52 59 57 65 64 60 65 71 74
47 44 44 42 43 42 42 41 47 47 43 38 40 38 36 31 29 25 34 39 37 38 39 41 42 45 45 45 43 42 40 35 36 37 40 46 51 53 53 55 58 66 72 79
49 49 47 47 48 46 48 43 42 40 36 33 33 26 27 27 29 29 31 38 40 40 42 42 43 43 41 40 39 36 33 32 32 33 38 43 49 53 56 59 61 67 69 82
53 50 51 55 53 61 41 44 41 36 30 29 30 29 29 28 32 34 35 33 39 43 43 42 41 40 40 39 36 32 29 29 32 37 43 49 53 56 58 62 66 71 79 86
55 52 58 65 58 43 37 38 37 37 23 25 33 30 31 31 32 34 32 31 33 37 41 43 42 41 38 33 30 29 30 34 38 42 45 48 52 55 59 67 73 79 85 88
61 55 59 64 64 60 35 36 34 31 29 22 29 28 29 33 34 33 37 38 40 41 40 40 39 37 34 31 32 34 36 40 42 45 49 51 56 61 65 70 74 79 81 81
68 66 61 62 61 51 36 35 34 40 25 22 26 27 29 33 34 37 39 40 40 40 40 38 36 34 34 37 39 41 44 46 49 52 55 60 65 69 70 72 74 72 65 59
69 72 69 63 63 52 37 38 40 33 22 26 29 29 32 34 37 38 40 42 42 40 37 35 35 36 39 42 45 47 49 51 55 61 66 67 65 64 65 63 58 51 44 39
73 65 66 56 52 45 40 37 40 28 22 25 30 31 32 35 37 40 42 42 39 37 37 38 39 41 45 49 52 53 55 59 63 64 62 59 56 54 52 46 42 39 36 33
71 69 70 65 56 49 40 41 43 31 23 23 26 29 33 34 36 38 39 37 38 39 41 44 46 48 52 54 55 56 61 64 61 57 54 51 47 45 43 41 39 37 34 31
72 70 70 62 56 47 41 41 42 31 23 24 26 29 31 32 35 37 39 40 42 46 49 52 54 55 58 60 63 64 64 62 57 50 46 47 47 45 42 39 33 27 25 25
65 67 71 63 58 57 48 46 38 27 25 25 26 30 32 34 36 39 42 46 50 54 57 60 62 63 66 69 70 66 61 55 50 50 51 49 44 40 37 33 30 29 27 23

GFSCGP_prec_cthk_048.txt.gz
RH
30 34 39 32 32 32 38 37 43 46 45 52 50 49 49 51 52 42 48 45 41 46 54 57 53 53 56 57 57 61 63 64 64 58 54 51 55 59 63 66 61 59 58 58
32 36 38 33 33 33 40 44 47 43 41 44 44 45 44 49 48 44 42 42 42 47 49 51 49 48 47 51 53 57 58 62 64 64 58 53 56 62 63 64 62 58 57 56
33 36 37 36 34 38 43 50 50 48 42 38 38 37 41 45 46 41 40 43 44 44 47 48 47 44 43 44 49 52 57 62 66 69 67 60 59 60 65 63 64 61 65 66
32 35 38 38 37 39 45 45 44 48 48 48 42 44 39 42 46 42 40 40 42 45 45 45 46 45 45 44 44 47 52 57 62 66 72 64 59 59 60 63 62 65 73 75
33 35 37 41 40 39 43 42 44 46 46 47 47 46 45 41 42 39 38 41 43 48 45 41 43 51 49 51 53 53 55 60 64 64 67 72 64 62 66 66 64 65 72 75
36 35 38 42 41 41 45 47 46 46 47 50 44 43 40 39 37 37 37 38 47 54 52 48 50 57 58 57 61 61 65 69 76 71 72 80 78 73 71 68 66 65 66 73
32 34 35 39 45 42 45 50 56 58 55 53 46 43 43 43 36 34 36 37 40 48 52 56 54 63 63 63 64 64 68 75 79 76 77 79 80 80 77 69 66 64 66 71
34 36 34 36 42 45 45 48 58 62 57 53 48 45 44 39 37 34 35 36 42 45 50 51 55 61 68 67 69 68 68 76 82 75 79 81 78 80 74 70 67 64 72 79
31 33 33 38 44 45 48 48 52 59 58 54 46 42 38 34 30 29 34 38 41 41 38 39 45 51 58 64 67 70 73 77 82 79 75 73 80 75 68 69 70 71 79 86
31 35 38 43 46 48 51 52 55 56 62 57 50 46 40 36 33 29 28 35 44 43 43 42 33 37 46 54 60 70 74 71 74 75 68 63 58 55 61 65 69 77 83 86
34 35 44 45 46 48 51 54 55 56 54 57 53 47 40 37 37 36 32 31 34 38 40 40 36 29 33 38 45 55 57 57 60 60 56 46 46 54 62 68 75 79 81 87
33 37 41 42 47 49 49 53 56 58 54 50 50 45 40 38 36 38 37 34 31 32 33 37 34 33 35 36 37 40 43 48 48 45 43 47 55 64 72 77 73 78 88 93
34 37 42 42 43 45 44 46 49 51 51 47 58 45 38 38 39 31 35 36 34 33 33 34 38 40 40 39 40 40 41 44 46 49 50 54 57 57 58 56 60 80 88 94
32 36 36 40 36 39 44 44 48 51 56 48 48 43 41 42 34 34 32 34 31 32 33 33 35 41 46 49 51 52 51 50 49 49 52 51 50 50 52 54 57 61 66 78
41 41 37 33 34 37 33 34 44 48 45 46 42 40 39 39 38 38 29 30 34 32 33 37 37 41 46 48 49 51 55 57 52 53 52 52 49 52 56 57 56 57 59 60
44 43 41 39 35 34 35 33 34 38 39 42 38 33 32 35 38 35 26 22 27 29 33 38 42 46 49 53 55 56 54 53 53 52 44 41 40 42 46 50 52 53 55 57
48 45 44 42 40 41 44 34 34 35 37 36 36 33 33 29 27 28 29 27 26 34 36 41 47 50 51 50 50 49 48 45 42 38 37 37 38 41 45 49 53 55 56 60
54 49 49 49 55 64 31 32 34 34 36 38 30 25 27 32 32 33 34 35 35 35 39 41 42 45 45 47 46 44 43 40 37 34 34 37 41 44 46 49 53 55 58 65
56 57 57 64 49 39 35 30 36 41 32 33 27 28 28 33 33 30 33 36 38 39 39 37 38 41 44 44 43 41 37 34 32 34 37 39 41 44 47 51 57 62 66 69
64 63 62 62 55 61 30 33 38 38 27 32 24 19 23 30 31 28 31 34 36 37 37 39 43 44 44 43 40 36 33 34 37 40 43 46 48 50 56 61 63 66 66 66
72 73 70 62 62 45 34 33 45 44 25 30 26 21 25 27 28 32 35 39 40 41 41 43 45 45 41 39 37 35 37 40 44 47 48 50 52 57 60 62 62 60 56 51
70 71 74 69 75 61 40 40 37 31 35 32 28 20 26 30 33 36 38 40 43 43 43 45 44 42 41 39 40 43 45 48 49 50 53 57 59 60 58 53 49 44 43 42
75 69 66 57 54 49 47 42 40 39 37 38 32 21 25 31 34 38 40 42 44 45 44 43 43 41 41 44 47 49 51 52 54 56 57 55 52 49 44 44 44 47 47 46
49 63 66 65 56 57 56 51 49 45 40 43 38 23 24 28 33 37 40 41 41 42 43 41 42 44 47 50 51 51 54 57 57 56 53 50 45 44 45 46 44 44 41 37
41 47 54 63 61 60 59 56 55 47 45 42 39 25 24 28 32 36 38 40 41 42 42 43 46 50 53 55 55 57 58 62 60 55 49 47 46 46 44 43 40 39 38 36
41 43 48 53 54 67 64 62 58 53 49 41 34 30 28 30 32 37 39 41 43 44 47 52 56 58 60 62 62 62 65 61 56 52 49 46 45 44 44 45 46 42 38 32

GFSCGP_prec_cthk_054.txt.gz
RH
32 31 27 31 43 47 36 36 35 40 40 41 41 50 71 56 55 51 51 48 43 48 50 49 52 50 48 48 48 50 52 58 59 53 46 52 50 47 45 53 54 64 75 78
37 36 30 34 41 38 32 27 32 39 47 41 34 38 50 61 76 49 36 43 40 47 47 48 48 48 50 50 48 48 50 54 58 54 49 46 49 50 49 58 78 69 74 73
39 38 40 34 34 30 26 25 34 48 50 42 31 34 34 44 68 54 37 42 41 42 43 43 43 42 42 45 47 47 48 52 53 55 57 56 52 48 50 52 59 61 66 68
43 41 44 38 31 30 34 30 37 45 46 41 44 38 35 35 50 54 44 40 40 42 45 44 42 41 41 43 43 45 48 50 55 57 65 68 60 60 59 57 64 62 63 61
41 44 38 37 29 32 36 41 42 34 40 38 47 46 41 43 41 47 47 43 43 42 41 40 39 38 41 43 44 44 49 52 57 65 68 79 73 67 64 64 63 64 65 65
44 47 41 38 31 32 40 41 44 41 40 47 39 49 47 49 47 49 54 53 50 46 41 46 50 47 44 47 50 48 51 54 58 65 68 76 83 82 77 78 74 70 71 72
46 44 42 41 36 36 39 42 48 50 48 46 44 47 43 43 47 47 47 48 48 57 54 47 46 51 49 50 53 53 55 59 60 65 70 78 82 87 80 79 78 81 81 78
49 50 39 40 36 38 36 39 46 62 74 58 54 50 45 41 44 41 35 35 45 46 48 50 47 48 56 54 53 54 59 62 67 69 69 75 70 78 88 89 74 81 79 77
49 49 38 44 36 33 50 43 39 51 57 64 60 42 40 34 36 33 31 32 33 36 54 51 50 55 55 56 50 53 59 64 68 68 78 70 74 72 74 80 89 80 79 79
48 52 44 46 45 34 35 52 52 47 65 67 51 41 49 46 37 34 32 33 38 40 38 39 51 56 62 60 56 52 60 66 69 67 72 71 71 71 73 82 79 77 75 72
48 52 50 47 46 38 35 42 56 52 48 57 55 51 49 50 43 35 36 34 34 37 36 37 42 49 58 65 69 71 53 64 70 73 76 77 75 71 74 73 73 66 70 70
47 51 50 52 48 40 38 38 47 54 55 53 59 54 49 44 45 43 40 37 36 37 37 31 37 50 59 65 67 61 52 54 65 77 86 85 81 80 74 76 70 66 60 60
49 52 60 51 53 47 35 44 48 46 50 58 77 55 49 40 40 40 36 34 36 35 38 35 34 34 37 48 63 69 67 63 55 63 79 87 80 77 71 62 61 59 62 63
55 56 52 52 59 50 45 48 53 53 64 55 57 55 46 43 42 39 38 41 38 36 33 36 37 34 35 38 40 47 53 57 55 60 63 67 68 62 62 58 60 64 63 61
58 58 56 49 47 52 49 44 46 55 52 57 58 52 41 45 52 50 50 49 50 43 41 36 39 40 38 34 37 43 47 51 57 57 57 55 56 54 58 64 67 64 61 56
56 57 56 56 46 43 49 52 44 38 40 41 47 47 42 46 48 48 45 46 44 43 43 41 45 45 42 40 41 38 44 46 51 52 52 58 63 66 69 66 64 53 47 44
56 58 58 56 51 47 45 46 46 44 46 41 44 41 46 41 43 44 41 36 41 36 36 39 41 50 54 48 48 51 49 48 51 59 65 69 68 64 59 54 46 42 39 40
58 61 59 71 63 65 43 40 41 42 40 40 37 38 38 39 42 45 46 38 33 32 30 34 38 44 52 54 53 54 56 59 62 61 57 58 58 55 50 46 41 38 39 42
69 72 81 72 70 56 46 44 45 44 36 35 33 35 41 38 47 39 32 30 32 32 31 36 37 42 46 48 54 55 55 58 54 56 56 54 53 50 44 39 38 40 43 45
76 77 83 77 73 70 50 44 42 43 46 38 40 44 42 46 44 34 30 23 22 24 30 34 34 38 44 48 50 49 50 48 46 45 49 50 46 41 38 39 43 46 47 49
82 90 92 85 80 56 45 46 48 51 41 37 44 42 48 47 37 27 23 22 23 27 30 32 34 38 44 46 47 44 41 42 46 49 49 43 39 38 41 44 47 48 49 50
69 78 94 85 85 80 55 51 52 39 32 49 42 48 53 43 33 27 27 24 24 27 30 34 36 38 41 42 41 41 45 48 49 46 42 39 39 43 47 49 50 49 51 50
76 67 81 80 69 67 60 58 55 51 50 51 58 58 45 43 37 34 31 30 26 30 32 36 38 41 44 45 47 49 50 48 45 44 40 42 46 49 51 51 52 53 53 53
64 72 76 71 65 67 67 71 59 55 58 56 62 65 57 51 45 41 36 35 29 31 35 38 41 43 45 47 47 47 48 49 49 46 47 50 53 55 56 56 56 56 54 52
45 59 73 64 58 61 57 71 73 70 59 62 61 62 62 57 50 45 41 38 34 35 37 40 43 45 46 47 48 49 52 52 51 52 56 59 65 64 60 59 57 57 55 54
42 49 47 59 51 54 55 59 61 64 62 62 61 65 66 65 61 56 50 43 37 39 41 44 47 48 49 50 49 51 52 54 55 58 64 73 71 66 66 64 62 60 61 60

GFSCGP_prec_cthk_057.txt.gz
RH
36 35 34 25 22 37 37 41 37 38 45 49 54 61 52 48 57 61 57 46 42 39 40 40 40 43 44 41 39 44 51 57 55 58 60 63 63 64 66 68 64 60 59 60
38 37 30 27 32 32 43 40 33 39 47 51 47 54 48 45 51 61 58 48 40 36 38 37 36 36 37 37 38 40 44 45 46 46 47 47 48 51 51 50 49 56 62 71
42 36 31 37 35 35 39 35 26 37 44 46 44 42 46 50 50 51 58 56 40 35 37 37 35 34 34 35 37 37 41 43 42 40 39 40 44 44 46 45 52 65 67 73
45 40 39 43 40 36 33 29 26 30 41 46 47 47 38 54 57 50 57 54 45 39 34 37 36 35 35 37 36 35 37 40 43 46 48 47 47 48 45 44 45 51 57 58
39 42 44 46 44 39 30 39 36 36 35 36 38 46 43 54 62 61 57 59 51 43 33 34 36 34 39 42 44 43 39 45 44 47 51 55 62 62 58 54 54 52 62 67
40 41 43 43 42 38 32 37 42 41 44 45 38 43 43 47 48 54 52 52 55 45 44 36 42 46 43 42 48 52 51 50 49 51 51 60 68 70 71 63 64 64 64 71
41 42 45 46 46 40 35 42 53 56 53 51 42 44 36 46 44 48 50 52 50 43 44 55 44 43 45 43 49 50 52 53 56 56 58 60 65 77 76 79 70 71 76 79
47 49 44 43 45 39 36 40 56 57 60 58 47 50 46 44 47 41 39 41 36 43 43 40 41 42 42 47 46 47 50 53 56 59 62 69 72 73 81 75 81 78 76 77
47 45 46 45 45 42 45 45 44 47 57 72 61 52 48 44 41 41 40 36 37 43 42 41 40 42 45 48 48 47 42 44 48 50 57 68 69 71 75 73 77 79 82 84
45 52 48 48 44 44 45 40 58 52 65 69 55 56 53 40 43 45 38 39 35 36 40 43 44 43 44 42 46 48 54 50 51 57 60 65 70 71 77 77 74 85 77 87
48 52 54 50 49 46 45 43 45 63 60 66 64 59 49 45 44 47 42 39 39 38 40 44 45 48 43 42 44 47 54 61 69 69 68 68 75 81 90 87 82 78 72 86
49 54 57 52 48 50 47 47 39 63 63 67 63 56 47 47 51 50 45 41 39 34 30 29 32 43 47 44 44 52 59 61 65 68 69 86 90 90 97 94 84 77 77 71
53 52 61 58 51 54 50 50 45 40 54 66 74 58 52 50 52 50 48 42 41 37 33 30 26 26 37 42 49 60 60 69 70 80 88 75 81 71 83 95 91 73 70 61
55 55 48 54 54 53 57 49 47 44 57 53 60 50 56 58 52 52 48 46 43 39 37 33 26 25 27 35 42 52 66 84 70 67 71 57 62 68 75 73 72 63 60 64
58 56 51 50 54 55 58 55 50 46 46 58 49 53 46 51 52 49 49 47 47 45 45 39 35 31 27 27 31 42 50 47 50 60 61 64 64 65 61 57 56 63 72 75
66 61 58 55 55 58 62 54 55 51 49 54 56 60 51 43 44 47 41 47 45 45 47 43 43 37 38 37 31 29 33 40 43 44 48 49 50 49 54 60 69 76 72 69
81 65 69 60 60 60 63 51 57 55 50 46 51 43 43 42 48 50 48 46 46 44 41 41 40 40 41 39 32 26 32 36 39 45 44 46 50 59 65 67 66 65 58 52
95 80 71 77 69 75 48 46 50 53 53 45 48 47 45 43 44 46 47 44 40 43 42 35 30 32 36 41 48 48 49 46 49 47 49 56 63 65 62 58 57 52 49 43
95 92 82 77 75 55 48 44 46 51 49 46 47 47 42 39 44 42 45 44 41 40 39 35 31 32 36 41 44 44 47 50 52 52 59 63 60 52 54 52 50 47 40 37
92 95 80 87 78 68 52 47 44 50 49 44 47 44 42 35 46 44 43 40 41 42 37 30 24 29 34 38 41 42 46 51 56 60 59 57 53 51 47 49 47 41 37 39
94 98 95 96 92 71 60 50 51 56 50 41 44 37 37 42 45 49 48 51 45 38 24 22 26 29 32 34 36 42 47 51 50 47 44 43 45 46 49 45 42 40 41 45
77 88 91 96 94 91 69 60 57 56 48 48 45 41 40 44 48 49 44 46 40 29 25 24 27 31 34 35 35 39 44 43 41 38 40 44 48 49 47 43 41 43 48 51
72 64 68 72 77 71 67 68 70 68 60 62 55 56 52 48 49 50 51 47 40 32 30 29 29 32 37 39 40 39 39 39 43 45 48 50 51 48 47 44 46 51 55 54
54 56 55 53 63 65 70 71 72 74 75 66 65 63 57 57 58 66 55 48 40 38 36 35 34 35 40 41 42 43 44 45 47 50 52 52 51 52 50 51 55 58 61 64
47 48 43 43 60 70 76 71 65 69 74 70 67 66 60 54 59 69 63 55 49 49 44 39 39 42 45 46 47 48 50 52 53 54 54 54 55 56 57 61 64 69 70 69
41 33 41 42 43 58 79 66 61 67 68 73 70 64 63 68 63 61 63 63 62 64 60 53 49 48 50 52 54 56 57 59 59 59 59 60 63 64 66 71 73 71 69 67

GFSCGP_prec_cthk_060.txt.gz
RH
38 37 40 35 29 23 32 37 34 37 48 49 57 54 54 56 49 57 47 40 44 49 37 36 36 39 39 41 44 52 59 60 68 75 83 87 89 88 91 89 86 82 78 76
41 36 39 31 27 29 32 37 34 39 49 49 56 55 52 52 52 50 54 44 42 49 42 35 33 33 35 38 41 45 48 48 50 56 59 66 73 80 81 77 71 70 70 64
41 40 38 32 29 38 37 35 33 34 33 42 53 47 54 51 46 47 56 58 39 42 41 37 34 32 34 34 35 38 40 44 47 50 52 54 58 60 59 60 60 62 66 67
45 42 40 37 38 43 43 33 35 31 35 41 47 51 51 51 44 47 54 54 47 41 44 36 33 33 32 32 32 36 38 40 42 47 51 47 46 47 45 47 50 56 54 58
43 44 44 41 42 45 41 35 36 37 37 35 35 43 38 52 48 50 52 55 53 43 42 35 35 35 36 38 39 38 41 42 41 44 44 48 50 50 45 42 42 40 41 46
41 41 42 40 43 46 44 40 37 39 42 43 37 43 37 52 48 42 48 50 52 57 44 42 41 43 41 42 43 45 45 46 43 44 42 46 49 52 55 51 45 40 42 47
40 40 43 41 44 46 45 46 48 51 50 45 39 43 37 33 41 41 43 49 51 51 50 53 52 45 41 41 45 48 47 46 46 46 49 51 53 59 64 65 67 64 61 59
40 46 40 40 44 48 49 49 53 51 57 47 47 43 38 37 38 39 41 44 44 44 43 47 49 45 42 43 42 47 48 44 44 47 51 56 61 66 75 77 79 78 73 74
45 43 38 42 48 49 52 55 41 46 49 56 50 46 42 45 43 41 37 39 40 39 40 40 45 46 46 48 52 48 46 45 43 44 50 52 58 63 75 76 76 83 80 81
38 46 42 43 50 49 51 51 54 56 59 57 47 44 49 49 46 40 39 38 37 38 40 39 40 43 48 50 50 59 58 53 48 46 52 54 60 62 69 72 86 84 86 87
41 45 43 47 49 53 53 54 53 55 60 57 55 47 42 48 49 41 41 42 39 40 39 36 35 38 44 50 48 49 55 58 54 56 62 69 69 71 73 83 88 91 95 91
47 51 50 45 48 54 52 52 51 62 59 57 63 50 39 43 49 50 49 47 41 40 39 39 40 38 39 43 43 45 47 56 61 70 79 86 93 91 91 92 85 90 98 91
71 57 62 54 52 53 56 54 51 50 54 50 65 54 45 43 47 47 49 46 45 41 39 37 36 34 31 36 38 41 46 51 69 80 85 91 79 81 79 78 85 84 73 75
81 70 58 50 53 56 57 54 53 53 64 53 50 39 57 53 47 51 46 46 48 46 43 37 38 37 34 28 29 33 40 47 67 75 86 73 74 75 70 73 86 74 66 66
89 77 64 56 54 55 58 58 58 56 56 56 48 42 36 44 41 53 51 52 50 49 49 41 42 41 32 25 24 28 33 37 45 58 64 63 68 62 65 72 70 63 69 72
92 90 79 60 60 55 55 59 58 56 56 55 52 46 42 44 43 49 54 54 51 50 48 44 39 42 37 37 38 36 41 43 49 52 57 59 54 54 64 61 61 64 71 74
82 97 95 72 61 63 65 46 57 60 62 58 59 48 47 46 50 45 48 49 49 49 45 47 46 43 34 29 26 26 31 32 35 43 45 49 55 53 55 59 64 73 73 74
70 92 98 91 81 84 40 50 51 56 55 55 53 50 49 49 47 40 41 49 47 45 42 43 44 38 35 31 28 27 30 36 43 48 47 50 52 52 54 58 68 76 70 65
69 83 90 98 94 68 56 51 52 59 53 50 52 54 47 48 48 41 38 37 45 46 43 39 35 37 36 33 34 33 37 40 37 41 45 52 55 55 58 67 71 66 57 52
75 82 77 95 97 96 53 57 57 58 58 51 54 56 56 50 48 49 43 36 40 41 42 45 43 40 40 39 35 39 41 43 44 44 49 53 58 64 68 65 58 50 49 50
76 72 80 88 95 89 72 64 61 67 50 54 56 55 54 54 51 48 47 46 44 44 42 42 42 41 39 34 36 39 43 41 44 49 52 54 57 60 58 53 48 47 49 51
69 70 71 79 92 96 77 70 69 72 69 66 59 56 54 49 50 50 46 45 44 44 42 48 46 42 34 30 34 39 43 46 49 54 58 60 59 53 47 44 47 53 53 52
65 67 74 65 75 69 73 72 73 71 69 64 62 60 54 56 56 53 51 55 51 44 47 47 45 45 42 35 34 35 38 41 44 50 55 52 49 48 50 51 54 56 56 55
66 64 68 74 59 59 52 60 68 74 71 68 66 61 60 62 62 63 56 54 48 51 49 48 51 49 44 40 38 39 40 43 48 50 50 51 52 54 56 58 60 61 62 63
48 51 63 66 64 57 49 54 67 70 66 70 70 69 68 67 69 70 61 63 62 59 59 60 55 51 47 42 40 41 45 48 50 51 53 55 58 61 63 65 67 68 70 71
71 76 65 63 63 60 48 35 43 61 62 63 68 74 77 74 70 71 67 69 69 66 71 68 65 63 62 62 61 55 53 53 55 58 62 65 66 68 70 72 74 77 80 82

GFSCGP_prec_cthk_063.txt.gz
RH
41 40 34 42 42 35 28 31 35 34 36 39 41 44 49 49 51 51 50 42 34 33 31 31 32 34 35 38 45 54 70 82 90 91 98 98 95 95 95 86 86 87 84 83
43 39 36 43 41 35 32 33 36 35 37 39 44 48 46 50 48 45 48 52 40 35 32 29 26 28 34 35 39 44 50 60 64 72 82 88 95 93 93 89 90 89 85 83
42 41 38 43 42 36 34 31 36 38 34 33 40 44 49 43 51 47 46 53 52 39 34 32 27 27 30 32 34 37 41 44 47 54 63 76 80 82 82 84 83 81 80 81
44 43 40 44 40 36 37 33 40 40 37 36 36 45 39 46 49 45 46 52 49 40 35 34 31 28 26 27 30 34 38 44 44 46 48 52 57 64 73 76 77 77 75 71
44 44 43 46 44 41 39 45 45 43 40 37 35 41 34 41 44 46 47 47 48 42 39 31 31 28 32 31 32 33 36 37 38 43 49 50 51 50 53 55 61 64 68 72
43 45 47 46 46 44 42 49 50 47 45 46 36 39 37 43 34 37 42 49 48 50 43 34 36 38 37 36 34 39 41 41 39 37 40 47 52 54 53 51 49 50 54 60
41 43 44 45 45 44 48 51 62 60 54 46 36 40 33 32 31 28 36 45 48 49 49 43 44 39 38 38 39 40 41 41 42 42 42 43 47 51 53 58 57 52 47 46
43 45 41 42 44 44 46 52 64 61 60 46 40 45 33 32 34 29 38 43 48 48 48 48 41 42 41 38 35 37 40 42 40 41 44 45 47 53 59 66 64 63 59 54
43 41 36 38 43 49 49 55 51 56 59 61 48 40 31 34 36 35 39 43 44 44 43 44 44 46 48 48 45 44 42 39 40 39 41 47 49 51 57 68 71 71 74 77
39 45 41 42 45 47 48 54 60 62 66 64 50 45 34 30 35 38 38 39 40 39 38 40 42 45 48 50 51 52 51 56 53 49 45 47 57 62 66 67 75 80 83 89
40 42 40 44 49 48 52 55 58 59 65 60 55 49 34 28 35 40 38 34 39 49 40 38 39 40 44 49 51 54 53 56 60 65 67 59 58 66 72 72 74 77 91 90
56 48 48 40 42 48 51 57 58 65 66 68 60 44 37 34 36 41 38 36 38 42 46 39 36 38 41 44 48 49 53 55 59 67 71 78 81 82 87 87 86 85 91 90
63 66 61 46 48 49 50 53 58 60 62 60 66 51 40 38 35 36 40 38 39 48 49 44 42 38 37 36 36 37 43 48 60 68 72 81 89 94 89 84 90 80 87 88
72 79 80 75 55 54 53 52 55 59 62 58 51 49 42 39 41 40 37 36 34 34 43 47 44 43 38 37 38 32 31 36 44 53 57 68 78 74 73 78 73 81 88 81
77 81 83 81 72 64 61 58 57 57 54 59 52 51 44 42 39 37 48 44 43 41 37 45 47 45 42 42 37 35 29 34 41 45 47 48 59 64 66 63 65 69 81 75
78 76 86 82 79 72 65 56 49 54 58 55 56 52 50 45 43 41 43 42 45 49 46 46 48 44 42 43 47 37 32 34 34 40 43 46 53 57 58 60 63 67 68 70
69 81 85 74 79 86 67 52 63 58 58 59 61 57 52 48 48 44 46 46 45 45 47 46 48 47 45 48 45 42 33 30 27 29 33 43 48 52 58 65 67 65 64 68
70 79 81 82 74 91 70 61 59 58 53 56 56 60 56 51 49 46 46 47 49 46 47 45 48 45 45 45 44 38 34 34 36 33 38 48 56 57 63 66 62 60 61 63
55 63 68 71 74 63 57 67 70 71 56 55 52 56 57 55 51 44 44 42 40 37 37 41 43 45 43 41 43 36 39 39 39 43 48 48 56 61 62 62 63 66 72 80
59 64 70 74 75 71 41 54 55 74 62 58 57 55 58 58 52 47 44 44 45 41 39 40 44 42 41 41 41 39 42 45 43 47 51 49 57 57 60 66 70 77 78 81
73 76 77 77 77 58 47 58 59 89 65 70 64 58 54 53 50 51 48 44 45 44 41 42 42 45 45 41 42 43 44 43 39 40 44 49 50 56 67 72 70 72 74 76
68 76 73 75 72 62 48 61 75 91 82 76 71 63 63 57 55 52 52 52 51 49 46 45 46 48 44 41 42 49 50 44 41 44 45 49 52 58 66 69 71 72 67 60
61 50 61 62 50 41 46 52 63 75 86 81 78 69 63 61 57 56 52 52 53 53 52 50 49 48 46 44 47 53 57 56 53 52 53 53 53 57 62 67 65 61 59 61
56 58 62 60 42 48 49 53 58 72 71 83 79 73 68 67 63 62 59 58 58 60 61 56 57 59 59 61 60 60 61 58 55 56 58 59 59 64 66 63 62 62 62 64
56 63 52 47 60 55 51 54 55 63 63 70 80 77 75 72 68 66 66 67 65 64 68 69 67 63 59 62 62 63 60 58 59 61 62 62 63 64 65 66 67 68 69 72
80 74 71 62 64 62 59 60 60 65 47 69 71 69 62 71 74 75 72 71 73 71 72 78 74 69 76 76 74 72 71 70 71 72 69 70 71 72 74 74 75 77 82 85

GFSCGP_prec_cthk_066.txt.gz
RH
43 46 43 39 41 41 40 35 34 28 32 37 39 41 34 38 43 43 46 44 41 35 36 37 34 36 34 33 35 49 69 91 90 92 93 96 93 93 93 94 92 91 88 88
40 42 41 43 43 41 41 40 37 31 31 38 37 37 32 37 39 40 42 46 47 44 37 36 32 32 31 34 33 38 48 66 80 89 94 91 94 97 96 93 92 92 89 89
39 41 41 43 47 45 44 41 39 32 38 40 40 37 32 29 35 40 39 39 46 48 41 35 34 28 27 30 32 36 43 49 55 66 82 93 96 96 95 91 93 91 89 90
43 39 42 42 43 45 44 41 37 34 41 46 41 43 32 29 31 39 39 38 41 46 44 34 32 30 25 25 29 34 40 46 49 50 55 65 75 83 87 91 95 91 90 89
46 44 44 45 43 46 44 44 37 43 50 49 43 44 32 34 30 31 35 36 41 42 42 35 29 30 27 26 28 29 34 39 42 48 52 52 56 64 77 85 82 79 82 84
45 47 47 45 46 48 47 46 45 50 54 60 47 44 36 29 30 28 28 31 38 38 43 39 30 31 33 31 33 35 38 40 42 40 43 50 56 57 58 61 64 69 73 74
38 45 46 48 50 50 51 51 59 62 64 61 48 50 35 26 26 27 29 32 35 38 39 42 35 31 36 36 33 34 38 40 42 40 42 45 52 56 57 57 52 53 59 64
41 42 44 47 49 52 53 52 64 66 65 59 55 54 39 27 27 29 31 32 33 37 36 36 40 41 33 34 32 33 37 40 40 42 44 44 48 54 58 61 66 62 55 54
44 41 34 40 45 50 55 57 52 58 63 68 56 52 43 32 28 31 32 31 35 36 38 35 36 39 42 38 38 38 38 38 39 42 43 48 52 54 55 61 67 68 67 64
33 40 38 44 47 50 52 53 59 65 68 69 59 57 50 37 27 31 34 35 36 38 38 37 34 37 40 43 45 45 46 50 57 51 50 48 50 54 56 57 58 63 65 67
35 39 40 42 52 52 53 56 57 60 66 68 63 53 46 42 31 29 35 36 39 38 35 33 34 36 40 44 47 50 52 52 56 65 66 65 60 57 59 60 62 65 68 73
51 52 49 43 44 51 54 58 60 67 62 69 64 50 45 44 38 36 37 38 40 36 38 40 36 36 38 39 42 42 46 48 53 57 69 71 72 72 69 65 68 72 75 76
61 67 70 51 49 50 53 52 52 55 59 57 63 55 47 48 46 40 38 42 42 40 39 41 42 35 35 38 40 41 38 37 43 48 54 66 68 71 71 76 71 80 78 81
66 69 77 80 77 73 71 62 58 53 56 56 49 52 48 47 48 42 40 42 44 45 45 43 43 40 37 34 38 39 41 34 34 37 39 44 49 56 58 73 67 67 74 80
66 70 74 77 75 69 70 69 65 63 55 55 47 50 53 50 50 47 42 39 45 50 47 43 41 42 42 40 39 40 42 39 32 34 37 42 48 50 55 65 70 70 71 71
62 68 75 76 69 65 60 61 64 62 60 53 54 50 52 50 50 52 47 41 37 41 48 45 45 45 47 43 40 43 44 41 35 34 31 32 39 44 49 57 64 74 75 78
72 75 85 75 73 67 62 63 66 62 64 62 57 51 53 51 51 52 51 47 45 40 42 44 46 52 49 47 45 45 47 43 40 39 41 40 36 36 47 56 62 67 75 82
50 67 79 81 73 78 42 54 49 60 56 58 53 52 53 55 53 50 53 54 50 47 47 48 47 48 49 44 43 46 50 48 45 41 36 40 38 40 45 56 64 70 78 79
49 67 75 76 71 54 38 40 46 47 39 53 55 57 53 53 53 45 53 55 53 49 50 47 46 46 49 44 40 44 47 49 49 48 40 42 42 44 51 54 58 62 66 71
62 71 71 73 77 64 30 34 41 43 49 52 67 66 63 62 53 40 47 54 56 51 48 45 44 42 45 47 46 41 43 45 47 47 49 50 48 50 49 53 52 56 62 68
73 75 75 77 79 59 43 41 45 68 55 55 58 67 74 67 62 54 50 52 56 55 51 48 45 43 45 50 50 52 50 47 49 53 51 57 59 49 47 49 53 55 58 65
72 78 75 81 84 68 42 47 48 54 56 62 62 62 73 71 62 60 58 54 54 58 56 51 50 49 46 49 53 58 58 51 50 55 63 70 65 57 54 52 56 58 62 67
68 63 66 65 52 38 41 40 42 46 45 53 65 66 77 74 72 66 63 62 59 59 59 56 58 55 52 53 55 57 57 62 63 63 69 70 67 60 54 59 61 63 66 67
55 60 61 62 40 44 46 40 52 51 50 59 66 66 70 81 77 73 67 65 60 60 62 61 61 59 57 59 61 65 68 71 74 74 72 68 61 64 63 62 64 67 69 75
56 56 57 53 46 48 39 42 55 57 56 64 68 69 70 82 80 80 76 74 70 67 68 70 68 71 71 68 70 74 76 75 76 69 68 70 69 71 74 75 79 81 85 85
62 73 68 52 61 63 56 59 57 60 62 73 75 73 78 79 81 79 72 77 80 74 74 79 75 82 80 77 83 84 82 80 78 78 79 77 80 82 86 90 89 90 91 91

GFSCGP_prec_cthk_069.txt.gz
RH
50 48 47 43 45 40 38 37 36 35 32 32 32 35 32 30 33 38 40 45 48 43 38 34 33 33 32 33 38 41 58 85 93 94 96 93 89 91 91 94 86 86 85 84
52 47 44 45 46 44 40 37 36 37 36 34 30 34 34 32 30 35 39 39 46 49 48 40 33 29 28 31 34 40 45 65 80 89 89 94 96 92 94 96 98 95 90 86
46 45 46 44 47 47 44 41 39 40 37 35 36 36 35 31 28 30 36 37 42 44 49 45 33 31 28 28 32 34 40 47 58 65 81 89 93 94 97 97 98 96 92 90
48 42 44 42 43 45 46 44 42 42 40 33 38 38 36 30 24 25 30 36 38 43 49 46 35 30 27 24 28 33 36 42 47 51 59 74 85 92 92 95 97 99 96 92
52 50 46 46 44 46 45 45 47 43 43 38 35 41 38 35 24 22 22 31 35 37 42 42 37 29 28 24 26 29 34 36 40 46 52 56 65 76 89 96 98 96 95 93
45 51 50 44 44 44 48 47 47 48 48 47 41 48 38 35 27 24 24 25 27 35 39 40 38 31 28 29 29 33 37 38 40 39 43 48 54 59 69 80 85 87 89 93
44 38 51 50 51 51 49 51 54 60 58 49 46 51 39 38 32 24 25 25 27 31 36 38 41 31 29 32 31 32 35 39 40 40 41 45 50 53 55 61 65 69 73 76
59 51 39 48 50 51 52 53 57 58 60 52 53 54 40 39 34 25 26 28 29 31 34 37 38 37 31 31 34 32 34 38 41 42 41 43 47 51 54 57 61 58 63 68
53 51 41 34 43 51 57 59 54 58 62 63 55 50 43 39 39 35 29 29 29 30 31 37 38 37 36 30 32 35 35 36 39 41 41 43 45 48 53 55 60 66 65 59
40 49 50 46 40 47 53 55 62 65 63 61 55 55 47 40 41 38 28 30 30 30 34 36 38 37 36 33 35 36 41 42 45 49 49 47 46 49 51 54 57 61 67 64
34 35 46 54 51 46 51 55 59 57 60 58 58 52 47 44 42 43 33 32 35 35 35 35 37 40 38 36 36 38 42 44 46 54 63 66 62 57 56 59 62 64 68 73
54 47 39 36 43 52 55 59 59 63 59 64 62 55 49 47 47 46 41 31 32 36 38 39 38 37 37 38 38 41 44 45 46 48 53 62 67 67 67 65 63 64 64 68
61 66 63 55 48 47 56 59 63 60 60 57 68 59 54 51 51 53 50 41 34 38 41 41 41 44 42 42 40 38 38 39 44 45 44 48 58 62 64 65 65 60 70 66
61 65 77 73 69 69 66 65 66 65 68 59 56 54 50 49 49 52 53 49 41 37 39 42 40 45 46 41 40 42 41 38 38 37 36 36 39 46 53 58 58 55 68 68
60 64 62 61 64 64 61 61 58 58 60 64 60 56 54 51 49 50 52 52 48 40 40 41 39 43 44 46 44 44 43 42 41 34 31 29 31 35 44 52 55 58 61 67
59 64 68 70 63 62 58 56 56 55 59 57 58 56 55 53 49 49 51 53 55 51 43 42 43 40 40 42 43 47 48 45 45 39 34 33 33 31 32 38 42 48 53 61
56 65 69 65 70 71 61 54 50 51 51 48 53 53 52 51 49 45 49 52 55 55 50 42 39 40 42 41 45 48 50 48 48 48 44 39 36 33 34 34 35 39 48 58
47 59 71 72 74 66 36 41 51 52 43 41 45 44 51 50 47 47 51 54 56 57 56 51 47 45 41 43 45 48 50 50 51 50 49 47 48 44 36 34 36 41 49 56
51 53 60 66 71 49 38 36 41 45 43 45 50 52 50 50 53 51 51 50 53 56 58 56 51 50 50 48 47 48 50 48 50 50 49 48 52 50 44 40 39 43 54 59
61 61 62 80 72 60 37 37 39 40 40 43 48 54 57 53 56 59 55 49 49 54 54 55 54 52 50 46 46 46 45 44 43 44 47 49 54 58 53 50 50 50 51 55
74 75 66 79 74 50 42 45 47 48 42 43 43 49 57 60 65 63 65 58 53 52 53 55 56 53 52 49 49 46 49 49 48 53 57 57 59 61 61 65 66 58 53 54
68 77 76 74 73 61 46 52 52 40 34 37 37 40 51 60 66 69 71 67 59 54 56 59 59 57 55 52 50 52 57 57 57 61 65 68 73 78 76 77 80 75 59 54
67 63 64 63 54 48 50 57 47 37 37 40 42 42 50 57 63 69 74 74 70 60 58 64 63 64 61 60 58 59 61 66 65 68 72 77 76 74 82 85 80 71 64 61
60 56 57 53 47 43 39 47 51 50 46 44 44 47 55 56 61 65 71 73 79 74 68 69 71 70 64 65 64 66 69 73 72 72 73 75 80 82 82 79 73 71 71 78
56 56 54 49 46 46 45 56 54 49 46 48 50 51 56 63 70 73 77 78 87 83 79 74 77 78 72 73 73 73 70 72 76 77 80 82 82 78 76 79 80 82 82 85
62 57 56 51 59 62 59 58 58 62 59 53 55 59 61 75 84 85 78 89 90 88 86 85 84 86 88 87 81 82 81 82 84 84 83 82 84 84 83 87 89 89 91 95

GFSCGP_prec_cthk_072.txt.gz
RH
56 53 50 44 45 46 42 37 36 34 33 33 31 31 31 33 30 31 34 37 39 44 46 40 34 29 26 29 31 34 43 66 88 94 96 96 97 94 89 91 89 84 83 86
61 54 50 48 50 50 46 40 37 38 38 35 32 28 28 32 32 30 31 36 38 41 46 47 40 33 29 27 29 32 39 56 77 87 95 96 97 95 97 94 87 83 84 78
53 53 53 49 50 49 46 43 42 41 40 35 33 29 27 31 31 27 28 32 36 38 45 47 48 34 31 24 27 30 34 47 59 71 82 88 94 94 96 96 94 89 87 80
56 51 53 51 48 49 46 44 44 45 45 38 36 29 28 34 33 29 25 27 34 38 40 45 49 37 33 26 23 30 33 38 45 51 62 69 84 93 96 98 97 98 93 89
60 52 49 48 49 47 44 44 46 48 46 42 37 34 28 31 35 30 23 25 32 36 38 44 46 40 33 28 21 25 29 35 37 42 48 59 66 85 92 92 93 95 94 92
62 58 57 47 48 48 50 49 48 49 46 47 38 36 32 32 36 30 25 25 27 32 36 39 44 43 33 30 26 26 33 37 37 40 42 49 53 63 72 85 90 97 96 93
57 61 58 56 50 49 49 49 53 56 56 49 38 41 34 36 37 35 28 26 29 28 31 35 40 44 33 29 29 30 35 37 38 40 41 42 47 54 57 64 77 86 92 92
65 68 62 53 54 54 50 50 50 56 56 51 44 45 39 38 39 37 31 25 29 30 31 34 38 42 40 31 30 28 33 35 38 41 42 43 47 49 52 54 60 63 68 71
48 57 58 51 49 55 56 53 52 54 57 58 50 48 42 39 40 41 39 33 31 32 32 35 38 42 43 39 34 30 34 35 36 37 38 40 43 47 51 51 54 57 59 60
50 48 54 56 59 52 55 58 61 61 65 62 49 50 47 40 41 41 42 35 33 34 34 35 37 41 44 44 38 34 36 36 37 36 38 42 44 43 46 49 51 54 56 58
49 54 58 56 59 53 54 57 58 59 58 59 58 53 52 42 43 46 46 44 36 35 37 38 39 42 44 45 41 37 38 39 38 37 43 45 44 48 50 52 56 60 63 67
58 51 59 60 57 57 54 54 55 60 61 60 60 56 55 47 46 47 47 45 40 36 41 43 43 41 43 45 44 39 39 42 44 45 43 47 51 48 48 57 58 58 60 67
65 63 51 44 52 52 58 62 57 59 60 63 70 63 55 51 48 49 49 51 47 38 39 44 45 45 46 47 46 43 42 44 49 50 50 48 49 50 47 48 53 59 62 64
69 65 70 65 60 56 59 57 59 59 61 59 59 59 56 49 49 48 50 53 50 46 42 44 45 46 48 50 48 48 50 46 45 48 48 47 46 46 47 48 47 48 53 52
62 67 65 63 59 58 59 55 53 56 58 61 58 59 56 52 47 47 46 48 50 54 48 45 47 48 50 52 55 51 48 45 46 47 42 37 40 41 43 46 47 49 51 51
53 58 63 59 59 52 50 52 50 48 49 54 59 53 54 52 48 45 45 47 48 51 53 49 46 52 51 52 53 55 53 49 49 45 43 43 41 41 42 44 48 53 53 56
54 55 57 60 69 66 60 51 47 48 49 56 58 50 48 44 39 41 43 44 47 46 48 54 51 48 53 50 49 50 49 53 51 48 46 45 46 45 44 43 42 40 43 48
51 56 64 61 58 55 38 38 46 54 53 54 46 48 47 44 43 40 42 45 45 47 48 50 54 50 47 45 46 47 50 50 51 54 53 49 48 51 51 51 51 52 41 42
53 54 62 56 49 36 30 32 34 33 37 44 43 46 54 50 45 48 49 48 47 44 44 48 52 55 52 48 43 43 46 47 52 53 56 56 57 54 55 54 54 54 53 45
63 59 59 60 50 51 40 39 37 35 42 42 46 50 51 52 55 54 52 55 54 50 45 44 49 53 56 54 50 50 50 52 55 57 58 59 58 60 59 54 52 55 58 57
78 72 67 61 64 55 48 42 44 49 61 45 43 44 45 48 53 52 49 53 59 61 56 49 49 53 57 58 54 53 55 52 57 56 59 57 56 59 60 61 61 59 64 67
83 74 73 68 63 69 49 50 53 62 48 39 36 39 40 40 42 51 52 52 58 61 65 63 57 52 54 57 63 59 57 55 56 56 59 59 59 61 64 69 74 84 82 83
83 65 67 58 61 60 62 60 58 55 47 43 40 38 41 41 42 49 52 53 56 64 70 72 69 67 65 68 69 64 60 58 60 63 63 66 68 71 74 78 83 80 88 85
63 62 62 59 54 55 53 51 51 47 46 44 44 41 42 42 46 49 52 53 58 63 71 78 79 77 74 72 70 72 72 71 71 72 72 77 79 81 86 89 87 83 82 88
65 61 56 53 53 54 48 50 50 46 48 46 48 48 45 46 49 53 54 57 66 71 79 83 89 86 87 85 81 78 78 78 81 82 81 81 83 83 84 82 85 87 87 89
66 62 62 58 60 58 51 51 54 55 56 52 53 52 50 50 51 58 61 64 75 83 91 95 90 94 96 93 87 84 81 81 83 82 81 81 83 83 83 85 85 87 86 86

GFSCGP_prec_cthk_078.txt.gz
RH
43 48 38 48 52 51 50 50 48 46 40 39 39 33 31 36 39 39 39 41 46 49 41 38 37 35 34 33 27 26 24 30 46 57 72 81 86 88 91 92 87 87 87 86
44 41 46 56 49 50 49 49 50 47 48 43 39 34 31 33 33 35 39 42 42 48 47 38 37 37 35 34 27 26 26 31 43 56 69 83 88 89 91 90 89 86 87 86
51 45 57 60 59 53 52 54 52 50 50 47 42 37 33 31 31 31 32 35 37 45 43 42 36 37 36 35 29 26 26 30 40 51 63 77 88 92 91 90 88 83 79 80
50 55 55 62 72 72 65 60 59 56 56 58 47 40 34 33 32 33 30 29 31 33 40 42 37 36 37 38 31 25 23 29 37 44 51 58 65 74 82 85 87 83 81 79
46 51 62 68 77 77 74 67 70 69 58 56 47 45 35 33 33 34 34 36 33 34 33 39 37 36 39 40 32 24 23 28 35 41 46 49 53 57 62 72 77 78 77 79
48 58 63 73 85 78 76 72 75 68 61 58 48 49 39 37 35 36 35 37 37 36 32 35 38 37 39 42 35 24 22 27 33 39 41 44 46 48 54 61 71 79 81 78
43 51 62 73 87 82 75 71 86 81 66 58 46 46 38 36 37 39 43 37 35 35 35 36 39 38 38 41 36 24 24 26 29 35 39 42 44 44 47 52 61 66 69 67
40 49 49 59 74 77 73 68 88 78 71 61 48 46 39 38 39 39 41 39 38 40 41 40 38 37 38 39 38 30 24 24 28 31 35 39 43 45 46 47 52 57 63 65
44 47 51 63 66 72 78 73 68 83 80 92 62 45 45 40 37 39 42 42 38 42 41 41 39 38 36 38 40 36 29 27 28 29 33 35 41 44 45 46 49 51 56 60
58 55 56 60 69 73 79 72 74 81 83 88 68 62 50 47 43 43 46 46 44 47 50 51 46 39 38 39 43 43 35 31 30 28 29 33 35 39 45 50 53 53 53 58
62 52 54 58 67 74 75 76 83 83 79 81 71 64 58 58 52 50 50 51 52 52 53 51 48 46 41 43 44 45 44 38 35 31 31 32 34 36 39 43 48 50 58 59
67 51 54 61 69 69 73 69 71 86 88 74 80 70 58 60 56 52 52 53 51 53 55 55 50 49 48 47 46 45 49 47 42 38 34 35 37 36 36 41 42 45 47 52
51 51 62 64 76 67 70 75 79 71 81 96 98 68 67 68 63 58 55 51 52 53 54 57 57 57 53 53 53 52 52 51 49 46 41 38 38 40 42 44 46 47 49 49
56 64 63 83 94 87 81 73 74 74 76 80 89 81 75 77 73 61 58 56 55 55 55 58 58 61 65 55 54 55 55 55 55 52 46 43 42 43 45 48 50 51 53 54
61 81 75 60 81 81 86 85 81 90 84 82 74 75 74 71 67 64 61 59 57 58 57 57 58 57 60 60 62 58 57 58 58 58 56 50 52 55 53 52 53 54 54 53
47 71 74 71 67 78 72 69 67 66 73 68 70 77 67 71 64 63 59 53 59 61 61 61 61 59 60 63 60 64 61 58 58 58 58 60 58 59 57 55 56 56 51 48
58 52 63 68 67 71 66 56 54 54 57 53 54 51 59 59 60 61 51 49 50 49 49 52 55 57 56 59 64 60 59 65 63 58 57 61 62 61 60 58 60 58 54 54
54 52 56 70 70 81 57 55 54 50 50 53 58 60 68 61 66 59 57 60 53 43 42 43 44 47 50 52 56 60 58 58 64 70 67 63 64 62 61 61 59 58 58 58
47 46 57 63 59 57 56 52 44 50 54 56 57 64 68 59 55 60 57 54 50 47 48 47 47 44 44 47 51 53 57 60 60 60 66 70 70 71 71 67 64 64 65 63
49 48 56 61 60 54 37 36 48 41 41 59 63 62 64 62 63 69 65 58 56 53 50 47 46 42 41 45 50 54 57 59 59 58 57 60 67 66 69 70 71 70 69 69
66 65 65 63 71 53 39 54 50 55 65 63 64 63 55 50 50 45 49 48 54 46 41 37 38 38 41 43 47 55 56 58 63 65 64 63 67 71 70 68 73 76 77 72
77 83 78 72 71 64 58 58 80 77 74 76 76 71 60 56 45 39 40 49 51 45 38 35 37 36 38 43 46 47 52 63 62 66 66 68 70 74 77 75 76 80 79 81
93 75 76 67 58 61 61 67 85 75 86 84 73 69 69 60 45 44 39 45 42 39 40 40 40 38 38 37 39 44 52 57 68 71 67 74 78 81 80 81 80 81 80 86
84 84 77 76 66 69 85 83 72 82 78 72 67 69 67 62 53 47 45 44 44 42 41 40 40 40 40 40 42 43 46 55 62 71 80 81 81 83 87 88 89 89 92 91
80 83 86 93 89 91 88 92 89 73 65 64 59 56 51 49 48 48 47 46 46 45 45 44 44 44 43 45 45 44 49 51 59 69 78 90 91 94 93 94 92 94 92 93
80 91 95 95 93 95 94 95 88 80 68 56 51 48 47 48 52 55 54 55 53 51 49 48 49 49 49 50 53 54 53 55 61 76 85 92 97 98 97 96 97 98 97 96

GFSCGP_prec_cthk_081.txt.gz
RH
23 27 34 41 52 54 54 55 50 44 42 49 45 44 36 34 36 38 36 36 35 35 39 40 37 32 30 34 33 26 21 27 34 40 60 70 79 87 86 88 93 96 96 96
23 22 28 37 43 46 49 52 48 44 45 51 50 46 40 38 36 37 35 36 35 36 39 42 38 37 30 32 32 28 22 23 30 42 59 72 81 86 84 87 88 90 90 90
27 27 30 37 41 47 49 55 58 55 48 53 58 57 48 38 33 32 33 34 36 36 39 43 40 39 31 30 32 31 23 22 28 39 52 67 79 87 89 89 88 87 84 85
34 33 40 43 46 48 47 58 64 79 84 78 73 66 49 40 37 34 34 30 31 32 37 41 39 37 35 31 33 32 22 22 28 36 44 56 62 69 75 82 82 82 83 81
33 37 43 47 43 51 52 60 74 84 92 84 72 74 48 41 38 35 32 31 30 31 34 38 36 33 36 32 33 33 22 22 29 34 40 46 49 55 59 64 66 70 78 82
26 31 39 45 51 59 66 78 77 86 96 98 72 74 50 39 35 33 36 32 30 30 34 34 34 34 35 33 34 35 22 24 29 34 37 39 43 47 51 55 60 67 79 83
24 34 41 50 64 70 86 96 98 99 98 89 62 62 49 38 38 38 39 35 31 34 35 37 39 34 33 32 35 34 23 23 28 31 35 38 41 44 46 49 54 61 66 72
33 36 35 52 62 68 84 96 95 90 92 79 56 51 40 38 41 43 41 37 35 38 36 39 40 37 34 31 32 36 28 22 23 30 32 37 39 41 43 48 51 53 57 59
42 37 35 46 56 68 77 87 84 93 97 95 77 52 42 46 43 45 44 40 40 42 40 43 43 41 35 31 32 34 37 28 24 25 32 35 37 39 42 45 48 50 53 53
50 56 43 48 57 68 72 77 91 96 95 96 72 73 62 49 47 46 45 45 44 46 46 48 46 48 38 31 32 36 38 35 28 27 28 33 34 37 41 44 48 54 57 59
68 62 53 50 61 70 79 82 96 97 91 98 97 87 87 74 55 52 52 52 48 49 52 54 51 50 49 37 36 40 42 43 38 33 32 31 35 36 37 40 44 48 51 58
66 67 58 43 47 63 72 81 89 98 96 84 95 94 91 81 72 59 55 56 54 55 56 55 52 53 55 49 43 45 46 44 46 45 40 36 35 36 38 38 40 44 47 49
65 70 66 46 61 75 82 82 86 95 91 97 99 93 92 90 76 69 65 60 61 63 59 57 55 56 66 59 50 48 47 49 51 48 49 44 38 39 38 40 43 44 46 49
36 52 63 69 90 94 98 88 88 94 98 83 92 84 83 91 85 77 72 70 66 65 62 61 58 56 60 66 73 67 54 55 56 55 53 51 45 43 44 44 45 47 48 51
41 44 44 69 71 66 94 85 96 96 96 97 83 90 83 90 89 85 76 72 69 69 66 63 62 62 63 63 68 79 75 67 61 64 59 55 55 49 50 52 52 53 52 53
52 49 45 61 73 64 68 77 82 89 96 93 90 89 87 81 82 85 80 74 69 70 69 67 65 63 64 69 66 65 68 79 80 68 63 62 60 60 59 58 59 62 59 56
68 62 55 59 69 70 73 67 68 74 78 83 81 72 74 78 79 77 76 72 69 67 63 62 63 58 58 64 66 63 65 67 70 74 74 72 68 64 61 65 68 68 66 62
76 72 65 61 67 72 63 62 61 65 62 63 60 66 74 78 76 75 72 70 64 59 52 49 49 45 44 47 52 56 60 60 65 67 68 75 77 75 69 67 65 64 67 67
61 62 70 65 62 56 53 58 60 57 56 56 56 65 67 73 78 76 76 72 65 59 56 49 45 42 36 35 36 38 47 53 55 60 64 63 66 76 79 77 72 69 71 71
48 53 63 58 67 70 48 60 59 57 64 57 56 69 66 74 80 82 78 69 60 55 52 50 43 36 36 35 37 37 36 40 47 55 59 59 57 61 66 75 80 77 80 75
66 57 56 58 67 68 45 48 52 58 73 60 56 62 63 70 76 84 76 66 63 61 54 42 36 32 33 35 36 36 36 37 40 43 50 58 61 59 59 63 71 78 79 79
86 89 81 76 76 70 56 54 58 70 65 58 68 66 68 68 60 60 57 48 41 40 37 33 29 28 30 31 32 32 32 33 33 36 39 43 52 59 62 60 63 70 78 83
98 79 82 75 69 70 66 70 71 74 87 85 80 78 76 76 74 64 56 47 44 39 35 34 34 34 34 33 32 33 34 35 34 34 34 33 43 53 63 65 66 71 78 84
96 92 96 84 89 80 85 97 83 89 92 88 89 83 79 74 71 67 59 50 45 40 38 39 38 37 36 35 34 35 36 37 37 36 37 40 37 43 56 69 73 76 80 86
93 94 95 96 96 93 96 95 96 87 78 77 76 72 71 64 58 56 50 47 45 43 42 42 41 40 39 39 41 41 41 41 41 41 41 44 45 47 47 57 71 82 87 90
89 94 99 96 96 96 98 98 96 90 86 77 66 64 61 60 58 53 51 49 47 48 48 48 46 46 44 43 44 47 48 49 49 50 51 50 51 55 57 58 62 74 83 89

GFSCGP_prec_cthk_084.txt.gz
RH
24 29 31 36 43 46 47 46 45 44 47 47 46 35 31 33 35 34 30 28 31 31 35 38 41 42 35 31 33 32 30 28 29 28 38 58 71 85 86 93 96 97 95 97
23 24 25 30 35 41 44 46 42 38 46 53 54 45 35 37 38 36 33 32 32 35 37 38 40 41 38 34 33 32 30 25 27 34 39 59 70 80 84 85 91 98 96 96
22 22 21 24 28 31 34 38 39 42 50 56 61 50 43 36 39 36 32 32 33 32 35 37 39 38 40 38 33 33 31 23 26 31 39 61 74 82 83 86 89 93 95 97
32 25 29 31 36 37 38 36 40 44 58 64 76 75 51 49 43 37 31 33 33 32 34 35 38 36 38 38 36 34 33 21 22 30 39 49 61 70 76 80 88 89 92 92
36 41 40 43 43 42 43 43 48 51 59 65 66 88 45 55 49 38 33 34 33 32 31 33 37 36 39 38 40 36 33 21 20 30 37 43 48 55 61 67 71 74 82 88
26 34 38 39 42 42 48 54 58 59 68 74 50 79 47 55 51 40 34 34 35 35 32 31 37 38 38 39 41 37 34 22 21 30 34 39 43 45 51 56 60 62 69 81
21 24 30 36 46 54 58 67 78 87 85 63 51 71 49 48 48 42 40 37 34 33 34 35 38 39 38 36 38 37 34 22 20 28 33 37 42 45 47 50 52 57 65 77
31 28 31 36 43 60 69 74 86 94 89 76 64 60 56 46 49 49 45 40 34 33 33 34 38 40 38 37 38 38 34 25 19 23 30 35 40 43 45 46 49 51 57 68
39 38 29 35 43 50 71 84 85 98 97 98 80 61 49 60 59 55 49 45 37 34 37 37 41 43 43 40 35 37 37 33 22 20 27 32 35 39 41 46 48 50 53 57
47 50 45 42 45 52 64 79 99 97 96 97 78 79 88 72 72 63 56 52 43 41 42 44 42 44 46 43 37 39 41 39 35 24 23 29 34 37 41 45 49 52 55 57
58 60 60 51 44 56 66 85 95 98 97 95 94 94 91 81 87 75 65 57 52 49 48 48 46 48 51 50 43 42 44 44 43 36 29 27 32 36 38 41 45 47 52 56
59 66 68 57 49 49 60 73 85 99 97 91 91 85 94 94 93 80 69 70 63 55 51 51 56 57 60 61 52 46 47 48 50 50 45 36 31 34 37 39 40 44 48 50
47 67 72 66 55 58 78 82 86 91 92 95 97 83 91 95 94 84 79 75 71 64 61 60 61 62 65 67 66 62 59 61 58 54 55 54 47 36 36 39 42 43 47 52
44 48 60 74 70 74 89 88 92 98 97 86 90 82 90 95 95 93 88 83 77 71 68 67 68 67 69 71 74 75 70 68 66 60 58 59 58 56 46 42 43 45 48 49
47 48 46 46 47 48 67 75 92 95 97 98 88 92 91 90 95 92 94 88 80 78 76 70 68 70 71 70 69 70 73 73 74 72 67 64 67 64 64 56 51 49 48 49
58 56 50 45 37 43 58 67 76 97 93 96 90 97 90 95 95 95 93 89 84 82 80 79 78 70 67 70 69 66 65 72 77 82 83 80 78 74 71 68 60 59 58 58
57 65 64 56 45 47 61 72 72 85 86 93 91 85 91 95 92 93 93 91 90 85 81 75 73 71 68 65 62 62 62 65 67 68 71 78 82 80 76 76 75 72 68 68
56 64 72 79 59 56 46 62 68 79 79 80 78 84 84 89 91 88 90 89 86 82 81 77 70 63 60 59 57 57 58 60 64 66 68 70 71 78 82 82 78 74 76 74
46 56 67 71 68 50 37 60 68 68 77 72 69 79 86 78 78 85 89 86 83 80 77 71 63 57 48 45 44 44 44 44 46 51 57 61 60 65 71 77 78 80 83 80
56 60 66 69 71 69 39 66 67 70 83 74 73 76 72 69 78 88 86 82 80 80 75 70 64 58 49 38 36 37 36 35 32 33 36 41 49 55 57 61 65 66 71 74
72 82 68 70 72 61 34 59 70 85 87 81 79 80 75 68 68 83 89 88 84 72 61 55 47 43 39 38 32 30 33 33 32 32 33 34 34 35 38 46 52 56 59 64
80 92 93 74 69 63 35 56 66 80 85 80 78 77 75 68 70 72 82 78 69 65 60 51 43 38 35 31 28 26 27 28 29 29 29 30 29 27 27 29 36 43 49 54
91 95 94 85 74 71 68 65 70 79 75 79 84 85 82 75 72 68 64 65 66 65 55 44 40 35 33 31 29 28 29 32 33 31 30 30 29 29 28 26 25 30 38 49
97 98 94 87 90 86 89 92 82 83 83 83 93 90 86 85 84 87 81 71 71 65 54 43 40 35 34 33 31 31 33 35 35 34 34 34 33 31 30 30 31 30 33 39
98 97 98 99 98 97 95 93 91 96 93 81 84 82 82 78 75 72 70 68 63 53 46 40 37 37 37 36 36 37 36 36 36 37 37 37 38 37 37 35 36 37 39 42
97 98 97 98 98 96 99 97 96 98 95 87 87 84 77 71 69 65 64 61 55 50 46 42 41 41 40 39 39 40 39 38 39 41 44 44 45 47 46 45 47 48 49 53

GFSCGP_prec_cthk_087.txt.gz
RH
25 30 33 34 37 41 45 47 48 45 44 46 40 34 32 30 30 28 28 29 27 25 27 32 35 37 41 44 36 31 31 31 24 21 26 35 55 67 83 87 96 97 96 96
26 28 27 31 35 41 47 50 51 47 46 50 45 33 31 32 29 30 32 32 31 29 28 33 36 38 40 43 45 33 31 30 25 21 24 36 57 73 82 83 91 99 97 98
25 23 24 27 29 34 37 38 42 46 52 53 50 35 29 26 30 32 33 35 33 30 29 33 36 39 40 42 45 36 32 31 27 21 25 36 59 73 80 82 86 91 97 97
29 20 23 27 25 27 33 35 39 45 51 53 52 48 30 26 30 34 35 37 35 33 31 34 36 37 39 40 48 43 34 33 26 22 27 33 55 66 77 80 83 89 96 96
27 26 25 27 29 32 38 43 50 52 56 57 54 63 23 25 27 29 36 39 38 35 33 34 34 35 37 41 48 49 38 35 26 22 27 32 41 50 60 70 79 84 89 93
22 29 29 36 42 42 49 51 51 57 62 65 47 62 27 25 21 25 37 43 40 38 35 33 34 38 39 43 51 50 41 36 28 21 28 30 34 41 50 59 64 65 77 82
23 26 33 35 46 50 51 57 73 72 75 62 53 68 36 30 31 29 35 44 41 39 36 34 36 39 40 40 48 48 41 37 28 20 27 31 33 36 41 46 50 54 57 67
25 26 30 34 35 46 60 66 73 79 84 86 70 66 55 55 47 37 38 44 44 44 39 35 34 37 38 40 46 43 39 37 27 20 25 29 33 34 37 39 42 46 53 62
35 30 28 30 34 44 69 75 70 81 80 86 78 66 65 61 57 52 55 48 46 41 37 34 37 41 41 41 46 44 43 38 30 21 24 28 32 33 35 39 42 46 51 57
43 46 44 41 43 53 57 65 85 97 96 92 74 70 82 84 79 65 57 60 52 44 39 38 42 43 44 50 54 51 45 42 38 28 24 25 31 33 35 38 41 46 50 53
52 55 61 52 54 58 65 75 85 91 95 98 90 76 97 93 88 80 74 65 56 49 46 50 50 50 52 58 59 56 50 47 46 42 34 29 29 34 36 38 42 45 49 55
57 65 73 68 62 56 51 67 84 95 94 97 98 83 93 90 92 88 81 74 66 60 60 59 57 54 60 64 66 64 61 56 53 53 51 45 38 35 36 38 40 44 48 49
56 68 62 68 71 71 70 73 88 95 97 93 97 83 87 90 93 92 91 87 82 76 72 70 64 67 67 69 73 75 72 71 60 60 60 58 54 48 43 40 41 44 46 49
56 59 57 61 66 72 72 79 83 90 98 98 93 83 86 88 92 95 93 95 86 84 79 79 76 77 77 76 80 80 77 74 67 66 67 66 67 68 64 55 48 47 48 47
52 54 54 51 52 56 52 52 54 79 89 99 86 90 83 91 89 94 97 97 92 85 80 82 83 80 82 81 83 84 84 81 79 78 79 78 78 76 77 72 67 59 55 54
52 58 56 52 46 42 43 38 43 62 80 89 90 92 79 83 87 95 96 98 95 93 89 85 81 74 75 75 78 79 79 77 80 81 83 83 82 82 81 83 81 78 70 65
54 59 60 58 52 48 48 36 50 60 81 85 94 96 88 88 89 94 96 98 96 96 94 89 84 77 77 71 68 72 74 72 70 70 73 77 81 81 81 80 82 83 84 82
48 52 61 66 53 59 41 37 51 58 74 80 80 87 94 93 95 98 98 98 98 97 95 91 87 82 76 66 64 67 66 66 68 67 69 71 72 70 74 77 79 83 85 86
42 46 55 59 57 46 38 39 52 63 72 77 76 79 96 94 90 95 98 97 98 97 94 89 86 80 72 64 56 52 51 51 51 51 52 54 56 60 61 65 67 68 74 81
53 56 61 64 67 60 36 38 52 58 69 75 73 75 83 93 92 95 97 98 97 96 92 89 82 72 63 58 54 49 46 41 39 39 38 38 38 37 38 44 47 49 52 61
62 64 66 69 70 54 36 35 46 69 81 83 83 84 84 87 86 92 90 96 97 94 86 73 68 64 59 53 50 45 40 36 37 34 33 34 35 34 32 28 28 31 34 38
63 71 74 80 83 72 48 40 47 63 89 93 92 94 95 95 94 94 85 83 81 78 75 70 65 62 57 52 47 44 38 36 35 33 31 29 27 24 23 22 22 22 22 24
75 80 85 83 82 82 77 63 57 62 86 94 92 97 97 96 94 84 79 70 68 69 69 68 64 67 56 48 46 43 39 35 32 30 29 29 28 28 26 24 24 24 23 24
79 91 94 99 91 88 84 76 73 73 78 88 95 94 96 97 97 97 97 92 89 83 74 64 54 52 50 41 36 34 35 37 36 34 34 33 33 32 30 30 30 29 30 31
92 93 98 98 94 95 98 92 95 95 89 82 88 93 93 92 94 95 91 85 77 73 67 63 57 53 47 41 38 37 37 37 38 38 37 37 35 34 34 35 36 36 38 38
96 97 98 98 98 98 98 99 99 97 97 94 96 94 90 88 87 86 81 78 73 70 67 62 58 56 50 47 44 43 42 42 42 42 43 42 41 41 41 42 42 42 44 44

GFSCGP_prec_cthk_090.txt.gz
RH
33 36 38 38 37 41 46 51 48 45 45 42 41 34 37 34 32 33 31 27 25 24 25 25 26 28 33 40 42 43 35 31 32 30 28 24 27 44 62 81 91 98 93 98
39 37 30 30 35 41 47 51 52 47 44 46 43 32 33 32 30 30 31 31 27 26 28 27 27 30 35 40 41 45 41 31 31 29 27 24 27 50 65 78 85 96 96 95
39 36 29 28 30 34 41 47 47 44 45 43 45 25 27 28 26 25 28 32 30 28 30 30 30 33 37 40 41 45 45 35 32 29 25 25 29 55 70 76 82 92 97 96
42 35 34 32 30 30 34 35 38 44 44 46 46 41 23 20 18 21 22 28 29 29 30 32 32 34 35 39 43 44 49 41 34 31 23 23 28 50 64 74 79 82 92 98
39 34 32 32 27 28 34 38 45 49 51 53 51 44 26 20 16 15 16 18 28 31 32 31 33 34 36 44 42 45 51 46 36 33 22 25 29 39 51 61 75 79 84 92
30 32 33 32 35 31 40 46 53 56 51 59 43 45 27 25 27 31 30 23 23 31 34 33 34 36 37 41 46 46 50 49 38 33 22 25 28 36 44 52 62 70 81 86
26 29 36 40 45 44 45 50 60 55 57 63 48 58 35 37 39 53 41 31 27 30 34 34 34 36 37 39 42 47 50 49 40 34 22 24 29 34 39 46 53 56 60 69
29 27 32 38 42 52 52 44 56 63 73 69 54 69 52 50 61 59 52 43 35 33 35 34 36 36 36 37 40 45 51 47 39 35 23 24 29 34 37 42 45 46 47 53
29 30 30 35 42 38 53 55 56 67 70 78 62 57 49 59 63 63 58 52 45 42 44 39 38 37 37 39 40 44 50 45 40 37 23 24 29 33 35 39 43 44 46 50
39 41 38 37 35 42 41 54 67 78 88 85 73 79 74 75 75 74 68 62 57 50 43 44 42 41 43 46 46 46 54 53 47 41 27 24 30 32 35 38 40 44 47 51
50 48 55 46 45 53 60 66 71 72 82 90 90 79 82 81 88 85 86 76 73 68 60 52 51 50 50 51 50 51 59 58 53 46 36 26 29 32 36 39 44 47 51 52
54 61 67 65 63 58 62 68 69 78 88 91 94 73 77 86 91 90 89 86 84 84 75 66 61 59 59 56 55 62 67 65 58 51 48 40 32 31 36 37 41 44 47 52
60 62 62 80 72 69 73 76 70 85 95 93 95 81 84 82 82 84 94 96 93 93 86 77 73 70 68 64 64 70 74 75 75 61 55 54 49 44 41 41 40 42 45 47
63 67 61 67 70 73 78 68 67 73 88 82 90 89 84 77 84 82 92 98 97 96 87 85 79 74 74 71 72 73 77 80 82 81 68 59 64 65 62 55 51 47 46 47
69 75 69 59 55 57 62 63 63 67 66 71 65 81 79 77 84 87 94 97 90 95 96 93 84 80 80 81 86 83 85 87 87 89 85 78 77 75 78 77 73 68 60 57
67 74 59 50 44 45 45 38 39 41 40 52 67 77 88 86 82 93 98 98 97 92 94 92 90 87 88 86 93 94 95 92 89 88 87 85 83 82 83 83 82 80 81 80
55 56 53 50 48 42 40 37 34 36 50 57 74 77 87 95 94 95 97 98 98 98 97 92 89 87 82 85 91 93 93 88 92 88 88 89 87 86 85 85 84 83 82 81
55 51 51 58 46 49 31 38 38 40 46 57 71 76 90 98 98 98 98 98 98 98 98 98 96 92 84 87 90 84 78 76 79 77 78 77 77 77 79 79 79 80 83 86
54 54 54 56 54 40 28 40 51 48 41 53 68 73 86 92 95 96 97 98 99 98 97 96 95 93 88 83 76 72 68 69 66 64 66 64 64 65 65 66 69 70 71 73
56 55 58 60 60 61 38 33 38 39 39 61 70 71 83 91 98 96 97 97 98 99 98 95 91 85 80 71 69 67 62 58 54 52 52 52 52 50 49 47 45 44 46 49
64 64 61 63 60 54 44 48 44 44 45 56 69 77 85 90 94 99 93 97 98 94 90 85 78 75 72 69 67 62 61 56 54 49 48 46 44 41 37 35 35 34 31 30
64 69 69 65 69 65 63 62 61 55 52 55 74 83 91 92 96 97 96 99 93 79 72 71 70 69 66 67 62 58 58 56 54 53 47 42 38 36 33 30 27 25 24 24
69 76 76 78 75 75 82 83 83 74 61 66 80 88 97 98 97 99 98 96 86 78 76 73 79 68 64 61 59 57 52 51 47 47 43 38 34 30 30 28 26 25 25 25
70 75 83 90 93 96 90 85 82 82 86 79 83 99 99 99 98 98 97 97 97 92 86 77 72 70 65 60 55 49 48 46 42 40 38 37 37 35 32 31 31 30 30 31
81 85 91 94 97 98 96 94 93 95 90 87 79 81 88 89 92 93 90 92 90 83 76 72 67 66 62 58 55 52 49 46 45 45 44 42 41 39 38 37 37 37 38 38
93 98 95 95 94 97 98 97 98 98 98 98 98 94 87 88 90 89 85 80 80 75 75 75 68 66 63 61 60 57 57 55 52 49 47 47 47 45 45 45 45 45 44 45

GFSCGP_prec_cthk_093.txt.gz
RH
49 55 47 47 46 44 45 48 46 45 44 43 38 35 36 37 35 35 36 37 35 32 27 23 22 21 21 24 30 34 40 42 39 36 34 34 28 30 38 59 72 86 96 96
45 46 47 46 47 49 48 48 47 46 45 44 40 35 34 35 35 35 35 35 35 33 30 25 22 23 23 26 30 35 41 43 40 37 34 33 24 29 46 64 79 88 99 98
42 40 40 41 41 41 43 45 46 45 44 43 43 32 31 30 31 32 30 28 28 29 30 29 24 24 26 28 31 35 40 45 45 38 34 33 23 29 49 67 74 88 94 96
63 56 55 48 45 38 38 36 37 41 43 41 44 38 30 24 23 22 22 25 25 22 24 28 26 26 27 30 36 39 41 46 48 42 34 31 21 28 42 62 72 82 88 92
59 58 47 54 41 35 33 32 36 43 46 50 42 42 24 21 20 30 32 34 31 24 21 25 26 28 31 34 38 41 43 48 50 45 35 30 22 29 37 50 59 78 85 92
57 54 50 41 49 42 42 47 55 57 53 50 34 36 31 27 28 31 34 36 34 28 24 26 27 28 33 36 40 41 44 48 52 49 36 30 22 28 36 45 53 62 75 87
50 48 52 51 51 50 45 44 56 51 56 38 41 46 35 40 45 45 43 39 37 34 31 28 29 29 34 38 41 42 44 48 52 50 38 30 23 30 35 42 52 58 64 75
54 56 51 47 44 44 48 45 43 43 52 51 44 35 38 51 50 49 47 47 42 38 36 32 33 32 35 41 44 45 45 48 54 52 41 32 24 30 35 39 45 51 54 57
44 43 40 48 55 54 58 55 49 53 56 53 43 41 45 53 57 60 58 53 53 49 41 36 33 35 36 43 47 46 46 48 55 52 42 32 25 30 34 39 42 45 47 51
35 51 44 46 52 58 51 50 56 59 63 64 49 53 55 58 58 63 67 65 61 57 51 43 34 37 42 47 53 53 52 55 58 54 44 32 24 29 34 37 40 43 46 49
45 48 55 48 47 55 52 52 56 55 59 61 64 52 61 64 73 76 81 77 74 66 63 54 44 44 53 56 56 57 56 58 61 57 49 38 24 28 35 36 39 43 47 49
66 64 67 67 59 52 53 57 55 54 69 67 76 56 64 72 74 77 83 80 79 77 72 67 62 63 64 64 64 66 61 61 65 62 57 43 27 28 35 36 38 41 46 50
72 73 84 85 72 65 63 62 63 65 66 69 77 60 65 68 69 71 77 81 85 84 85 82 75 78 78 73 73 72 67 67 69 71 71 51 42 32 34 36 38 40 42 44
72 73 67 71 73 68 65 60 61 63 64 58 67 52 56 62 74 74 79 84 90 95 92 94 84 85 85 76 80 74 73 75 74 77 77 72 58 53 46 46 45 42 42 44
80 80 70 66 65 66 63 59 55 57 55 59 56 49 53 65 76 83 86 89 95 96 99 96 98 95 85 90 87 79 80 79 80 86 89 89 77 71 68 62 61 59 55 53
73 83 73 63 59 50 43 38 43 45 46 45 43 46 61 76 85 91 88 95 96 97 97 98 99 97 99 96 92 90 87 85 88 90 95 96 93 86 81 80 85 84 82 82
64 62 57 58 51 39 31 33 29 30 35 43 47 52 64 85 94 98 97 96 95 98 98 97 97 94 93 94 97 96 93 92 93 92 99 96 91 92 88 87 87 87 86 85
53 46 46 48 43 39 31 36 37 36 36 41 50 60 71 86 93 97 98 98 98 98 98 98 98 97 94 93 92 91 91 89 91 95 98 98 97 97 96 95 92 90 87 85
54 51 62 60 54 36 32 47 48 44 39 49 56 64 76 84 90 98 98 98 98 98 98 97 97 96 95 93 91 88 86 85 85 86 87 89 84 82 86 88 86 83 81 81
59 62 55 57 55 51 44 49 48 47 32 44 51 60 76 85 90 95 96 98 98 98 98 94 92 92 94 88 85 83 81 73 73 71 67 70 69 64 62 60 60 61 62 63
70 66 63 64 57 44 48 51 50 49 51 50 50 57 79 88 94 93 95 96 98 95 91 82 76 76 78 79 80 78 76 75 74 66 59 56 51 49 49 47 46 43 42 41
66 69 72 65 66 62 62 62 66 72 69 58 52 60 76 86 97 94 95 98 97 90 86 81 73 74 73 72 74 72 68 66 70 69 66 59 48 45 43 42 41 42 42 42
76 80 77 76 79 76 77 81 77 73 66 66 63 65 78 83 91 98 98 98 98 94 86 86 80 79 73 68 64 67 64 64 63 61 60 57 56 55 55 53 47 40 37 34
70 76 78 80 83 91 94 90 81 75 80 86 76 70 88 93 97 98 98 97 97 97 93 87 85 79 70 64 58 59 59 58 55 55 56 51 47 45 43 41 39 36 35 34
75 79 88 92 89 94 96 95 91 88 88 83 81 80 77 87 93 93 93 91 91 88 84 79 75 73 68 66 62 58 55 54 54 53 49 47 49 46 42 39 38 38 38 39
85 90 92 96 93 92 94 94 92 93 95 95 93 88 84 81 86 85 85 85 87 85 81 76 75 72 65 65 64 61 58 57 57 57 54 52 50 47 45 44 43 43 44 44

GFSCGP_prec_cthk_096.txt.gz
RH
31 47 44 48 58 61 59 57 54 51 48 45 41 39 39 36 35 36 35 34 34 33 33 31 27 23 22 24 26 28 31 31 40 41 42 39 36 33 33 31 43 60 76 89
41 38 45 50 58 63 65 64 55 52 55 48 42 39 39 38 36 34 33 33 33 34 34 34 34 30 24 23 23 27 30 31 39 42 43 40 36 32 30 31 54 72 78 89
35 43 52 56 57 63 60 57 55 56 51 46 42 38 35 34 35 31 32 32 32 32 32 32 33 33 29 25 23 28 33 31 39 46 46 42 38 31 29 33 59 68 80 94
44 49 50 56 58 56 52 48 46 50 52 50 48 41 36 33 30 29 31 40 38 36 32 30 31 31 30 28 28 31 36 34 41 46 49 45 39 29 27 33 51 64 81 88
52 58 52 56 51 48 47 44 43 43 43 47 47 50 33 25 27 31 34 37 37 37 33 28 26 27 29 32 30 33 38 38 43 46 52 49 43 30 28 34 46 56 76 87
68 64 69 62 63 51 46 47 51 53 57 59 40 38 31 31 33 40 43 42 41 41 37 32 28 24 27 31 32 35 38 42 45 48 54 52 44 31 29 33 43 52 64 77
69 65 71 64 62 60 56 52 61 66 63 46 33 33 31 39 47 46 42 45 46 44 41 35 31 29 26 34 35 37 41 45 48 50 54 54 44 32 31 34 40 50 61 71
62 67 67 64 55 57 59 51 57 50 44 42 40 40 42 48 47 49 47 47 48 45 41 39 37 33 31 35 41 39 45 48 51 53 56 57 47 28 33 35 38 45 55 60
60 60 59 61 59 55 63 57 52 44 49 46 36 35 42 51 50 47 47 49 49 48 44 42 40 36 34 35 45 43 47 50 55 59 61 60 47 30 33 35 39 41 46 49
52 70 60 64 65 51 54 50 55 53 60 51 41 43 52 53 56 51 49 51 52 50 50 46 47 39 32 38 47 48 51 52 55 61 66 63 47 33 33 35 36 39 43 47
51 58 61 61 61 67 64 59 55 54 52 49 47 52 57 57 56 55 55 56 56 55 54 54 53 44 39 44 50 57 57 55 57 63 70 66 49 35 33 36 35 39 42 44
70 61 54 62 61 56 58 54 46 48 59 54 53 51 57 48 52 59 64 67 64 66 63 63 61 56 48 52 54 61 61 62 61 67 74 68 54 38 33 38 38 39 43 45
73 63 69 73 58 54 56 53 52 53 53 60 60 59 49 45 53 64 70 73 68 68 68 77 75 67 62 58 61 67 67 68 70 75 78 73 62 42 34 39 41 40 43 46
75 68 69 65 57 52 59 58 58 57 58 55 50 48 46 49 58 66 74 78 73 71 76 84 85 80 74 71 74 72 72 76 78 81 84 79 70 60 42 41 41 42 45 48
81 77 72 72 69 66 63 56 53 55 54 54 46 44 50 62 62 73 81 81 82 86 83 90 90 94 82 82 83 84 82 81 81 86 87 86 81 77 62 49 49 49 49 51
87 77 68 64 58 55 54 48 48 47 49 50 46 44 50 60 68 83 86 93 94 95 95 95 98 98 94 87 92 90 89 90 90 89 91 89 87 88 82 70 57 54 53 55
71 65 62 64 51 41 41 43 38 38 40 40 41 44 52 64 76 87 92 98 97 97 98 97 97 97 98 93 89 91 92 96 95 98 97 97 94 94 96 91 85 77 74 75
54 48 43 50 44 42 47 40 40 40 43 41 44 52 62 71 80 88 95 96 97 97 99 98 97 97 97 94 93 93 99 99 99 99 99 99 99 96 97 98 96 96 94 93
55 49 49 49 42 45 52 50 47 47 48 49 50 50 60 72 82 86 95 96 98 98 98 97 98 97 97 96 98 99 97 97 95 94 96 96 96 97 98 99 96 95 96 97
50 48 52 52 46 56 71 59 54 46 46 51 50 48 62 72 84 86 90 93 98 97 95 89 86 90 96 97 97 97 93 92 93 93 90 91 89 88 93 96 94 97 96 95
60 62 64 58 53 54 64 56 53 54 72 60 55 55 63 73 84 86 87 90 93 97 94 87 80 75 75 83 89 90 93 94 90 82 79 80 80 81 77 74 70 71 70 69
67 66 64 63 63 63 73 63 64 72 73 70 65 62 68 73 77 86 98 98 97 96 90 86 82 80 79 75 76 81 82 81 83 84 84 73 68 64 59 58 62 60 57 56
76 74 76 72 75 77 79 79 78 76 69 69 71 72 71 75 77 80 88 97 97 96 91 91 93 87 80 77 72 70 74 73 73 69 69 71 77 77 74 69 64 57 51 46
73 75 78 77 76 80 85 84 79 74 79 84 84 78 74 75 81 83 83 85 84 89 89 83 80 79 78 76 72 68 66 67 68 66 65 62 62 58 55 57 61 57 56 56
70 69 76 80 81 85 89 89 87 87 86 83 82 79 79 75 76 78 81 85 85 84 85 81 78 74 70 69 67 65 63 60 59 59 59 57 53 54 55 57 55 55 53 53
75 80 83 83 90 89 91 93 94 91 88 87 88 87 85 82 80 82 85 86 84 81 80 81 80 75 72 70 66 63 59 60 60 60 59 57 56 56 55 52 49 48 48 48

GFSCGP_prec_cthk_099.txt.gz
RH
27 21 19 20 34 43 57 59 65 59 56 57 53 46 41 37 38 37 37 37 37 36 35 34 32 28 27 26 30 34 33 30 30 30 33 39 40 42 37 32 30 34 41 59
38 23 14 27 42 53 63 85 76 65 60 59 54 51 45 41 42 42 39 39 35 35 37 38 37 36 33 29 27 30 31 32 29 29 32 41 42 45 43 33 32 35 51 64
50 20 22 37 44 51 67 74 67 64 60 61 59 54 44 40 41 42 39 35 35 37 37 37 36 36 37 36 33 30 32 35 29 30 38 46 47 49 44 35 32 33 49 63
58 39 46 40 45 48 56 61 66 65 71 72 55 51 45 43 44 42 38 38 38 40 40 40 40 38 37 36 35 37 35 35 30 35 40 46 48 49 44 36 30 32 45 55
63 44 50 51 49 54 53 60 66 68 61 57 55 57 48 46 45 43 40 45 50 52 51 47 42 41 37 35 35 37 38 34 30 37 43 50 54 51 45 35 29 32 45 51
65 50 54 50 55 60 63 60 55 55 52 54 48 50 51 46 41 46 56 51 51 53 52 47 45 41 35 32 34 35 39 37 33 37 46 49 56 54 45 33 30 38 45 50
67 73 56 53 60 62 63 61 68 67 64 56 52 54 47 55 53 54 53 51 51 53 49 44 42 40 37 35 30 37 41 40 36 40 46 53 58 57 49 35 32 35 44 51
78 85 61 64 66 66 62 61 75 70 70 60 52 44 43 58 50 47 50 53 51 52 47 44 43 40 39 35 33 37 43 40 38 41 50 57 61 58 53 36 33 35 41 50
80 66 70 71 67 64 63 66 64 78 67 59 51 58 68 55 56 54 55 56 54 48 47 47 46 44 42 36 34 39 43 42 41 44 55 60 61 60 54 38 34 36 41 45
60 73 64 70 72 66 68 57 72 67 66 52 48 52 71 71 64 55 54 55 53 52 51 50 51 50 46 35 33 39 42 47 45 52 58 62 64 63 56 40 36 37 42 42
60 70 62 67 72 68 66 70 67 60 55 68 71 69 72 63 55 52 58 56 57 55 54 57 58 57 54 44 44 48 49 51 50 56 62 67 68 66 58 44 39 40 42 42
56 70 69 64 63 77 58 69 60 72 63 63 67 82 69 45 51 61 61 61 61 60 59 61 62 66 61 56 58 54 56 56 57 60 66 70 72 70 60 48 42 41 42 44
68 65 68 76 67 76 73 75 64 67 75 61 59 74 63 58 58 63 63 68 69 66 62 62 66 72 69 66 61 56 62 63 64 66 69 73 76 72 62 55 42 40 41 44
81 73 61 67 64 57 66 60 60 55 53 61 52 62 67 65 66 63 69 78 77 73 68 70 68 77 79 74 67 60 65 68 70 73 74 78 79 74 65 59 47 45 45 46
85 92 87 71 58 60 67 72 72 67 64 58 60 50 68 61 63 68 72 81 84 82 80 78 75 83 82 81 78 71 73 76 78 76 76 81 84 80 69 66 58 47 49 50
84 76 75 68 68 64 58 53 53 54 56 54 51 72 74 62 61 71 73 85 88 91 90 87 84 89 94 91 86 80 79 83 86 84 84 84 84 81 76 73 68 61 49 52
81 74 75 68 58 55 63 59 53 57 59 56 64 69 76 67 67 73 80 88 89 92 94 94 93 89 97 99 95 89 87 90 90 90 89 90 87 89 88 84 83 76 64 52
74 66 66 55 46 59 63 59 52 64 62 51 50 56 63 65 73 82 82 85 92 92 91 94 96 93 98 98 98 98 93 94 95 94 94 96 93 94 96 93 92 89 84 76
62 61 51 56 55 61 60 63 61 59 70 53 48 49 57 63 75 85 85 88 90 92 91 91 89 94 96 97 97 98 95 92 91 94 95 99 99 96 97 97 96 97 95 96
49 53 53 53 47 66 87 60 54 50 66 64 53 51 58 62 75 85 88 90 88 88 89 84 85 83 88 94 97 97 98 93 94 98 97 97 97 98 98 98 95 98 96 99
53 54 63 57 58 69 71 56 53 61 85 76 63 58 58 68 76 82 87 89 94 93 85 83 81 77 78 80 91 96 96 97 96 95 94 97 96 98 97 93 93 98 95 96
71 75 65 64 64 74 68 56 59 79 77 75 73 69 68 69 70 75 87 87 97 98 92 89 88 85 78 79 73 82 90 91 94 94 98 98 91 89 87 89 92 87 85 86
81 73 73 70 78 77 77 78 77 76 76 77 76 73 73 73 76 75 76 81 89 95 92 89 84 82 80 76 75 73 75 85 86 85 87 89 92 92 85 84 77 71 72 72
71 66 77 76 75 76 80 81 79 78 78 80 81 78 75 73 73 72 71 74 73 75 75 80 80 76 77 76 73 71 69 67 72 77 75 72 71 72 76 79 82 85 87 83
68 68 73 76 77 80 83 87 86 81 81 81 84 82 77 75 73 70 68 71 74 72 74 72 74 79 78 73 69 68 68 68 67 65 64 65 70 69 66 68 72 69 69 70
73 76 80 82 83 84 85 90 92 94 92 87 85 84 81 81 79 77 74 74 73 74 76 80 80 80 78 76 74 72 70 67 65 64 63 60 58 58 58 58 59 59 59 58

GFSCGP_prec_cthk_102.txt.gz
RH
41 62 42 17 18 24 29 32 39 42 51 60 59 52 50 47 43 40 41 43 37 35 35 32 29 27 26 26 29 35 39 34 29 28 25 31 32 32 35 39 43 38 30 25
30 50 63 29 19 18 26 44 54 65 60 67 71 69 62 55 46 43 41 42 40 39 38 36 37 36 32 28 28 31 39 41 37 28 27 31 34 33 37 40 44 40 32 26
26 40 69 42 24 23 30 43 55 65 71 87 85 82 68 58 51 48 47 46 46 44 41 40 42 42 39 38 34 31 32 39 39 31 32 34 36 37 40 42 44 43 33 29
31 29 65 56 22 28 44 48 64 72 87 92 68 77 62 58 52 49 49 50 50 47 46 44 43 42 41 38 36 39 36 39 42 36 33 35 34 35 39 43 46 44 33 27
25 37 51 59 26 33 46 50 68 60 70 82 74 87 57 49 49 49 48 51 52 54 54 53 48 48 45 43 40 39 38 37 42 37 36 37 38 38 43 46 49 44 30 26
31 56 78 62 49 38 47 64 70 72 70 92 69 75 52 54 54 51 60 61 65 61 57 55 52 50 49 48 43 40 40 37 40 38 42 39 39 43 46 49 51 44 29 27
60 58 59 51 56 58 59 72 75 83 92 63 50 57 56 55 53 63 67 73 69 65 64 61 53 48 45 43 42 42 41 41 40 39 44 45 45 47 49 51 51 44 27 29
56 96 68 49 50 51 55 62 71 61 58 49 51 74 68 65 67 63 71 66 67 71 68 67 54 49 46 41 38 39 36 44 41 39 47 48 49 50 52 54 53 48 29 30
94 94 68 61 51 52 57 64 63 94 84 92 73 81 70 72 71 73 69 67 67 64 59 54 52 50 51 45 38 33 31 44 38 43 50 50 52 53 54 57 54 49 36 31
85 95 67 63 65 66 67 67 85 95 97 96 66 71 81 82 76 76 69 64 57 50 51 52 50 51 55 51 42 35 35 42 37 42 52 49 55 60 57 59 57 50 42 33
82 83 67 72 90 73 70 86 87 87 78 87 78 98 93 87 80 82 68 59 58 57 57 54 54 56 59 57 50 46 55 42 43 50 52 50 61 64 61 63 59 53 45 36
65 73 68 67 77 75 73 75 75 90 63 80 96 98 91 87 83 67 57 58 65 65 63 59 57 61 67 65 62 59 56 62 52 53 52 59 64 66 66 67 61 56 49 38
68 67 93 76 71 75 78 78 72 70 80 69 79 99 89 87 77 64 61 64 69 70 69 64 60 65 71 71 68 67 62 64 60 58 60 63 71 70 73 74 64 61 59 45
72 69 88 79 70 84 84 85 73 76 86 76 82 87 91 84 73 67 67 70 73 80 78 72 66 66 71 74 77 77 74 70 62 67 70 68 75 76 81 82 70 66 62 55
81 98 90 79 74 72 89 91 87 70 64 93 77 90 85 80 69 65 73 74 72 79 78 76 76 72 74 76 82 80 77 73 65 68 69 73 76 80 83 83 75 65 66 62
90 98 90 95 77 83 67 65 61 64 68 68 82 97 91 82 75 68 71 72 76 82 84 84 83 82 79 83 85 86 82 81 72 72 76 78 81 83 85 85 79 74 73 69
90 83 87 71 64 63 66 64 72 71 65 70 82 88 87 79 74 74 75 79 82 82 85 87 87 86 86 86 93 93 91 88 84 82 82 84 84 86 89 88 80 81 82 80
86 78 71 65 62 88 79 77 86 76 74 67 68 69 68 67 76 83 85 84 81 81 83 83 87 89 90 91 93 92 97 95 93 89 88 92 94 94 93 91 90 86 86 84
70 77 68 74 73 79 76 76 79 84 85 71 53 49 53 61 76 87 85 85 83 79 77 76 79 80 84 92 95 95 97 97 95 92 95 98 99 97 97 95 94 95 92 91
60 69 72 68 68 90 92 66 60 64 76 72 64 58 60 62 71 82 83 84 84 83 78 72 71 75 77 77 91 95 97 98 98 96 99 97 95 95 97 97 97 99 98 98
65 63 70 66 70 83 77 64 55 64 89 84 77 69 63 65 68 77 84 85 85 87 85 86 84 82 78 76 77 84 96 96 97 98 97 96 96 96 96 97 97 99 98 96
69 81 72 71 74 85 68 58 60 81 86 83 81 79 77 74 73 72 74 86 87 86 84 86 84 79 77 77 71 72 76 87 96 96 96 98 95 98 97 96 95 98 97 97
76 67 76 69 81 77 73 79 79 78 77 80 82 79 78 78 77 76 72 69 70 76 77 77 80 79 74 71 68 63 66 73 75 85 90 91 92 94 95 97 96 98 98 92
76 63 70 72 76 77 78 82 85 84 86 82 82 78 75 73 70 68 70 69 69 69 68 67 64 70 69 66 65 65 68 66 63 66 70 78 84 85 87 92 95 95 95 96
67 66 69 72 74 79 82 85 89 88 84 82 80 80 79 76 72 73 71 70 69 69 71 71 71 73 75 74 70 72 74 71 70 67 65 64 66 69 75 77 81 83 86 88
76 74 75 80 83 83 86 87 88 88 87 85 82 81 79 78 76 76 75 74 73 72 71 72 74 71 74 80 80 79 77 76 75 73 69 66 65 65 65 66 64 66 67 68

GFSCGP_prec_cthk_105.txt.gz
RH
35 34 36 62 44 36 21 34 37 24 16 40 55 51 43 51 54 48 47 44 44 40 39 37 34 32 30 28 25 29 30 33 37 41 33 31 26 31 33 33 33 37 40 38
79 50 23 28 54 56 46 31 41 40 38 69 65 65 52 48 50 49 45 46 45 46 45 40 39 37 34 30 28 28 27 32 35 39 39 35 32 33 34 36 37 38 42 42
75 63 65 27 37 74 67 28 33 35 68 79 78 62 50 50 52 50 47 49 50 50 51 48 45 40 36 34 32 32 30 34 33 36 41 39 38 36 35 36 38 40 43 44
74 65 72 44 64 87 53 25 20 32 70 92 80 80 56 47 57 52 55 52 52 54 55 54 50 45 42 40 35 37 42 41 38 34 35 36 33 32 32 34 36 41 47 47
79 61 46 54 52 68 49 37 40 36 72 78 95 96 69 68 67 59 61 60 64 64 64 57 51 48 47 46 44 40 41 51 52 43 41 40 37 33 31 36 37 43 50 49
58 36 38 50 67 63 61 56 67 75 79 87 66 73 65 73 72 59 75 74 71 73 65 59 54 52 52 51 49 45 40 39 45 51 35 40 41 37 35 36 39 45 52 52
35 35 38 57 77 63 72 61 91 97 97 74 46 63 53 68 70 76 77 79 76 75 68 66 62 57 55 53 51 48 45 43 41 45 42 38 40 43 38 38 41 46 52 52
53 66 65 66 55 72 59 63 83 79 76 62 51 60 52 66 83 76 80 76 72 73 72 69 65 58 53 49 45 42 43 43 47 47 45 43 45 49 44 43 44 48 54 53
75 84 67 72 72 66 60 70 61 69 77 75 56 67 66 77 87 86 86 81 77 81 76 70 64 60 57 50 47 45 36 32 42 45 44 46 49 52 52 46 49 51 57 54
88 91 68 66 55 57 51 56 63 78 87 92 78 78 90 90 95 95 89 86 79 71 60 55 54 53 53 56 59 57 50 35 46 37 43 49 56 56 65 52 52 54 61 55
89 99 85 68 73 66 61 73 76 83 91 97 96 98 98 97 96 96 89 82 67 62 58 57 57 55 56 62 64 61 58 46 50 46 52 59 61 61 70 54 57 58 62 55
92 88 81 77 84 77 78 77 85 88 98 98 98 99 98 96 90 83 78 70 66 68 69 66 62 60 58 62 64 65 60 55 53 58 69 68 65 68 66 55 61 63 66 57
82 81 87 94 86 96 91 79 83 84 93 98 97 98 96 96 93 87 77 68 63 66 71 69 65 63 62 65 69 70 73 68 71 70 73 67 55 66 62 58 70 69 70 63
71 79 91 95 98 88 89 88 91 97 94 96 99 98 94 92 90 83 74 66 66 69 74 73 71 68 67 66 72 76 77 76 73 88 79 65 63 66 75 74 78 75 78 68
78 85 90 91 94 92 93 97 97 91 89 99 99 97 96 91 80 72 69 70 72 74 77 78 77 76 73 75 72 75 82 80 74 81 72 66 70 76 81 80 80 82 82 74
85 97 99 99 95 94 95 93 85 92 98 98 97 97 96 87 85 77 72 73 79 77 77 81 82 82 81 79 81 78 81 82 83 90 82 73 75 79 81 82 81 85 85 80
92 95 94 98 81 81 95 93 88 89 91 88 92 94 90 86 81 75 72 71 72 78 82 76 79 82 84 85 84 82 88 90 86 83 78 79 78 82 84 84 91 89 90 86
80 83 84 76 78 96 96 91 92 87 87 84 83 81 82 81 75 77 76 79 80 77 71 71 72 75 79 84 89 90 88 89 98 96 91 84 84 88 87 91 97 95 92 91
74 79 88 89 95 92 86 85 91 91 91 85 77 71 70 67 64 74 77 77 78 76 74 70 68 70 72 74 83 89 89 89 94 97 97 91 88 90 90 92 98 99 97 98
75 81 88 86 89 96 88 75 74 76 82 80 77 73 68 62 61 69 78 78 78 78 77 77 77 82 81 73 71 73 89 90 90 97 98 96 96 99 91 96 96 99 98 96
73 79 84 86 94 86 86 77 70 75 81 83 80 71 65 60 63 67 75 79 82 82 79 79 81 80 74 75 71 66 63 75 88 91 96 97 98 97 98 97 98 96 100 97
75 88 78 80 80 81 73 60 61 76 83 83 81 81 80 75 73 69 67 70 76 83 84 80 76 74 69 68 71 64 60 61 65 79 95 96 97 98 95 96 98 98 98 94
82 73 81 75 78 81 73 72 75 79 78 79 79 79 76 75 73 71 72 71 71 70 70 69 68 66 67 65 62 59 61 62 63 66 68 77 89 96 94 96 97 97 97 98
88 73 73 75 74 74 73 75 78 78 80 81 78 80 80 77 75 72 70 67 68 68 68 67 67 67 67 67 67 66 64 63 62 66 65 66 67 71 77 85 89 94 94 96
83 73 73 73 74 74 78 79 81 81 84 84 81 79 78 78 78 75 72 73 71 70 69 68 68 67 66 65 68 70 69 69 69 68 71 69 66 64 64 65 68 73 81 87
85 82 79 78 79 78 80 83 85 85 84 84 82 79 77 77 77 75 73 73 72 71 69 67 66 66 66 65 65 65 65 67 72 76 77 75 73 72 69 65 64 65 65 67

GFSCGP_prec_cthk_108.txt.gz
RH
39 52 50 46 52 68 79 59 42 21 14 24 27 25 27 30 22 22 26 39 50 46 43 41 40 40 37 34 32 27 25 26 36 39 41 43 39 39 33 30 30 31 32 33
44 51 61 72 70 56 42 68 76 39 19 33 41 37 34 40 36 26 27 34 43 48 47 47 47 46 42 35 33 31 27 26 29 39 37 42 41 38 39 34 32 33 34 36
42 35 53 58 65 81 36 48 72 65 34 43 68 62 38 38 49 34 32 34 45 53 54 56 54 48 44 40 36 35 32 29 30 36 38 41 46 47 43 40 36 32 35 39
45 39 53 73 76 80 46 42 67 79 54 50 65 71 63 48 40 44 37 44 62 64 62 61 58 52 49 47 46 44 42 40 41 46 49 43 42 40 37 34 35 34 36 38
58 55 64 68 65 59 58 64 76 63 42 57 62 92 61 67 57 53 57 67 72 73 67 64 59 58 54 51 49 48 48 48 49 51 64 61 52 49 45 40 38 38 38 39
57 50 55 48 48 56 58 60 71 67 43 58 46 76 62 64 62 70 70 78 79 76 68 62 66 62 57 55 51 49 48 51 49 51 53 61 73 56 52 46 41 38 37 38
47 43 37 45 58 49 57 73 90 85 85 69 60 83 62 74 78 77 76 76 75 75 73 67 63 64 61 55 56 55 53 53 53 51 51 50 58 60 50 47 44 40 39 39
59 63 59 71 74 58 72 71 75 95 93 80 77 77 77 84 93 96 88 85 85 83 74 71 73 72 69 63 59 58 55 54 53 55 52 49 50 57 53 50 48 44 41 41
93 76 63 61 49 66 64 70 66 78 88 83 78 81 90 86 88 98 97 92 90 90 85 81 78 74 68 63 62 61 58 53 52 50 53 53 47 51 55 55 56 50 47 46
97 90 64 72 71 74 72 74 76 90 83 88 82 85 99 98 94 95 98 95 94 91 89 84 80 77 72 68 66 62 58 55 53 47 47 52 51 57 64 58 61 53 51 51
94 99 75 70 77 80 74 78 75 70 78 90 97 99 98 99 98 94 98 95 95 89 86 80 74 68 62 58 56 54 54 57 51 49 47 48 51 59 62 66 64 60 61 55
82 98 94 86 78 80 82 77 71 82 85 94 97 98 99 97 98 96 94 98 99 92 84 74 65 59 53 54 55 55 60 63 63 59 55 60 64 66 73 73 70 74 76 63
76 84 88 80 89 93 91 80 79 87 95 98 96 98 98 98 97 95 93 94 85 77 69 66 64 63 61 59 60 60 71 69 71 66 64 67 69 69 80 82 77 80 84 67
75 81 85 88 84 91 99 94 94 93 98 96 97 98 98 98 97 92 87 80 69 64 63 67 68 67 66 68 67 65 72 82 76 72 75 75 66 65 81 80 80 82 85 66
83 91 95 99 94 98 98 98 98 99 99 94 98 97 95 91 87 85 82 77 70 67 69 73 73 70 71 72 73 72 73 76 82 73 78 83 78 75 71 85 80 89 75 74
88 97 99 97 97 93 97 98 96 98 98 98 97 97 96 90 86 79 77 77 75 74 69 69 68 72 77 78 77 77 74 74 78 83 81 78 91 79 77 68 71 73 79 83
82 94 97 96 95 94 90 97 97 97 96 95 92 94 90 89 87 78 75 73 72 69 67 66 68 70 73 77 78 79 79 80 77 80 82 84 90 94 83 82 98 95 98 93
85 82 91 92 91 89 98 98 95 91 91 85 86 85 83 81 79 76 76 75 74 73 68 68 68 70 71 71 78 85 85 84 83 85 89 88 87 87 88 80 80 97 95 83
82 85 96 97 94 97 90 93 96 93 92 89 81 77 76 78 79 74 77 76 74 74 70 67 68 64 67 66 70 75 82 84 84 84 82 90 96 94 90 82 77 93 82 99
84 88 98 97 94 96 92 86 88 85 85 88 87 83 74 73 69 66 69 71 74 76 70 67 68 66 64 67 67 64 60 66 77 83 84 90 94 97 95 98 92 97 92 99
87 90 92 95 92 88 88 85 80 76 82 82 83 81 75 72 70 68 65 69 72 71 69 67 67 66 64 66 65 63 58 55 57 67 80 86 92 97 97 97 94 98 99 99
84 91 86 88 86 85 81 68 70 77 83 84 83 81 79 75 72 70 68 68 68 65 65 63 61 61 59 60 59 58 54 54 55 57 60 68 87 93 95 96 98 97 96 98
86 78 85 79 84 84 77 72 73 75 75 78 78 78 74 72 71 70 69 66 65 66 64 62 58 58 58 58 58 58 60 61 60 59 60 62 64 67 78 94 98 96 96 97
94 79 74 77 78 76 74 74 74 76 75 76 77 80 80 78 77 75 73 71 68 65 62 60 59 58 58 58 59 63 67 67 66 64 61 58 63 65 67 67 73 83 91 96
91 85 76 77 76 75 74 75 76 75 76 76 78 78 77 73 72 72 72 70 68 66 64 61 59 58 58 58 60 61 61 60 60 60 62 63 63 65 67 66 67 67 68 72
87 87 85 79 76 75 77 77 77 77 78 82 80 78 78 77 75 73 71 71 69 67 66 64 62 62 61 61 60 59 57 56 57 56 56 56 57 58 64 68 70 69 68 70

GFSCGP_prec_cthk_111.txt.gz
RH
24 32 37 33 38 45 56 62 52 43 49 52 45 37 24 15 22 19 21 13 20 51 49 48 47 44 44 39 36 34 35 33 34 35 38 44 42 39 40 39 35 32 30 29
35 36 34 37 44 55 52 54 52 49 46 64 64 59 28 19 33 23 23 20 16 38 58 53 48 45 42 36 36 36 34 34 33 32 32 36 43 45 46 43 43 39 32 32
45 38 44 52 42 44 48 77 74 77 47 54 75 85 32 23 33 26 29 26 27 31 56 61 57 50 44 41 38 38 36 36 36 35 38 38 43 51 52 49 43 42 42 40
41 40 46 56 50 58 64 66 77 56 55 64 63 75 35 37 37 31 40 50 41 36 44 62 63 60 53 48 48 45 47 43 40 42 40 40 40 45 44 46 47 46 44 44
47 44 46 49 45 54 56 61 69 72 73 92 77 81 47 67 64 49 53 55 56 47 45 51 57 63 55 54 58 55 51 48 45 47 45 45 51 57 55 58 57 48 47 45
54 50 50 44 44 53 58 60 63 71 77 89 57 57 54 65 77 80 64 57 59 57 56 57 63 63 54 56 57 57 58 58 54 52 49 52 51 66 74 72 62 55 52 49
68 63 62 64 69 55 55 69 83 96 90 65 44 62 55 82 87 86 87 72 68 69 67 64 63 64 59 59 60 58 57 60 58 57 56 57 58 56 57 68 68 61 54 51
82 66 62 63 63 64 66 72 87 95 95 78 62 87 90 87 88 93 91 89 83 77 73 72 70 72 70 70 66 61 56 54 56 56 55 60 58 59 58 58 67 63 57 54
87 83 66 70 64 59 68 80 74 93 88 98 89 99 95 88 93 91 90 91 86 86 81 83 85 80 75 74 72 69 64 60 57 58 56 58 58 58 58 57 62 66 62 59
86 85 70 72 72 74 74 81 91 96 97 89 87 97 97 97 95 98 98 95 90 89 90 93 90 87 84 82 77 74 69 68 65 61 58 55 56 57 54 59 57 58 63 63
78 82 70 68 81 88 79 77 84 87 86 96 94 97 98 98 98 98 98 98 95 90 89 89 84 86 84 83 82 81 76 73 70 69 66 61 54 53 60 62 61 61 67 70
77 78 82 73 76 84 90 81 79 82 86 93 96 98 97 98 98 97 97 97 96 97 97 97 95 91 86 78 79 79 76 74 71 71 71 66 59 57 60 57 61 63 69 81
80 75 78 68 74 83 91 87 81 91 94 94 97 98 98 98 99 96 97 98 96 98 94 88 86 75 71 71 70 67 64 61 60 58 62 69 71 70 62 62 63 67 74 82
80 84 91 92 91 94 95 91 88 97 98 96 95 96 98 98 98 98 99 95 92 91 88 81 76 75 73 70 68 66 65 64 63 69 77 75 80 83 75 68 64 75 83 86
87 97 95 92 97 93 96 95 98 96 96 93 98 97 97 97 97 97 96 90 83 77 70 67 68 72 72 68 67 66 66 65 66 70 78 78 75 74 81 78 71 73 77 84
95 98 99 98 96 93 96 96 96 98 97 97 95 96 97 98 98 97 99 97 89 79 77 76 71 67 65 69 69 71 72 69 70 70 78 81 79 78 78 77 73 70 72 76
98 98 98 97 92 91 86 97 97 95 96 96 92 95 91 85 84 84 82 80 79 74 71 70 70 69 66 66 71 73 74 75 74 71 71 80 80 79 81 84 93 86 89 93
95 96 98 96 97 92 97 97 96 89 88 89 87 86 83 82 80 78 78 78 78 75 70 66 65 65 65 65 68 73 76 76 77 77 78 78 80 84 85 88 89 95 80 84
90 94 98 97 93 97 96 96 95 95 94 91 88 83 77 76 80 75 76 75 76 71 68 66 64 63 61 60 60 63 62 66 72 77 78 80 83 85 86 85 95 96 91 97
89 92 97 97 93 96 96 94 93 88 92 88 85 82 82 80 78 76 77 76 72 68 66 64 63 62 59 62 59 58 56 56 52 57 72 80 82 81 83 87 94 94 92 89
86 89 96 97 93 94 94 98 90 85 89 87 85 84 82 77 77 76 70 67 65 64 63 61 59 57 57 56 54 53 50 49 50 50 50 54 68 78 81 85 90 93 94 92
87 92 91 92 87 90 86 82 77 82 84 83 82 80 79 78 76 73 72 70 69 68 64 62 60 57 57 56 52 51 50 52 51 50 53 54 53 54 63 78 86 91 94 95
88 85 90 89 89 87 82 74 74 76 77 78 78 78 79 78 78 78 74 71 70 66 63 61 61 60 59 57 55 53 54 55 55 53 53 53 54 55 56 59 63 70 83 91
96 86 82 83 85 81 77 75 76 78 77 78 79 79 77 77 75 75 73 71 69 66 63 61 59 58 57 55 53 52 52 52 51 50 49 48 50 52 55 58 60 61 64 67
93 91 87 83 81 79 78 77 77 78 75 74 75 77 76 73 72 70 69 68 67 65 63 61 58 57 55 54 52 50 49 48 48 47 46 46 47 47 49 51 56 60 64 69
93 92 90 87 79 78 79 79 77 77 76 75 73 73 73 72 72 72 71 70 69 66 65 64 62 60 59 57 55 54 52 52 51 51 51 50 50 50 50 50 51 53 55 58

GFSCGP_prec_cthk_114.txt.gz
RH
23 29 32 31 34 34 33 39 43 33 31 40 33 43 39 42 27 29 24 13 12 13 13 31 49 47 41 50 61 56 52 42 41 44 46 48 44 42 42 39 40 38 33 33
33 35 29 30 34 42 50 52 47 42 36 57 56 54 56 41 32 35 33 16 15 14 19 26 56 53 44 40 48 52 55 46 44 45 44 47 47 48 43 42 41 44 43 38
34 28 30 32 35 42 41 52 46 50 52 56 65 44 39 32 42 39 31 25 25 28 27 29 60 59 50 44 43 43 51 47 48 47 46 48 47 49 47 46 47 49 47 46
36 37 40 42 40 44 53 41 49 60 73 82 70 76 57 47 40 49 58 54 42 40 38 36 55 63 56 51 47 45 46 43 43 45 46 48 46 43 42 45 50 52 51 52
46 46 48 52 49 48 51 50 59 59 65 76 66 91 62 52 62 85 88 60 55 49 50 43 49 69 64 60 58 56 50 44 43 48 48 50 49 48 49 50 55 58 57 55
50 49 54 49 53 56 54 54 53 63 80 85 52 72 59 92 99 97 91 80 75 63 58 54 45 61 69 68 64 63 61 55 49 51 54 53 52 50 50 53 59 70 66 60
51 53 54 53 60 52 64 69 76 76 92 89 64 62 79 90 95 97 98 82 74 75 66 64 56 52 63 73 71 71 71 63 59 59 64 60 56 52 54 54 61 66 70 69
68 59 54 59 67 58 63 69 89 95 96 93 84 87 98 93 91 95 96 99 91 81 71 69 63 57 63 62 65 70 71 68 66 68 69 65 60 58 59 60 57 58 68 68
71 65 53 65 69 73 70 78 84 96 89 96 98 98 98 96 91 93 94 95 96 96 87 76 72 62 63 62 63 64 66 65 68 66 68 69 70 70 66 66 65 63 63 67
76 73 54 58 71 72 77 78 92 94 96 93 91 96 97 96 97 97 97 97 96 92 93 85 79 74 69 63 65 69 70 71 70 68 66 63 63 62 64 69 67 68 67 68
71 79 59 60 65 71 85 89 91 90 93 97 96 97 98 98 97 97 97 97 97 93 90 89 82 80 78 77 76 80 81 80 75 71 68 66 65 63 63 66 70 69 70 66
74 80 74 62 56 68 79 86 89 91 92 97 97 97 98 98 97 97 97 97 97 98 89 88 88 89 86 85 88 78 78 78 77 75 71 70 69 66 63 62 65 68 68 63
82 83 79 65 73 80 86 87 87 89 98 96 97 97 98 97 97 97 97 97 98 97 95 96 98 97 94 97 92 89 83 81 80 76 78 80 77 73 68 66 68 68 69 69
88 90 89 93 92 90 91 97 95 97 98 97 96 97 96 97 97 97 97 97 97 97 96 89 88 95 91 85 83 76 81 77 76 74 78 80 75 75 69 66 65 66 68 68
92 93 98 95 92 90 95 98 96 90 93 91 97 96 96 97 97 97 97 96 97 93 90 83 83 88 87 86 80 78 75 73 72 71 74 77 76 71 70 75 81 80 78 79
93 97 98 96 94 94 97 97 94 95 97 96 96 96 97 97 97 97 97 98 95 93 87 81 79 75 78 81 81 77 76 75 75 71 72 73 75 76 73 79 73 81 83 83
98 98 98 97 90 86 87 97 97 96 95 96 92 95 95 90 89 93 91 95 93 88 83 79 77 74 72 69 73 76 78 78 77 78 79 76 74 79 83 84 78 72 78 77
95 98 98 97 94 92 95 94 93 91 93 93 89 86 86 84 85 82 85 85 83 79 75 72 69 64 64 63 64 68 70 72 75 78 79 80 79 79 80 83 83 83 83 87
87 98 98 98 96 96 91 92 95 93 92 91 91 89 81 79 81 80 79 80 78 73 69 69 66 66 66 63 61 62 59 59 58 57 64 74 79 82 82 81 84 89 88 89
81 93 99 97 92 96 94 94 90 88 90 87 84 84 84 84 81 79 80 79 74 70 67 64 61 60 58 57 57 57 56 56 52 51 51 54 59 69 78 83 85 87 88 86
81 93 97 97 93 92 94 94 92 87 88 85 82 80 79 78 76 75 73 70 68 65 63 61 58 56 56 54 53 50 48 47 49 49 52 52 51 51 53 63 75 82 85 86
85 96 96 97 95 93 94 91 81 84 85 81 78 76 76 74 72 72 71 69 66 65 63 62 60 59 58 56 54 52 49 51 52 52 51 49 49 49 50 51 54 59 69 78
92 93 96 97 96 94 91 84 82 83 83 80 78 75 73 73 72 71 69 67 68 66 63 60 57 56 56 54 52 50 51 50 50 49 47 46 46 47 48 49 51 54 55 58
97 93 94 96 96 93 89 84 78 76 75 76 73 72 70 67 66 65 65 65 63 61 61 60 58 57 57 55 54 52 52 50 49 47 46 45 44 43 42 43 44 47 51 54
95 96 96 97 95 93 90 88 80 77 76 75 74 74 73 72 69 68 66 65 66 65 63 60 59 59 57 55 54 53 52 49 48 48 47 47 47 46 46 46 46 47 48 48
97 96 97 97 93 93 90 86 82 79 76 73 71 70 69 67 65 65 65 64 65 65 62 60 59 59 58 57 56 55 54 53 52 52 51 50 49 49 49 50 50 51 51 51

GFSCGP_prec_cthk_117.txt.gz
RH
22 21 21 21 23 25 28 30 29 22 24 29 28 32 25 29 26 29 24 25 23 18 13 11 8 13 30 38 39 45 51 63 68 58 46 41 46 43 38 40 41 39 35 31
27 24 23 28 30 33 36 37 33 26 29 37 30 32 39 40 42 34 36 23 23 22 21 16 12 12 21 40 38 47 52 64 68 66 47 48 55 49 43 48 45 45 42 41
30 25 31 37 38 40 40 40 35 34 30 38 43 35 39 42 42 38 37 38 35 37 33 29 27 20 20 44 44 49 55 65 65 68 56 57 57 58 59 54 49 46 45 43
30 29 35 42 45 40 46 35 39 42 51 57 60 58 37 47 63 66 69 79 67 52 45 44 41 35 28 56 52 53 65 76 72 76 64 55 55 54 53 58 57 52 53 51
31 34 42 50 47 40 36 39 45 49 60 71 66 78 48 68 88 97 98 98 84 64 67 65 58 50 42 64 65 58 61 73 75 73 72 59 61 60 60 57 56 58 58 58
34 39 48 51 51 49 44 48 46 50 65 83 76 85 71 83 90 95 97 98 85 80 78 84 67 57 57 66 70 65 61 58 60 66 68 63 58 58 59 58 56 55 58 64
36 40 45 52 53 54 54 54 58 59 71 76 90 94 94 93 98 97 98 97 98 93 91 86 74 60 68 70 77 72 66 62 59 58 58 56 54 55 57 61 59 55 56 61
51 42 45 47 55 61 61 62 71 81 69 77 91 94 95 97 96 94 96 97 96 96 97 91 81 59 68 78 82 78 74 70 67 66 63 60 61 62 62 64 62 58 59 60
54 52 45 51 53 60 68 74 71 85 76 86 95 96 98 92 96 95 96 98 96 92 92 91 85 75 58 72 83 84 81 77 75 72 69 66 68 70 67 70 67 61 61 61
53 61 45 50 51 59 67 70 90 91 90 80 94 92 94 94 96 96 96 97 97 96 92 85 81 79 70 62 70 80 80 81 80 78 74 68 70 70 71 72 71 68 68 71
55 66 49 56 56 61 71 78 94 96 89 92 92 95 98 97 97 97 97 97 97 97 97 89 86 82 77 68 66 67 70 70 76 76 74 73 71 68 71 70 72 74 76 76
62 71 63 54 54 72 80 85 95 95 86 94 95 95 98 98 97 97 97 97 97 97 94 97 90 86 83 77 72 71 70 69 69 69 67 66 63 62 65 65 67 66 72 76
71 73 71 53 62 64 81 87 94 97 98 97 96 96 97 96 97 97 97 97 97 97 96 90 98 96 94 88 82 80 78 79 76 76 77 79 75 73 74 70 69 69 70 73
73 78 83 82 81 84 88 91 97 98 97 95 95 93 96 97 96 96 97 97 97 97 97 97 98 97 94 92 89 89 84 91 89 85 87 88 85 83 83 81 76 75 74 74
78 84 87 95 90 84 94 94 94 87 85 86 95 93 95 97 96 96 97 97 97 96 93 98 97 96 98 98 96 93 86 86 86 81 81 80 80 78 80 77 78 87 80 71
85 89 93 95 95 91 96 97 92 93 89 92 94 94 96 97 97 97 97 97 96 95 94 91 89 94 95 97 94 90 87 82 78 81 77 78 80 83 79 79 79 78 76 74
84 89 89 89 97 93 94 96 97 95 95 92 90 95 96 95 95 96 97 97 95 92 87 86 82 80 78 77 79 83 83 78 77 77 79 77 76 75 75 78 82 80 80 80
81 85 89 88 98 95 96 96 97 94 95 93 91 90 83 84 85 88 89 87 85 84 85 84 77 70 68 68 65 65 63 61 63 66 72 76 77 79 81 80 82 81 83 86
74 83 89 93 95 97 96 96 94 89 88 87 87 87 84 81 82 84 82 78 73 70 69 68 65 64 64 61 60 57 55 54 53 52 52 54 59 68 77 81 83 81 83 82
71 76 91 95 95 95 95 96 97 95 90 91 87 85 82 84 78 78 76 72 71 67 65 63 62 60 57 57 55 50 48 48 47 50 51 49 50 50 52 57 66 77 83 84
66 76 89 94 94 95 96 97 97 95 91 91 86 83 80 75 75 74 72 69 66 63 60 59 57 55 54 52 51 47 46 46 46 47 47 47 48 48 49 50 51 53 60 70
70 80 88 94 95 95 97 98 92 90 92 89 85 82 77 77 78 77 75 72 70 66 63 61 59 55 53 51 51 49 48 48 47 46 46 45 45 46 48 50 51 52 52 52
80 80 92 96 96 97 98 98 96 93 88 85 82 78 75 73 73 72 71 70 66 64 64 62 58 56 53 53 53 52 51 49 48 48 48 46 46 44 43 43 43 43 44 46
94 91 96 97 97 97 97 95 91 89 86 82 79 76 73 71 70 68 67 65 63 62 60 58 57 55 54 53 53 51 51 49 48 46 46 45 44 43 42 43 44 44 44 43
94 94 95 97 97 97 98 96 92 86 81 80 78 75 73 72 69 67 66 64 62 59 57 56 55 55 53 52 50 48 46 44 45 44 43 42 43 43 44 44 44 45 46 46
91 94 96 95 93 95 96 96 91 85 79 76 73 69 66 64 62 62 61 59 56 53 50 47 44 41 40 40 40 39 37 34 33 33 32 32 33 35 37 39 40 42 43 44

GFSCGP_prec_cthk_120.txt.gz
RH
26 22 17 16 19 20 20 21 20 21 19 22 28 29 30 22 25 40 33 30 30 26 24 23 18 13 15 13 21 32 42 60 66 61 52 48 46 43 41 44 44 35 33 32
26 21 17 21 23 25 26 25 24 19 26 29 28 35 35 34 41 53 51 50 44 38 33 31 27 20 28 27 19 31 43 57 67 67 59 55 50 49 45 52 46 39 37 37
23 20 19 24 26 30 30 28 27 26 29 32 34 36 46 50 55 51 61 73 74 73 69 59 44 39 35 23 21 27 45 58 66 71 70 65 63 57 49 54 50 39 41 43
23 22 22 27 31 36 34 27 27 28 37 39 44 46 50 56 60 64 69 79 87 86 89 91 66 48 39 28 23 28 47 56 66 71 78 67 63 51 46 47 46 46 50 51
27 25 28 34 33 35 34 35 35 37 44 46 45 55 52 60 68 70 73 80 86 87 84 75 70 67 56 41 36 32 53 65 69 72 76 66 81 66 61 59 59 60 62 59
27 28 34 35 38 42 42 44 46 47 47 54 50 61 62 79 85 78 82 85 91 87 86 86 85 77 66 59 47 44 62 75 76 81 77 89 85 74 56 60 62 58 59 64
27 30 34 36 36 44 49 56 57 61 64 48 52 64 83 89 91 91 89 91 96 91 91 91 91 87 80 73 60 56 68 84 82 84 85 81 72 78 70 68 67 63 57 62
30 32 34 36 41 46 48 60 63 78 63 56 55 72 85 86 89 94 94 96 95 96 91 96 97 95 90 89 76 78 86 83 87 87 90 88 91 87 75 71 66 62 60 59
39 41 32 35 43 51 55 59 62 71 69 77 72 80 89 80 87 92 95 96 96 94 97 97 94 94 86 89 80 85 93 88 83 78 83 81 77 74 71 67 62 62 62 60
41 52 35 41 46 52 56 63 74 88 87 80 81 87 84 87 89 94 95 96 97 95 97 96 98 88 85 88 90 87 97 92 85 80 84 72 65 63 61 66 70 72 72 70
41 53 38 42 50 52 60 71 82 88 80 87 83 89 90 94 94 95 96 97 97 97 96 96 98 93 81 81 95 98 94 90 80 83 78 76 75 70 70 71 70 72 72 74
48 54 48 45 52 54 55 69 91 95 85 89 94 91 93 94 93 95 96 97 97 97 97 95 90 91 85 73 73 88 94 87 91 84 81 76 76 73 72 71 72 71 71 75
55 55 53 51 62 58 62 74 82 93 98 95 96 94 89 92 94 95 97 97 97 97 97 95 92 84 83 81 73 71 77 88 91 88 87 87 84 81 77 76 72 72 72 72
55 57 67 67 71 70 75 77 80 98 98 95 93 94 91 93 93 96 97 97 97 97 95 97 97 93 88 80 77 75 74 75 79 78 78 74 70 70 71 72 73 72 75 76
54 65 69 72 80 79 76 84 89 91 92 93 94 91 94 95 94 95 96 97 97 97 97 97 97 97 98 89 88 88 83 77 72 73 73 74 75 77 81 84 84 81 82 86
58 69 76 80 83 87 81 89 87 89 88 90 89 93 96 95 96 95 97 96 92 94 92 91 94 97 97 96 92 91 86 84 84 84 81 85 85 80 81 81 85 87 88 86
61 69 73 73 89 82 86 95 95 93 88 89 92 94 95 94 94 95 94 91 93 90 87 83 83 81 82 86 88 87 88 86 90 84 77 77 77 81 79 82 82 79 82 85
63 65 73 74 92 92 93 91 88 89 92 90 87 92 91 83 81 84 86 82 77 79 82 84 81 77 76 74 71 71 71 69 69 68 69 72 73 77 80 81 82 82 81 83
57 64 66 79 92 94 91 94 91 89 89 85 92 91 89 86 82 84 84 80 77 72 71 71 70 72 71 69 65 62 58 55 53 55 55 51 49 49 56 66 75 81 84 80
61 63 67 74 91 90 88 92 96 95 92 88 89 89 85 84 80 78 74 69 66 65 61 62 58 57 55 55 53 49 48 47 47 47 48 47 47 46 47 48 48 50 54 66
65 65 67 74 85 90 92 97 98 96 95 91 86 82 79 77 75 74 71 69 66 64 63 60 58 57 55 53 51 48 48 45 44 41 40 40 41 43 45 46 46 46 46 47
53 60 67 72 86 94 94 98 97 95 94 92 87 84 81 79 77 75 72 69 67 64 62 60 58 57 54 52 50 48 47 46 45 45 42 42 41 41 41 40 40 41 41 42
65 63 67 75 86 95 98 98 97 95 94 91 83 79 77 76 74 71 70 68 66 62 59 58 56 54 53 51 49 48 47 45 44 43 42 41 39 38 38 38 38 37 37 38
74 76 82 87 95 97 98 97 98 97 95 89 83 81 78 75 72 69 68 65 62 60 58 57 54 51 49 46 42 38 38 36 34 34 33 33 33 34 34 34 35 36 36 39
73 86 90 97 97 97 98 97 98 97 94 89 85 79 76 73 69 65 62 59 55 53 50 47 42 39 36 34 31 29 30 31 28 27 27 27 27 28 28 29 26 28 30 32
72 80 92 96 96 97 97 97 97 97 95 89 82 75 70 65 63 61 58 55 50 45 40 36 34 32 29 26 24 23 22 24 24 25 25 25 26 26 26 26 26 26 23 24

GFSCGP_prec_cthk_123.txt.gz
RH
28 22 21 20 18 14 15 16 18 20 22 17 19 19 21 25 44 46 40 36 38 43 43 42 36 33 22 21 22 18 16 24 34 50 79 66 58 50 44 41 42 37 32 35
26 28 25 17 16 18 18 24 22 22 23 21 20 25 32 36 49 49 48 51 49 48 50 53 55 59 46 37 34 37 26 29 35 44 73 79 65 55 46 44 43 39 34 32
26 24 21 15 16 22 23 25 24 21 19 20 33 29 47 50 50 49 54 58 58 53 54 58 61 63 68 58 39 38 36 35 37 44 71 85 79 64 54 50 47 41 41 35
27 25 19 17 18 24 27 25 22 25 29 29 33 38 47 49 49 56 57 64 68 62 61 66 65 65 66 72 55 35 30 26 32 50 65 82 84 65 52 51 51 46 44 38
28 26 20 21 25 26 25 27 29 34 38 47 33 49 50 50 57 59 60 66 70 70 68 71 66 68 66 70 68 54 36 29 20 44 60 72 83 74 61 58 56 53 51 47
25 25 22 22 26 27 29 32 33 42 52 53 54 56 54 65 68 65 69 70 73 76 78 75 73 70 78 75 65 65 46 34 26 48 64 71 82 88 75 65 65 59 55 49
30 26 25 25 27 35 39 40 45 48 62 54 53 54 66 62 65 68 73 78 80 80 81 79 81 84 91 88 80 70 56 47 35 59 70 81 79 96 83 78 87 64 62 61
26 37 30 31 28 32 35 44 54 59 53 46 45 58 79 64 68 74 78 82 83 83 85 89 92 95 97 91 93 88 72 59 44 69 68 79 81 91 97 76 93 85 72 68
29 28 29 28 28 33 48 46 54 64 55 69 69 83 79 71 72 77 81 83 86 87 84 92 96 96 92 98 97 91 75 67 52 83 80 85 84 87 89 92 78 81 81 76
34 41 26 31 31 36 43 47 59 73 84 77 65 91 88 80 77 79 81 86 90 90 87 94 96 89 96 97 97 99 86 62 90 88 98 93 89 94 92 93 84 88 75 79
34 44 36 32 40 40 53 57 68 70 72 85 77 93 87 83 83 84 87 90 93 93 91 96 97 91 91 97 98 92 90 74 80 98 98 98 98 97 92 86 85 91 82 76
41 45 41 40 41 36 42 56 58 80 75 94 98 94 87 83 83 85 90 93 93 94 95 92 94 96 91 95 96 93 88 78 82 96 91 86 91 91 94 97 94 89 83 78
46 48 49 56 55 52 53 55 57 67 77 85 96 95 85 83 84 88 93 95 94 94 96 96 87 92 96 96 91 96 90 87 79 90 95 91 91 96 97 93 88 84 81 78
46 48 51 58 55 49 55 61 62 75 91 96 89 91 85 87 88 89 91 96 97 96 96 97 96 89 91 91 89 94 94 85 89 98 98 95 90 90 83 86 85 83 80 78
48 53 54 55 51 57 62 70 71 79 84 89 86 85 86 89 90 91 92 92 94 96 96 97 97 97 97 88 86 83 82 88 92 94 87 83 84 79 80 86 83 73 72 72
50 59 63 61 56 60 76 74 75 81 81 80 77 85 87 90 90 92 92 88 85 86 85 92 95 96 94 96 91 91 90 84 85 75 74 71 70 74 75 71 71 72 82 81
55 55 61 55 59 62 76 78 80 80 77 80 81 84 86 87 88 86 87 82 84 83 86 82 82 84 87 86 82 73 75 82 75 72 72 65 66 71 67 75 78 77 79 79
54 55 53 53 68 75 78 74 76 80 81 78 80 82 84 84 83 76 73 77 76 75 72 79 79 78 77 77 78 78 71 66 62 55 54 62 66 68 73 74 72 74 79 78
46 53 56 56 58 81 82 78 79 83 86 82 81 80 83 85 82 80 75 75 72 70 69 64 62 63 69 65 63 63 64 66 66 64 64 59 57 53 49 47 50 58 68 73
52 52 62 54 62 71 85 81 84 87 89 84 85 83 86 87 83 75 70 67 63 58 57 55 56 53 48 47 47 47 45 45 45 48 46 47 47 43 42 42 45 46 45 47
57 55 61 57 56 71 71 85 90 94 92 88 89 87 81 79 77 73 69 67 63 60 57 56 53 49 46 45 44 44 42 39 39 38 36 35 34 33 34 35 36 37 38 39
54 58 58 52 59 74 80 86 94 92 92 93 91 87 81 78 76 71 68 66 63 59 58 56 53 50 49 46 44 43 41 41 40 38 37 37 36 36 36 36 34 32 32 33
52 48 59 64 72 79 83 86 91 97 96 95 93 89 82 76 73 71 68 66 62 59 56 54 51 48 43 39 35 33 32 32 31 28 27 27 27 27 28 28 29 26 26 29
55 55 62 68 73 74 78 86 96 98 97 96 92 88 81 76 74 72 69 64 58 54 50 46 41 34 31 29 27 27 26 24 25 24 23 22 22 21 20 21 22 23 19 23
61 62 71 80 88 91 94 97 98 97 97 94 92 89 84 78 73 69 64 58 52 47 40 34 30 27 26 25 23 22 21 21 20 19 19 19 20 20 20 22 20 22 19 16
53 61 66 82 86 95 96 97 97 97 97 96 93 89 83 76 68 64 59 52 43 36 32 29 26 23 21 20 16 15 14 14 16 20 20 20 21 21 21 22 27 27 23 23

GFSCGP_prec_cthk_126.txt.gz
RH
26 28 25 23 25 22 17 13 15 15 18 19 18 14 14 18 31 35 33 36 38 39 38 39 42 40 34 33 31 23 19 19 22 16 24 39 45 81 77 61 45 37 35 32
31 27 25 27 23 17 16 18 19 20 21 18 16 13 20 32 50 43 39 40 42 40 41 45 49 46 44 40 39 38 33 24 20 26 26 45 52 66 85 72 53 44 37 32
28 27 30 28 24 19 20 19 23 24 17 17 22 20 25 52 54 56 49 50 47 48 48 51 52 51 48 47 44 44 43 39 30 21 27 37 49 66 90 84 63 50 41 39
26 27 27 27 25 21 22 23 22 20 24 25 27 40 35 51 64 52 62 53 54 53 55 58 58 57 58 54 53 47 42 44 43 26 25 27 44 66 85 92 69 56 48 41
28 32 30 24 20 23 25 21 21 21 27 32 33 53 65 67 71 68 62 58 57 59 61 64 66 66 65 61 56 51 48 42 50 43 23 22 38 58 76 94 81 63 55 45
34 32 32 26 24 25 21 23 27 29 33 48 48 67 84 87 79 67 63 61 60 63 67 72 71 69 67 66 64 62 64 54 56 50 27 21 31 48 71 85 85 67 56 49
37 31 25 29 25 23 31 40 42 36 42 42 46 56 71 60 65 67 66 66 67 69 74 76 74 71 73 72 75 74 75 70 55 56 46 27 27 53 65 92 89 74 61 54
39 39 38 37 28 27 37 37 40 45 48 42 31 51 75 72 73 73 68 69 74 75 81 79 76 77 78 78 79 83 83 83 64 61 58 33 31 51 69 83 99 84 72 70
57 41 42 35 30 26 41 36 45 50 44 53 47 82 86 83 77 73 71 73 78 82 82 82 83 86 82 88 95 94 94 84 73 69 59 43 37 57 78 90 72 98 87 72
49 53 30 29 30 26 30 35 47 57 73 58 49 83 86 84 82 75 72 76 80 83 85 86 89 90 83 92 94 90 97 93 88 83 73 46 45 70 90 83 88 92 93 69
45 46 36 31 32 33 51 54 63 58 61 70 78 90 91 88 82 77 76 80 84 85 88 89 87 93 91 97 96 97 96 97 99 90 68 45 61 79 89 91 92 96 97 86
50 50 50 38 50 42 36 41 43 56 53 64 81 86 81 82 82 78 79 83 86 90 91 90 86 91 97 91 94 97 97 98 99 92 76 63 64 85 99 99 96 98 89 90
64 55 52 51 49 49 48 52 45 48 52 60 75 79 85 84 82 80 83 84 88 92 95 95 94 92 94 96 97 97 97 92 98 90 74 88 81 83 89 98 97 97 90 94
60 54 52 88 88 73 63 52 47 53 69 71 83 89 86 83 82 82 81 81 84 94 95 97 97 96 88 92 97 97 96 98 93 89 94 80 89 93 96 95 93 94 89 93
57 58 46 51 64 59 56 53 55 57 63 78 83 87 83 81 81 82 81 77 77 79 86 94 97 96 96 91 91 90 91 89 90 91 91 85 95 98 95 84 91 98 98 96
53 58 58 55 47 50 55 61 62 62 66 73 76 81 81 80 80 79 76 75 73 73 80 81 83 91 91 88 87 89 85 87 87 88 89 91 85 96 98 98 98 98 96 90
62 55 60 53 54 56 68 63 68 64 64 67 80 81 79 81 81 78 75 65 70 68 70 76 79 80 81 83 83 78 78 72 66 71 71 70 74 86 85 94 94 94 90 90
56 58 70 54 64 74 66 61 61 60 62 67 76 80 77 83 83 83 75 72 70 69 66 62 62 66 69 69 73 73 74 70 63 58 57 63 69 65 63 67 71 73 79 82
37 52 66 59 52 69 66 64 64 64 68 72 76 78 77 81 83 85 76 70 64 60 57 59 57 54 51 54 49 49 50 53 58 58 58 61 59 54 55 53 52 51 47 48
33 49 61 56 60 53 70 67 72 72 80 72 78 81 80 82 87 86 74 67 64 61 56 53 50 48 47 47 46 43 37 34 33 33 36 37 36 35 35 36 36 36 36 37
65 72 63 62 56 57 63 69 71 80 82 79 83 85 86 88 84 79 73 66 61 58 56 54 52 51 48 47 44 41 39 38 36 34 32 30 29 28 28 28 28 29 30 31
63 65 65 61 61 74 71 80 86 81 80 81 87 92 94 90 86 78 72 65 61 58 57 55 52 47 41 36 32 29 27 29 28 25 25 24 24 23 21 17 15 15 17 19
78 69 72 74 74 75 76 79 77 78 83 88 95 95 93 91 85 78 72 66 62 58 55 51 43 35 30 26 23 21 21 20 19 18 17 18 16 16 16 14 13 11 10 10
53 49 55 53 57 60 64 71 73 72 82 92 97 96 91 87 84 80 74 68 61 56 48 40 32 26 24 21 18 16 15 15 17 16 17 15 16 16 16 15 15 13 12 12
58 51 52 61 63 67 72 81 85 85 91 96 97 95 92 89 86 81 74 67 58 47 39 31 27 24 22 17 13 12 12 12 13 19 17 16 19 19 18 19 20 20 19 18
54 52 54 60 58 63 79 90 94 97 97 97 96 95 93 90 86 81 72 59 47 38 32 26 24 21 19 15 14 14 13 12 12 16 20 20 22 22 21 21 22 23 23 23

GFSCGP_prec_cthk_129.txt.gz
RH
22 25 27 23 24 24 23 22 20 16 12 19 21 18 15 21 27 31 32 35 35 38 38 37 34 32 30 31 31 31 27 27 26 23 17 15 17 26 50 67 82 84 62 50
26 26 25 24 24 26 25 24 20 18 20 23 20 18 21 27 33 36 40 42 43 48 45 43 38 36 34 34 36 35 34 29 29 30 28 23 19 19 45 65 76 85 79 58
30 26 27 27 28 29 28 25 24 26 23 21 18 20 31 38 41 46 49 52 50 55 49 44 42 39 39 40 40 40 39 37 32 32 32 31 23 21 24 57 67 77 93 65
29 27 28 29 29 31 30 21 28 30 28 30 24 31 44 50 52 56 61 69 64 54 52 51 46 46 48 48 50 50 46 43 42 39 37 37 33 21 18 40 63 80 90 86
32 33 35 33 33 33 27 30 31 29 25 26 29 51 48 62 68 57 62 62 58 59 57 53 54 57 56 56 53 53 51 48 46 42 41 39 37 29 19 21 61 77 87 98
38 35 39 39 38 34 32 31 28 30 34 50 31 51 64 73 57 63 66 69 66 61 59 59 65 64 60 61 61 60 59 57 51 49 46 41 37 34 26 19 38 74 80 96
44 40 42 36 37 31 29 36 55 50 49 47 35 52 67 56 59 73 72 72 66 64 65 66 68 66 68 67 64 65 66 68 65 63 61 55 46 41 34 18 24 68 78 86
51 48 42 47 42 43 41 41 55 55 61 58 37 49 60 59 77 75 76 76 71 70 69 71 72 73 74 70 69 71 70 69 80 80 78 73 56 47 39 20 24 62 80 89
65 52 46 50 53 47 37 38 39 51 51 60 59 65 68 68 78 80 80 79 76 74 72 76 75 73 77 73 76 75 79 77 83 88 88 91 68 48 44 30 34 47 72 91
59 63 48 47 54 47 34 26 48 64 72 71 58 74 71 74 86 81 82 82 78 78 76 79 76 75 74 80 85 84 84 89 90 94 85 71 65 54 58 43 33 40 81 92
67 70 56 46 41 35 42 46 61 68 73 77 72 67 67 74 79 80 84 82 81 81 80 83 83 82 81 90 94 94 95 95 95 96 91 71 90 78 64 59 48 59 82 97
74 77 77 53 40 51 55 56 70 78 67 64 71 67 60 69 78 84 83 84 84 83 84 86 88 86 87 89 94 96 97 97 96 97 97 89 71 78 70 59 57 71 92 99
75 70 75 61 51 55 59 63 66 64 62 61 71 62 62 76 85 84 82 79 79 83 89 89 89 91 92 93 89 97 97 95 97 98 98 99 85 82 84 63 69 82 87 95
76 71 78 77 86 83 94 88 71 71 79 69 68 72 75 85 86 83 81 79 77 71 75 86 90 92 91 90 92 96 96 96 97 98 98 99 95 88 80 65 76 73 98 98
74 81 80 63 45 60 76 85 73 74 65 69 73 73 78 82 81 81 82 79 72 68 62 76 79 84 87 89 88 82 85 91 94 98 99 96 99 95 85 74 81 94 90 94
78 86 83 75 39 38 49 65 60 56 61 67 69 74 75 80 80 81 80 75 75 63 68 61 71 75 74 85 86 80 73 71 73 83 91 93 92 94 82 87 78 85 94 92
72 70 76 72 42 56 63 49 56 63 68 66 69 68 79 83 84 84 83 80 75 67 65 62 58 60 67 65 70 75 72 68 65 65 68 65 67 67 70 70 78 89 95 97
78 77 87 78 47 65 66 72 65 68 66 62 68 72 77 81 85 86 84 80 70 64 60 55 56 57 54 55 50 49 50 56 56 54 56 54 49 50 46 49 48 57 63 63
77 84 92 79 57 53 55 58 61 66 69 60 66 72 79 82 87 87 85 80 73 63 59 52 48 47 48 47 48 45 36 34 31 32 33 35 38 40 39 34 33 35 39 40
60 72 76 55 64 67 64 64 66 66 77 66 66 72 79 86 91 92 84 80 69 62 57 54 51 48 45 41 38 36 38 33 33 32 32 28 23 21 19 21 24 26 27 28
52 61 67 57 66 64 60 61 61 71 70 68 70 69 75 88 93 95 84 78 70 60 56 55 51 45 40 36 33 31 30 30 29 26 22 21 17 14 13 12 11 11 11 12
68 84 78 78 75 70 59 65 76 75 71 75 76 81 83 88 96 93 86 79 70 63 58 55 47 39 32 27 24 23 23 22 19 18 17 17 16 14 11 10 10 9 8 8
95 77 78 76 75 69 70 72 68 64 62 65 71 81 92 97 96 91 85 78 71 66 60 51 41 33 26 21 17 16 17 18 18 15 17 19 19 19 19 17 16 14 12 12
83 75 77 78 76 72 68 66 60 62 69 74 79 79 95 97 92 89 84 79 74 68 57 44 34 27 21 16 13 12 11 14 18 17 19 21 20 20 20 21 20 18 18 18
69 63 64 67 63 57 58 61 66 71 78 82 88 87 93 94 91 89 85 80 73 61 50 38 31 23 17 14 12 13 13 14 15 17 16 17 19 19 19 20 20 22 22 22
63 55 61 54 46 48 53 56 65 75 85 91 94 97 97 96 93 89 84 76 64 53 44 33 24 18 16 15 15 15 15 16 16 17 18 18 20 22 21 22 22 26 27 28